[[{"header":{"parameterUnit":"m.s-1","parameterCategory":1,"la1":31.0,"la2":29.5877,"lo1":-88.7671,"lo2":-86.6584,"dy":0.0162,"dx":0.0185,"nx":115,"ny":88,"refTime":"2023-10-17T06:00:00:Z","depth":0,"parameterNumber":2,"parameterNumberName":"U-component_of_WINDS"},"data":[0.0,0.0,0.0,0.0,0.0,0.0,0.0,0.0,0.0,0.0,0.0,0.0,0.0,0.0,0.0,0.0,0.0,0.0,0.0,0.0,0.0,0.0,0.0,0.0,0.0,0.0,0.0,0.0,0.0,0.0,0.0,0.0,0.0,0.0,0.0,0.0,0.0,0.0,0.0,0.0,0.0,0.0,0.0,0.0,0.0,0.0,0.0,0.0,0.0,0.0,0.0,0.0,0.0,0.0,0.0,0.0,0.0,0.0,0.0,0.0,0.0,0.0,0.0,0.0,0.0,0.0,0.0,0.0,0.0,0.0,0.0,0.0,0.0,0.0,0.0,0.0,0.0,0.0,0.0,0.0,0.0,0.0,0.0,0.0,0.0,0.0,0.0,0.0,0.0,0.0,0.0,0.0,0.0,0.0,0.0,0.0,0.0,0.0,0.0,0.0,0.0,0.0,0.0,0.0,0.0,0.0,0.0,0.0,0.0,0.0,0.0,0.0,0.0,0.0,0.0,0.0,0.0,0.0,0.0,0.0,0.0,0.0,0.0,0.0,0.0,0.0,0.0,0.0,0.0,0.0,0.0,0.0,0.0,0.0,0.0,0.0,0.0,0.0,0.0,0.0,0.0,0.0,0.0,0.0,0.0,0.0,0.0,0.0,0.0,0.0,0.0,0.0,0.0,0.0,0.0,0.0,0.0,0.0,0.0,0.0,0.0,0.0,0.0,0.0,0.0,0.0,0.0,0.0,0.0,0.0,0.0,0.0,0.0,0.0,0.0,0.0,0.0,0.0,0.0,0.0,0.0,0.0,0.0,0.0,0.0,0.0,0.0,0.0,0.0,0.0,0.0,0.0,0.0,0.0,0.0,0.0,0.0,0.0,0.0,0.0,0.0,0.0,0.0,0.0,0.0,0.0,0.0,0.0,0.0,0.0,0.0,0.0,0.0,0.0,0.0,0.0,0.0,0.0,0.0,0.0,0.0,0.0,0.0,0.0,0.0,0.0,0.0,0.0,0.0,0.0,0.0,0.0,0.0,0.0,0.0,0.0,0.0,0.0,0.0,0.0,0.0,0.0,0.0,0.0,0.0,0.0,0.0,0.0,0.0,0.0,0.0,0.0,0.0,0.0,0.0,0.0,0.0,0.0,0.0,0.0,0.0,0.0,0.0,0.0,0.0,0.0,0.0,0.0,0.0,0.0,0.0,0.0,0.0,0.0,0.0,0.0,0.0,0.0,0.0,0.0,0.0,0.0,0.0,0.0,0.0,0.0,0.0,0.0,0.0,0.0,0.0,0.0,0.0,0.0,0.0,0.0,0.0,0.0,0.0,0.0,0.0,0.0,0.0,0.0,0.0,0.0,0.0,0.0,0.0,0.0,0.0,0.0,0.0,0.0,0.0,0.0,0.0,0.0,0.0,0.0,0.0,0.0,0.0,0.0,0.0,0.0,0.0,0.0,0.0,0.0,0.0,0.0,0.0,0.0,0.0,0.0,0.0,0.0,0.0,0.0,0.0,0.0,0.0,0.0,0.0,0.0,0.0,0.0,0.0,0.0,0.0,0.0,0.0,0.0,0.0,0.0,0.0,0.0,0.0,0.0,0.0,0.0,0.0,0.0,0.0,0.0,0.0,0.0,0.0,0.0,0.0,0.0,0.0,0.0,0.0,0.0,0.0,0.0,0.0,0.0,0.0,0.0,0.0,0.0,0.0,0.0,0.0,0.0,0.0,0.0,0.0,0.0,0.0,0.0,0.0,0.0,0.0,0.0,0.0,0.0,0.0,0.0,0.0,0.0,0.0,0.0,0.0,0.0,0.0,0.0,0.0,0.0,0.0,0.0,0.0,0.0,0.0,0.0,0.0,0.0,0.0,0.0,0.0,0.0,0.0,0.0,0.0,0.0,0.0,0.0,0.0,0.0,0.0,0.0,0.0,0.0,0.0,0.0,0.0,0.0,0.0,0.0,0.0,0.0,0.0,0.0,0.0,0.0,0.0,0.0,0.0,0.0,0.0,0.0,0.0,0.0,0.0,0.0,0.0,0.0,0.0,0.0,0.0,0.0,0.0,0.0,0.0,0.0,0.0,0.0,0.0,0.0,0.0,0.0,0.0,0.0,0.0,0.0,0.0,0.0,0.0,0.0,0.0,0.0,0.0,0.0,0.0,0.0,0.0,0.0,0.0,0.0,0.0,0.0,0.0,0.0,0.0,0.0,0.0,0.0,0.0,0.0,0.0,0.0,0.0,0.0,0.0,0.0,0.0,0.0,0.0,0.0,0.0,0.0,0.0,0.0,0.0,0.0,0.0,0.0,0.0,0.0,0.0,0.0,0.0,0.0,0.0,0.0,0.0,0.0,0.0,0.0,0.0,0.0,0.0,0.0,0.0,0.0,0.0,0.0,0.0,0.0,0.0,0.0,0.0,0.0,0.0,0.0,0.0,0.0,0.0,0.0,0.0,0.0,0.0,0.0,0.0,0.0,0.0,0.0,0.0,0.0,0.0,0.0,0.0,0.0,0.0,0.0,0.0,0.0,0.0,0.0,0.0,0.0,0.0,0.0,0.0,0.0,0.0,0.0,0.0,0.0,0.0,0.0,0.0,0.0,0.0,0.0,0.0,0.0,0.0,0.0,0.0,0.0,0.0,0.0,0.0,0.0,0.0,0.0,0.0,0.0,0.0,0.0,0.0,0.0,0.0,0.0,0.0,0.0,0.0,0.0,0.0,0.0,0.0,0.0,0.0,0.0,0.0,0.0,0.0,0.0,0.0,0.0,0.0,0.0,0.0,0.0,0.0,0.0,0.0,0.0,0.0,0.0,0.0,0.0,0.0,0.0,0.0,0.0,0.0,0.0,0.0,0.0,0.0,0.0,0.0,0.0,0.0,0.0,0.0,0.0,0.0,0.0,0.0,0.0,0.0,0.0,0.0,0.0,0.0,0.0,0.0,0.0,0.0,0.0,0.0,0.0,0.0,0.0,0.0,0.0,0.0,0.0,0.0,0.0,0.0,0.0,0.0,0.0,0.0,0.0,0.0,0.0,0.0,0.0,0.0,0.0,0.0,0.0,0.0,0.0,0.0,0.0,0.0,0.0,0.0,0.0,0.0,0.0,0.0,0.0,0.0,0.0,0.0,0.0,0.0,0.0,0.0,0.0,0.0,0.0,0.0,0.0,0.0,0.0,0.0,0.0,0.0,0.0,0.0,0.0,0.0,0.0,0.0,0.0,0.0,0.0,0.0,0.0,0.0,0.0,0.0,0.0,0.0,0.0,0.0,0.0,0.0,0.0,0.0,0.0,0.0,0.0,0.0,0.0,0.0,0.0,0.0,0.0,0.0,0.0,0.0,0.0,0.0,0.0,0.0,0.0,0.0,0.0,0.0,0.0,0.0,0.0,0.0,0.0,0.0,0.0,0.0,0.0,0.0,0.0,0.0,0.0,0.0,0.0,0.0,0.0,0.0,0.0,0.0,0.0,0.0,0.0,0.0,0.0,0.0,0.0,0.0,0.0,0.0,0.0,0.0,0.0,0.0,0.0,0.0,0.0,0.0,0.0,0.0,0.0,0.0,0.0,0.0,0.0,0.0,0.0,0.0,0.0,0.0,0.0,0.0,0.0,0.0,0.0,0.0,0.0,0.0,0.0,0.0,0.0,0.0,0.0,0.0,0.0,0.0,0.0,0.0,0.0,0.0,0.0,0.0,0.0,0.0,0.0,0.0,0.0,0.0,0.0,0.0,0.0,0.0,0.0,0.0,0.0,0.0,0.0,0.0,0.0,0.0,0.0,0.0,0.0,0.0,0.0,0.0,0.0,0.0,0.0,0.0,0.0,0.0,0.0,0.0,0.0,0.0,0.0,0.0,0.0,0.0,0.0,0.0,0.0,0.0,0.0,0.0,0.0,0.0,0.0,0.0,0.0,0.0,0.0,0.0,0.0,0.0,0.0,0.0,0.0,0.0,0.0,0.0,0.0,0.0,0.0,0.0,0.0,0.0,0.0,0.0,0.0,0.0,0.0,0.0,0.0,0.0,0.0,0.0,0.0,0.0,0.0,0.0,0.0,0.0,0.0,0.0,0.0,0.0,0.0,0.0,0.0,0.0,0.0,0.0,0.0,0.0,0.0,0.0,0.0,0.0,0.0,0.0,0.0,0.0,0.0,0.0,0.0,0.0,0.0,0.0,0.0,0.0,0.0,0.0,0.0,0.0,0.0,0.0,0.0,0.0,0.0,0.0,0.0,0.0,0.0,0.0,0.0,0.0,0.0,0.0,0.0,-1.8965,0.0,0.0,0.0,-1.9681,0.0,0.0,0.0,0.0,0.0,0.0,0.0,0.0,0.0,0.0,0.0,0.0,0.0,0.0,0.0,0.0,0.0,0.0,0.0,0.0,0.0,0.0,0.0,0.0,0.0,0.0,0.0,0.0,0.0,0.0,0.0,0.0,0.0,0.0,0.0,0.0,0.0,0.0,0.0,0.0,0.0,0.0,0.0,0.0,0.0,0.0,0.0,0.0,0.0,0.0,0.0,0.0,0.0,0.0,0.0,0.0,0.0,0.0,0.0,0.0,0.0,0.0,0.0,0.0,0.0,0.0,0.0,0.0,0.0,0.0,0.0,0.0,0.0,0.0,0.0,0.0,0.0,0.0,0.0,0.0,0.0,0.0,0.0,0.0,0.0,0.0,0.0,0.0,0.0,0.0,0.0,0.0,0.0,0.0,0.0,0.0,0.0,0.0,0.0,0.0,0.0,0.0,0.0,0.0,0.0,0.0,0.0,0.0,0.0,0.0,-1.8751,-1.8952,-1.9098,-1.9285,-1.945,0.0,0.0,0.0,0.0,0.0,0.0,0.0,0.0,0.0,0.0,0.0,0.0,0.0,0.0,0.0,0.0,0.0,0.0,0.0,0.0,0.0,0.0,0.0,0.0,0.0,0.0,0.0,0.0,0.0,0.0,0.0,0.0,0.0,0.0,0.0,0.0,0.0,0.0,0.0,0.0,0.0,0.0,0.0,0.0,0.0,0.0,0.0,0.0,0.0,0.0,0.0,0.0,0.0,0.0,0.0,0.0,0.0,0.0,0.0,0.0,0.0,0.0,0.0,0.0,0.0,0.0,0.0,0.0,0.0,0.0,0.0,0.0,0.0,0.0,0.0,0.0,0.0,0.0,0.0,0.0,0.0,0.0,0.0,0.0,0.0,0.0,0.0,0.0,0.0,0.0,0.0,0.0,0.0,0.0,0.0,0.0,0.0,0.0,0.0,0.0,0.0,0.0,0.0,0.0,0.0,0.0,0.0,0.0,0.0,0.0,0.0,0.0,-1.8898,-1.9098,-1.9318,0.0,0.0,0.0,0.0,0.0,0.0,0.0,0.0,0.0,0.0,0.0,0.0,0.0,0.0,0.0,0.0,0.0,0.0,0.0,0.0,0.0,0.0,0.0,0.0,0.0,0.0,0.0,0.0,0.0,0.0,0.0,0.0,0.0,0.0,0.0,0.0,0.0,0.0,0.0,0.0,0.0,0.0,0.0,0.0,0.0,0.0,0.0,0.0,0.0,0.0,0.0,0.0,0.0,0.0,0.0,0.0,0.0,0.0,0.0,0.0,0.0,0.0,0.0,0.0,0.0,0.0,0.0,0.0,0.0,0.0,0.0,0.0,0.0,0.0,0.0,0.0,0.0,0.0,0.0,0.0,0.0,0.0,0.0,0.0,0.0,0.0,0.0,0.0,0.0,0.0,0.0,0.0,0.0,0.0,0.0,0.0,0.0,0.0,0.0,0.0,0.0,0.0,0.0,0.0,0.0,0.0,0.0,0.0,0.0,0.0,-1.8327,-1.8327,-1.863,0.0,-1.9285,0.0,0.0,0.0,0.0,0.0,0.0,0.0,0.0,0.0,0.0,0.0,0.0,0.0,0.0,0.0,0.0,0.0,0.0,0.0,0.0,0.0,0.0,0.0,0.0,0.0,0.0,0.0,0.0,0.0,0.0,0.0,0.0,0.0,0.0,0.0,0.0,0.0,0.0,0.0,0.0,0.0,0.0,0.0,0.0,0.0,0.0,0.0,0.0,0.0,0.0,0.0,0.0,0.0,0.0,0.0,0.0,0.0,0.0,0.0,0.0,0.0,0.0,0.0,0.0,0.0,0.0,0.0,0.0,0.0,0.0,0.0,0.0,0.0,0.0,0.0,0.0,0.0,0.0,0.0,0.0,0.0,0.0,0.0,0.0,0.0,0.0,0.0,0.0,0.0,0.0,0.0,0.0,0.0,0.0,0.0,0.0,0.0,0.0,0.0,0.0,0.0,0.0,0.0,0.0,0.0,0.0,0.0,0.0,0.0,0.0,-1.8178,-1.8313,-1.8617,-1.8885,0.0,0.0,0.0,0.0,0.0,0.0,0.0,0.0,0.0,0.0,0.0,0.0,0.0,0.0,0.0,0.0,0.0,0.0,0.0,0.0,0.0,0.0,0.0,0.0,0.0,0.0,0.0,0.0,0.0,0.0,0.0,0.0,0.0,0.0,0.0,0.0,0.0,0.0,0.0,0.0,0.0,0.0,0.0,0.0,0.0,0.0,0.0,0.0,0.0,0.0,0.0,0.0,0.0,0.0,0.0,0.0,0.0,0.0,0.0,0.0,0.0,0.0,0.0,0.0,0.0,0.0,0.0,0.0,0.0,0.0,0.0,0.0,0.0,0.0,0.0,0.0,0.0,0.0,0.0,0.0,0.0,0.0,0.0,0.0,0.0,0.0,0.0,0.0,0.0,0.0,0.0,0.0,0.0,0.0,0.0,0.0,0.0,0.0,0.0,0.0,0.0,0.0,0.0,0.0,0.0,0.0,0.0,0.0,0.0,0.0,-1.8008,-1.811,-1.8313,-1.8529,-1.8697,-1.8818,0.0,0.0,0.0,0.0,0.0,0.0,0.0,0.0,0.0,0.0,0.0,0.0,0.0,0.0,0.0,0.0,0.0,0.0,0.0,0.0,0.0,0.0,0.0,0.0,0.0,0.0,0.0,0.0,0.0,0.0,0.0,0.0,0.0,0.0,0.0,0.0,0.0,0.0,0.0,0.0,0.0,0.0,0.0,0.0,0.0,0.0,0.0,0.0,0.0,0.0,0.0,0.0,0.0,0.0,0.0,0.0,0.0,0.0,0.0,0.0,0.0,0.0,0.0,0.0,0.0,0.0,0.0,0.0,0.0,0.0,0.0,0.0,0.0,0.0,0.0,0.0,0.0,0.0,0.0,0.0,0.0,0.0,0.0,0.0,0.0,0.0,0.0,0.0,0.0,0.0,0.0,0.0,0.0,0.0,0.0,0.0,0.0,0.0,0.0,0.0,0.0,0.0,0.0,0.0,0.0,0.0,0.0,0.0,-1.8008,-1.8008,-1.811,-1.8313,-1.8293,-1.8462,0.0,0.0,0.0,0.0,0.0,0.0,0.0,0.0,0.0,0.0,0.0,0.0,0.0,0.0,0.0,0.0,0.0,0.0,0.0,0.0,0.0,0.0,0.0,0.0,0.0,0.0,0.0,0.0,0.0,0.0,0.0,0.0,0.0,0.0,0.0,0.0,0.0,0.0,0.0,0.0,0.0,0.0,0.0,0.0,0.0,0.0,0.0,0.0,0.0,0.0,0.0,0.0,0.0,0.0,0.0,0.0,0.0,0.0,0.0,0.0,0.0,0.0,0.0,0.0,0.0,0.0,0.0,0.0,0.0,0.0,0.0,0.0,0.0,0.0,0.0,0.0,0.0,0.0,0.0,0.0,0.0,0.0,0.0,0.0,0.0,0.0,0.0,0.0,0.0,0.0,0.0,0.0,0.0,0.0,0.0,0.0,0.0,0.0,0.0,0.0,0.0,0.0,0.0,0.0,0.0,0.0,0.0,0.0,0.0,-1.8008,-1.8008,-1.8042,-1.811,-1.8245,-1.8361,0.0,0.0,0.0,0.0,0.0,0.0,0.0,0.0,0.0,0.0,0.0,0.0,0.0,0.0,0.0,0.0,0.0,0.0,0.0,0.0,0.0,0.0,0.0,0.0,0.0,0.0,0.0,0.0,0.0,0.0,0.0,0.0,0.0,0.0,0.0,0.0,0.0,0.0,0.0,0.0,0.0,0.0,0.0,0.0,0.0,0.0,0.0,0.0,0.0,0.0,0.0,0.0,0.0,0.0,0.0,0.0,0.0,0.0,0.0,0.0,0.0,0.0,0.0,0.0,0.0,0.0,0.0,0.0,0.0,0.0,0.0,0.0,0.0,0.0,0.0,0.0,0.0,0.0,0.0,0.0,0.0,0.0,0.0,0.0,0.0,0.0,0.0,0.0,0.0,0.0,0.0,0.0,0.0,0.0,0.0,0.0,0.0,0.0,0.0,0.0,0.0,0.0,0.0,0.0,0.0,0.0,0.0,0.0,0.0,-1.8008,0.0,-1.8008,-1.8008,-1.8144,-1.8226,0.0,0.0,0.0,0.0,0.0,0.0,0.0,0.0,0.0,0.0,0.0,0.0,0.0,0.0,0.0,0.0,0.0,0.0,0.0,0.0,0.0,0.0,0.0,0.0,0.0,0.0,0.0,0.0,0.0,0.0,0.0,0.0,0.0,0.0,0.0,0.0,0.0,0.0,0.0,0.0,0.0,0.0,0.0,0.0,0.0,0.0,0.0,0.0,0.0,0.0,0.0,0.0,0.0,0.0,0.0,0.0,0.0,0.0,0.0,0.0,0.0,0.0,0.0,0.0,0.0,0.0,0.0,0.0,0.0,0.0,0.0,0.0,0.0,0.0,0.0,0.0,0.0,0.0,0.0,0.0,0.0,0.0,0.0,0.0,0.0,0.0,0.0,0.0,0.0,0.0,0.0,0.0,0.0,0.0,0.0,0.0,0.0,0.0,0.0,0.0,0.0,0.0,0.0,0.0,0.0,0.0,0.0,0.0,-1.8027,-1.8008,-1.8008,-1.8027,-1.8008,-1.8027,-1.8129,0.0,0.0,0.0,0.0,0.0,0.0,0.0,0.0,0.0,0.0,0.0,0.0,0.0,0.0,0.0,0.0,0.0,0.0,0.0,0.0,0.0,0.0,0.0,0.0,0.0,0.0,0.0,0.0,0.0,0.0,0.0,0.0,0.0,0.0,0.0,0.0,0.0,0.0,0.0,0.0,0.0,0.0,0.0,0.0,0.0,0.0,0.0,0.0,0.0,0.0,0.0,0.0,0.0,0.0,0.0,0.0,0.0,0.0,0.0,0.0,0.0,0.0,0.0,0.0,0.0,0.0,0.0,0.0,0.0,0.0,0.0,0.0,0.0,0.0,0.0,0.0,0.0,0.0,0.0,0.0,0.0,0.0,0.0,0.0,0.0,0.0,0.0,0.0,0.0,0.0,0.0,0.0,0.0,0.0,0.0,0.0,0.0,0.0,0.0,0.0,0.0,0.0,0.0,0.0,0.0,0.0,0.0,0.0,0.0,-1.7993,-1.8266,-1.8301,-1.8027,-1.8266,-1.8301,0.0,0.0,0.0,0.0,0.0,0.0,0.0,0.0,0.0,0.0,0.0,0.0,0.0,0.0,0.0,0.0,0.0,0.0,0.0,0.0,0.0,0.0,0.0,0.0,0.0,0.0,0.0,0.0,0.0,0.0,0.0,0.0,0.0,0.0,0.0,0.0,0.0,0.0,0.0,0.0,0.0,0.0,0.0,0.0,0.0,0.0,0.0,0.0,0.0,0.0,0.0,0.0,0.0,0.0,0.0,0.0,0.0,0.0,0.0,0.0,0.0,0.0,0.0,0.0,0.0,0.0,0.0,0.0,0.0,0.0,0.0,0.0,0.0,0.0,0.0,0.0,0.0,0.0,0.0,0.0,0.0,0.0,0.0,0.0,0.0,0.0,0.0,0.0,0.0,0.0,0.0,0.0,0.0,0.0,0.0,0.0,0.0,0.0,0.0,0.0,0.0,0.0,0.0,0.0,0.0,0.0,0.0,0.0,0.0,-1.8356,-1.866,-1.875,-1.8496,-1.875,-1.8637,-1.8262,0.0,0.0,0.0,0.0,0.0,0.0,0.0,0.0,0.0,0.0,0.0,0.0,0.0,0.0,0.0,0.0,0.0,0.0,0.0,0.0,0.0,0.0,0.0,0.0,0.0,0.0,0.0,0.0,0.0,0.0,0.0,0.0,0.0,0.0,0.0,0.0,0.0,0.0,0.0,0.0,0.0,0.0,0.0,0.0,0.0,0.0,0.0,0.0,0.0,0.0,0.0,0.0,0.0,0.0,0.0,0.0,0.0,0.0,0.0,0.0,0.0,0.0,0.0,0.0,0.0,0.0,0.0,0.0,0.0,0.0,0.0,0.0,0.0,0.0,0.0,0.0,0.0,0.0,0.0,0.0,0.0,0.0,0.0,0.0,0.0,0.0,0.0,0.0,0.0,0.0,0.0,0.0,0.0,0.0,0.0,0.0,0.0,0.0,0.0,0.0,0.0,0.0,0.0,0.0,0.0,0.0,0.0,0.0,-1.9006,-1.9246,-1.9336,-1.9277,-1.9297,-1.9102,0.0,0.0,0.0,0.0,0.0,0.0,0.0,0.0,0.0,0.0,0.0,0.0,0.0,0.0,0.0,0.0,0.0,0.0,0.0,0.0,0.0,0.0,0.0,0.0,0.0,0.0,0.0,0.0,0.0,0.0,0.0,0.0,0.0,0.0,0.0,0.0,0.0,0.0,0.0,0.0,0.0,0.0,0.0,0.0,0.0,0.0,0.0,0.0,0.0,0.0,0.0,0.0,0.0,0.0,0.0,0.0,0.0,0.0,0.0,0.0,0.0,0.0,0.0,0.0,0.0,0.0,0.0,0.0,0.0,0.0,0.0,0.0,0.0,0.0,0.0,0.0,0.0,0.0,0.0,0.0,0.0,0.0,0.0,0.0,0.0,0.0,0.0,0.0,0.0,0.0,0.0,0.0,0.0,0.0,0.0,0.0,0.0,0.0,0.0,0.0,0.0,0.0,0.0,0.0,0.0,0.0,0.0,0.0,0.0,-1.9014,-1.9678,-1.9828,-1.9336,-1.959,-1.9394,0.0,0.0,0.0,0.0,0.0,0.0,0.0,0.0,0.0,0.0,0.0,0.0,0.0,0.0,0.0,0.0,0.0,0.0,0.0,0.0,0.0,0.0,0.0,0.0,0.0,0.0,0.0,0.0,0.0,0.0,0.0,0.0,0.0,0.0,0.0,0.0,0.0,0.0,0.0,0.0,0.0,0.0,0.0,0.0,0.0,0.0,0.0,0.0,0.0,0.0,0.0,0.0,0.0,0.0,0.0,0.0,0.0,0.0,0.0,0.0,0.0,0.0,0.0,0.0,0.0,0.0,0.0,0.0,0.0,0.0,0.0,0.0,0.0,0.0,0.0,0.0,0.0,0.0,0.0,0.0,0.0,0.0,0.0,0.0,0.0,0.0,0.0,0.0,0.0,0.0,0.0,0.0,0.0,0.0,0.0,0.0,0.0,0.0,0.0,0.0,0.0,0.0,0.0,0.0,0.0,0.0,0.0,0.0,-1.9153,-1.9534,-2.0165,-2.0364,-2.012,-2.0139,-1.9863,0.0,0.0,0.0,0.0,0.0,0.0,0.0,0.0,0.0,0.0,0.0,0.0,0.0,0.0,0.0,0.0,0.0,0.0,0.0,0.0,0.0,0.0,0.0,0.0,0.0,0.0,0.0,0.0,0.0,0.0,0.0,0.0,0.0,0.0,0.0,0.0,0.0,0.0,0.0,0.0,0.0,0.0,0.0,0.0,0.0,0.0,0.0,0.0,0.0,0.0,0.0,0.0,0.0,0.0,0.0,0.0,0.0,0.0,0.0,0.0,0.0,0.0,0.0,0.0,0.0,0.0,0.0,0.0,0.0,0.0,0.0,0.0,0.0,0.0,0.0,0.0,0.0,0.0,0.0,0.0,0.0,0.0,0.0,0.0,0.0,0.0,0.0,0.0,0.0,0.0,0.0,0.0,0.0,0.0,0.0,0.0,0.0,0.0,0.0,0.0,0.0,0.0,0.0,0.0,0.0,0.0,0.0,0.0,-1.9388,-2.012,-2.0592,-2.088,-2.115,-2.0795,-2.0391,0.0,0.0,0.0,0.0,0.0,0.0,0.0,0.0,0.0,0.0,0.0,0.0,0.0,0.0,0.0,0.0,0.0,0.0,0.0,0.0,0.0,0.0,0.0,0.0,0.0,0.0,0.0,0.0,0.0,0.0,0.0,0.0,0.0,0.0,0.0,0.0,0.0,0.0,0.0,0.0,0.0,0.0,0.0,0.0,0.0,0.0,0.0,0.0,0.0,0.0,0.0,0.0,0.0,0.0,0.0,0.0,0.0,0.0,0.0,0.0,0.0,0.0,0.0,0.0,0.0,0.0,0.0,0.0,0.0,0.0,0.0,0.0,0.0,0.0,0.0,0.0,0.0,0.0,0.0,0.0,0.0,0.0,0.0,0.0,0.0,0.0,0.0,0.0,0.0,0.0,0.0,0.0,0.0,0.0,0.0,0.0,0.0,0.0,0.0,0.0,0.0,0.0,0.0,0.0,0.0,0.0,0.0,0.0,-1.9539,-1.9711,-2.0426,-2.0838,-2.088,-2.0699,-2.0404,0.0,0.0,0.0,0.0,0.0,0.0,0.0,0.0,0.0,0.0,0.0,0.0,0.0,0.0,0.0,0.0,0.0,0.0,0.0,0.0,0.0,0.0,0.0,0.0,0.0,0.0,0.0,0.0,0.0,0.0,0.0,0.0,0.0,0.0,0.0,0.0,0.0,0.0,0.0,0.0,0.0,0.0,0.0,0.0,0.0,0.0,0.0,0.0,-1.7495,0.0,0.0,0.0,0.0,0.0,0.0,0.0,0.0,0.0,0.0,0.0,0.0,0.0,0.0,0.0,0.0,0.0,0.0,0.0,0.0,0.0,0.0,0.0,0.0,0.0,0.0,0.0,0.0,0.0,0.0,0.0,0.0,0.0,0.0,0.0,0.0,0.0,0.0,0.0,0.0,0.0,0.0,0.0,0.0,0.0,0.0,0.0,0.0,0.0,0.0,0.0,0.0,0.0,0.0,0.0,0.0,0.0,0.0,0.0,-1.974,-2.0147,-2.0741,-2.1133,-2.1182,-2.0796,-2.0458,0.0,0.0,0.0,0.0,0.0,0.0,0.0,0.0,0.0,0.0,0.0,0.0,0.0,0.0,0.0,0.0,0.0,0.0,0.0,0.0,0.0,0.0,0.0,0.0,0.0,0.0,0.0,0.0,0.0,0.0,0.0,0.0,0.0,0.0,0.0,0.0,0.0,0.0,0.0,0.0,0.0,0.0,0.0,0.0,0.0,0.0,0.0,0.0,0.0,0.0,0.0,0.0,0.0,0.0,0.0,0.0,0.0,0.0,0.0,0.0,0.0,0.0,0.0,0.0,0.0,0.0,0.0,0.0,0.0,0.0,0.0,0.0,0.0,0.0,0.0,0.0,0.0,0.0,0.0,0.0,0.0,0.0,0.0,0.0,0.0,0.0,0.0,0.0,0.0,0.0,0.0,0.0,0.0,0.0,0.0,0.0,0.0,0.0,0.0,0.0,0.0,0.0,0.0,0.0,0.0,0.0,0.0,-1.897,-1.985,-2.0692,-2.1131,-2.1482,-2.1642,-2.09,-2.0523,-2.0539,0.0,0.0,0.0,0.0,0.0,0.0,0.0,0.0,0.0,0.0,0.0,0.0,0.0,0.0,0.0,0.0,0.0,0.0,0.0,0.0,0.0,0.0,0.0,0.0,0.0,0.0,0.0,0.0,0.0,0.0,0.0,0.0,0.0,0.0,0.0,0.0,0.0,0.0,-1.6386,-1.667,0.0,0.0,0.0,0.0,0.0,0.0,0.0,0.0,-1.6705,0.0,0.0,0.0,0.0,0.0,0.0,0.0,0.0,0.0,0.0,0.0,0.0,0.0,0.0,0.0,0.0,0.0,0.0,0.0,0.0,0.0,0.0,0.0,0.0,0.0,0.0,0.0,0.0,0.0,0.0,0.0,0.0,0.0,0.0,0.0,0.0,0.0,0.0,0.0,0.0,0.0,0.0,0.0,0.0,0.0,0.0,0.0,0.0,0.0,0.0,0.0,0.0,0.0,0.0,0.0,0.0,-1.8245,-1.8897,-1.9583,-2.0211,-2.1016,-2.1392,-2.1419,-2.0857,-2.0526,-2.0439,0.0,0.0,0.0,0.0,0.0,0.0,0.0,0.0,0.0,0.0,0.0,0.0,0.0,0.0,0.0,0.0,0.0,0.0,0.0,0.0,0.0,0.0,0.0,0.0,0.0,0.0,0.0,0.0,0.0,0.0,0.0,0.0,0.0,0.0,0.0,0.0,0.0,0.0,0.0,-1.6829,-1.7042,0.0,0.0,0.0,0.0,0.0,0.0,0.0,0.0,-1.7183,0.0,0.0,0.0,0.0,0.0,0.0,0.0,0.0,0.0,0.0,0.0,0.0,0.0,0.0,0.0,0.0,0.0,0.0,0.0,0.0,0.0,0.0,0.0,0.0,0.0,0.0,0.0,0.0,0.0,0.0,0.0,0.0,0.0,0.0,0.0,0.0,0.0,0.0,0.0,0.0,0.0,0.0,0.0,0.0,0.0,0.0,0.0,0.0,0.0,0.0,0.0,0.0,0.0,0.0,0.0,-1.8159,-1.8734,-1.9366,-2.0179,-2.0747,-2.1105,-2.1177,-2.0858,-2.0571,0.0,0.0,0.0,0.0,0.0,0.0,0.0,0.0,0.0,0.0,0.0,0.0,0.0,0.0,0.0,0.0,0.0,0.0,0.0,0.0,0.0,0.0,0.0,0.0,0.0,0.0,0.0,0.0,0.0,0.0,0.0,0.0,0.0,0.0,0.0,0.0,0.0,0.0,0.0,0.0,-1.6587,-1.6911,-1.7098,0.0,0.0,0.0,0.0,0.0,0.0,-1.7,-1.6774,0.0,0.0,0.0,0.0,0.0,0.0,0.0,0.0,0.0,0.0,0.0,0.0,0.0,0.0,0.0,0.0,0.0,0.0,0.0,0.0,0.0,0.0,0.0,0.0,0.0,0.0,0.0,0.0,0.0,0.0,0.0,0.0,0.0,0.0,0.0,0.0,0.0,0.0,0.0,0.0,0.0,0.0,0.0,0.0,0.0,0.0,0.0,0.0,0.0,0.0,0.0,0.0,0.0,0.0,0.0,-1.8078,-1.849,-1.9188,-2.0167,-2.0473,-2.0744,-2.0952,-2.0801,-2.0512,0.0,0.0,0.0,0.0,0.0,0.0,0.0,0.0,0.0,0.0,0.0,0.0,0.0,0.0,0.0,0.0,0.0,0.0,0.0,0.0,0.0,0.0,0.0,0.0,0.0,0.0,0.0,0.0,0.0,0.0,0.0,0.0,0.0,0.0,0.0,0.0,0.0,0.0,0.0,0.0,0.0,-1.673,-1.6877,-1.7196,0.0,0.0,0.0,0.0,-1.707,-1.6783,0.0,0.0,0.0,0.0,0.0,0.0,0.0,0.0,0.0,0.0,0.0,0.0,0.0,0.0,0.0,0.0,0.0,0.0,0.0,0.0,0.0,0.0,0.0,0.0,0.0,0.0,0.0,0.0,0.0,0.0,0.0,0.0,0.0,0.0,0.0,0.0,0.0,0.0,0.0,0.0,0.0,0.0,0.0,0.0,0.0,0.0,0.0,0.0,0.0,0.0,0.0,0.0,0.0,0.0,0.0,0.0,-1.7818,-1.8143,-1.8792,-1.9894,-2.0201,-2.0473,-2.0727,-2.0536,-2.0252,0.0,0.0,0.0,0.0,0.0,0.0,0.0,0.0,0.0,0.0,0.0,0.0,0.0,0.0,0.0,0.0,0.0,0.0,0.0,0.0,0.0,0.0,0.0,0.0,0.0,0.0,0.0,0.0,0.0,0.0,0.0,0.0,0.0,0.0,0.0,0.0,0.0,0.0,0.0,0.0,0.0,-1.6469,-1.7048,-1.7385,-1.7683,0.0,0.0,-1.8117,-1.782,-1.7738,0.0,0.0,0.0,0.0,0.0,0.0,0.0,0.0,0.0,0.0,0.0,0.0,0.0,0.0,0.0,0.0,0.0,0.0,0.0,0.0,0.0,0.0,0.0,0.0,0.0,0.0,0.0,0.0,0.0,0.0,0.0,0.0,0.0,0.0,0.0,0.0,0.0,0.0,0.0,0.0,0.0,0.0,0.0,0.0,0.0,0.0,0.0,0.0,0.0,0.0,0.0,0.0,0.0,0.0,0.0,-1.6396,-1.7573,-1.8029,-1.873,-1.975,-2.0201,-2.0479,-2.0571,-2.0765,-2.0474,0.0,0.0,0.0,0.0,0.0,0.0,0.0,0.0,0.0,0.0,0.0,0.0,0.0,0.0,0.0,0.0,0.0,0.0,0.0,0.0,0.0,0.0,0.0,0.0,0.0,0.0,0.0,0.0,0.0,0.0,0.0,0.0,0.0,0.0,0.0,0.0,0.0,0.0,0.0,0.0,0.0,0.0,-1.702,-1.7212,0.0,0.0,0.0,-1.7557,-1.7416,0.0,0.0,0.0,0.0,0.0,0.0,0.0,0.0,0.0,0.0,0.0,0.0,0.0,0.0,0.0,0.0,0.0,0.0,0.0,0.0,0.0,0.0,0.0,0.0,0.0,0.0,0.0,0.0,0.0,0.0,0.0,0.0,0.0,0.0,0.0,0.0,0.0,0.0,0.0,0.0,0.0,0.0,0.0,0.0,0.0,0.0,0.0,0.0,0.0,0.0,0.0,0.0,0.0,0.0,0.0,0.0,0.0,-1.7386,-1.8045,-1.8778,-1.9698,-2.019,-2.0476,-2.0634,-2.0879,0.0,0.0,0.0,0.0,0.0,0.0,0.0,0.0,0.0,0.0,0.0,0.0,0.0,0.0,0.0,0.0,0.0,0.0,0.0,0.0,0.0,0.0,0.0,0.0,0.0,0.0,0.0,-1.3865,0.0,0.0,0.0,0.0,0.0,0.0,0.0,0.0,0.0,0.0,0.0,0.0,0.0,0.0,-1.6532,-1.6817,-1.6995,-1.707,0.0,0.0,-1.7264,-1.7188,-1.7172,-1.7066,0.0,0.0,0.0,0.0,0.0,0.0,0.0,0.0,0.0,0.0,0.0,0.0,0.0,0.0,0.0,0.0,0.0,0.0,0.0,0.0,0.0,0.0,0.0,0.0,0.0,0.0,0.0,0.0,0.0,0.0,0.0,0.0,0.0,0.0,0.0,0.0,0.0,0.0,0.0,0.0,0.0,0.0,0.0,0.0,0.0,0.0,0.0,0.0,0.0,0.0,0.0,0.0,0.0,0.0,-1.6498,-1.7123,-1.8009,-1.8893,-1.9683,-2.0054,-2.0474,-2.0939,-2.0685,-2.0437,0.0,0.0,0.0,0.0,0.0,0.0,0.0,0.0,0.0,0.0,0.0,0.0,0.0,0.0,0.0,0.0,0.0,0.0,0.0,0.0,0.0,0.0,0.0,0.0,0.0,0.0,0.0,0.0,0.0,0.0,0.0,0.0,0.0,0.0,0.0,0.0,0.0,0.0,0.0,0.0,0.0,-1.6151,-1.6466,-1.6919,-1.731,0.0,-1.7886,-1.7919,-1.7598,-1.7552,-1.7341,-1.6801,0.0,0.0,0.0,0.0,0.0,0.0,0.0,0.0,0.0,0.0,0.0,0.0,0.0,0.0,0.0,0.0,0.0,0.0,0.0,0.0,0.0,0.0,0.0,0.0,0.0,0.0,0.0,0.0,0.0,0.0,0.0,0.0,0.0,0.0,0.0,0.0,0.0,0.0,0.0,0.0,0.0,0.0,0.0,0.0,0.0,0.0,0.0,0.0,0.0,0.0,0.0,0.0,0.0,-1.6536,-1.7462,-1.821,-1.9002,-1.9873,-2.0327,-2.0687,-2.0901,-2.1062,-2.0833,0.0,0.0,0.0,0.0,0.0,0.0,0.0,0.0,0.0,0.0,0.0,0.0,0.0,0.0,0.0,0.0,0.0,0.0,0.0,0.0,0.0,0.0,0.0,0.0,0.0,0.0,0.0,0.0,-1.3855,-1.3926,-1.3972,0.0,0.0,0.0,0.0,0.0,0.0,0.0,0.0,0.0,0.0,-1.6429,-1.6739,-1.7141,0.0,0.0,-1.7683,-1.7688,-1.7558,-1.7384,-1.7091,-1.665,-1.6435,0.0,0.0,0.0,0.0,0.0,0.0,0.0,0.0,0.0,0.0,0.0,0.0,0.0,0.0,0.0,0.0,0.0,0.0,0.0,0.0,0.0,0.0,0.0,0.0,0.0,0.0,0.0,0.0,0.0,0.0,0.0,0.0,0.0,0.0,0.0,0.0,0.0,0.0,0.0,0.0,0.0,0.0,0.0,0.0,0.0,0.0,0.0,0.0,0.0,0.0,0.0,0.0,-1.6704,-1.7574,-1.8381,-1.9158,-2.0,-2.0445,-2.0761,-2.0927,-2.1213,-2.0996,0.0,0.0,0.0,0.0,0.0,0.0,0.0,0.0,0.0,0.0,0.0,0.0,0.0,0.0,0.0,0.0,0.0,0.0,0.0,0.0,0.0,0.0,0.0,0.0,0.0,0.0,0.0,0.0,-1.4178,-1.4176,-1.4047,0.0,0.0,0.0,0.0,0.0,0.0,0.0,0.0,0.0,0.0,-1.6683,-1.6988,-1.726,-1.7498,-1.7498,-1.7498,-1.7498,-1.7498,-1.7267,-1.7058,-1.6834,0.0,0.0,0.0,0.0,0.0,0.0,0.0,0.0,0.0,0.0,0.0,0.0,0.0,0.0,0.0,0.0,0.0,0.0,0.0,0.0,0.0,0.0,0.0,0.0,0.0,0.0,0.0,-1.5294,0.0,0.0,-1.552,0.0,0.0,0.0,0.0,0.0,0.0,0.0,0.0,0.0,0.0,0.0,0.0,0.0,0.0,0.0,0.0,0.0,0.0,0.0,0.0,0.0,0.0,-1.7106,-1.7355,-1.8572,-1.9431,-1.9981,-2.0342,-2.0771,-2.1267,-2.101,-2.0899,-2.1147,0.0,0.0,0.0,0.0,0.0,0.0,0.0,0.0,0.0,0.0,0.0,0.0,0.0,0.0,0.0,0.0,0.0,0.0,0.0,0.0,0.0,0.0,0.0,0.0,0.0,0.0,-1.4676,-1.4326,-1.4076,0.0,0.0,0.0,0.0,0.0,0.0,0.0,0.0,0.0,-1.5792,-1.6326,-1.6821,-1.7073,-1.7313,-1.7504,-1.7491,-1.7491,-1.7526,-1.754,-1.7512,-1.7484,0.0,0.0,0.0,0.0,0.0,0.0,0.0,0.0,0.0,0.0,0.0,0.0,0.0,0.0,0.0,0.0,0.0,0.0,0.0,0.0,0.0,0.0,0.0,0.0,0.0,0.0,0.0,-1.5584,-1.5631,0.0,0.0,0.0,0.0,0.0,0.0,0.0,0.0,0.0,0.0,0.0,-1.6864,-1.6965,0.0,0.0,0.0,0.0,0.0,0.0,0.0,0.0,0.0,0.0,0.0,0.0,-1.7398,-1.8009,-1.9036,-1.9716,-2.0113,-2.0643,-2.1077,-2.1433,-2.1274,-2.12,-2.1164,0.0,0.0,0.0,0.0,0.0,0.0,0.0,0.0,0.0,0.0,0.0,0.0,0.0,0.0,0.0,0.0,0.0,0.0,0.0,0.0,0.0,0.0,0.0,0.0,0.0,-1.4751,0.0,0.0,0.0,0.0,0.0,0.0,0.0,0.0,0.0,0.0,-1.5551,-1.5858,-1.6339,-1.6773,-1.712,-1.7416,-1.7671,-1.7926,0.0,0.0,0.0,0.0,0.0,0.0,0.0,0.0,0.0,0.0,0.0,0.0,0.0,0.0,-1.5872,-1.5142,-1.5008,-1.5008,-1.5008,0.0,0.0,0.0,0.0,0.0,0.0,0.0,0.0,0.0,0.0,0.0,0.0,0.0,0.0,-1.6433,-1.6433,-1.6433,0.0,0.0,0.0,0.0,0.0,0.0,0.0,0.0,-1.7368,-1.7515,-1.7675,-1.7809,-1.7796,0.0,-1.7675,-1.7219,0.0,0.0,0.0,0.0,0.0,0.0,0.0,0.0,-1.7686,-1.8297,-1.9232,-1.987,-2.0184,-2.0662,-2.1039,-2.1349,-2.1321,-2.1179,-2.106,-2.0345,-1.9835,0.0,0.0,0.0,0.0,0.0,0.0,0.0,0.0,0.0,0.0,0.0,0.0,0.0,0.0,0.0,0.0,0.0,0.0,0.0,0.0,0.0,0.0,0.0,-1.5209,0.0,0.0,0.0,0.0,0.0,0.0,0.0,0.0,0.0,-1.5992,-1.6072,-1.6353,-1.6927,-1.7233,-1.7501,-1.7836,0.0,0.0,0.0,0.0,0.0,0.0,0.0,-1.7836,-1.7702,-1.7462,-1.7328,-1.7328,-1.7248,-1.7181,-1.7168,0.0,0.0,-1.5725,-1.5578,-1.5625,-1.5611,-1.5565,-1.5611,-1.5565,-1.5565,-1.5631,0.0,0.0,0.0,0.0,0.0,0.0,0.0,0.0,-1.7635,-1.7635,0.0,-1.7635,0.0,0.0,0.0,0.0,-1.7635,-1.7649,0.0,0.0,-1.8049,-1.825,-1.8517,-1.8544,-1.8544,-1.8531,-1.8531,-1.837,-1.7982,-1.7156,0.0,0.0,0.0,0.0,0.0,0.0,-1.7991,-1.8071,-1.9229,-1.9924,-2.0197,-2.0485,-2.0743,-2.1054,-2.1032,-2.0956,-2.0838,-2.0758,-2.0395,-1.954,-1.9442,0.0,0.0,0.0,0.0,0.0,0.0,0.0,0.0,0.0,0.0,0.0,0.0,0.0,0.0,0.0,0.0,0.0,0.0,0.0,0.0,-1.5893,0.0,0.0,0.0,0.0,0.0,0.0,0.0,0.0,0.0,-1.6647,-1.642,-1.658,-1.6954,-1.7528,0.0,0.0,0.0,0.0,-1.8504,-1.8531,-1.8517,-1.8517,-1.8504,-1.8504,-1.849,-1.8477,0.0,0.0,-1.8477,-1.825,-1.7982,-1.7995,-1.7582,-1.7152,-1.682,-1.6687,-1.6647,-1.6647,-1.662,-1.6687,-1.6687,-1.658,-1.662,-2.0134,0.0,0.0,0.0,0.0,-1.8851,-1.8921,-1.8865,-1.8908,-1.8851,-1.8851,-1.8908,0.0,0.0,0.0,0.0,0.0,0.0,-1.8905,-1.8998,-1.9199,-1.9345,-1.9426,-1.9639,-1.9626,-1.9426,-1.9426,-1.9279,-1.8971,-1.8517,-1.7969,-1.7341,0.0,0.0,0.0,0.0,-1.8659,-1.8687,-1.9431,-1.9962,-2.0255,-2.0513,-2.0794,-2.1073,-2.1313,-2.121,-2.0678,-2.0406,-2.0089,-1.9579,-1.8847,0.0,0.0,0.0,0.0,0.0,0.0,0.0,0.0,0.0,0.0,0.0,0.0,0.0,0.0,0.0,0.0,0.0,0.0,0.0,-1.6196,-1.5934,-1.5906,0.0,0.0,0.0,0.0,0.0,0.0,0.0,0.0,0.0,-1.7836,-1.7542,-1.7555,0.0,0.0,-1.837,-1.8744,-1.8798,-1.8878,-1.9078,-1.9118,0.0,-1.8824,-1.8798,-1.8731,-1.8531,-1.849,-1.849,-1.849,-1.8424,-1.8357,-1.837,-1.8223,-1.8076,-1.7956,-1.7261,-1.6767,-1.67,-1.67,-1.67,-1.67,-1.67,-1.678,-2.1764,-2.0962,-2.0321,-2.0054,-2.0067,-2.0054,-2.0054,-2.0054,-2.0054,-2.0054,-2.0067,-2.0067,-2.0054,-2.0054,-1.9947,0.0,0.0,0.0,-1.9893,-1.9953,-2.0187,-2.0321,-2.0334,-2.0388,-2.0321,-2.0147,-2.0027,-1.988,-1.9706,-1.9533,-1.9172,-1.8637,0.0,-1.8169,-1.8237,-1.8791,-1.9106,-1.9133,-1.98,-2.0252,-2.0484,-2.0714,-2.0946,-2.1158,-2.1302,-2.1194,-2.0786,-2.0491,-2.0147,-1.9811,-1.903,-1.8573,0.0,0.0,0.0,0.0,0.0,0.0,0.0,0.0,0.0,0.0,0.0,-1.5545,-1.5788,0.0,0.0,0.0,-1.6572,-1.6707,-1.6834,-1.6483,0.0,0.0,0.0,0.0,0.0,0.0,0.0,-1.7916,-1.8103,-1.8384,-1.8771,-1.8517,-1.8384,-1.8637,-1.8664,-1.8811,-1.9212,0.0,-1.9372,-1.9666,-1.9613,-1.9479,-1.9292,-1.9172,-1.9038,-1.8878,-1.8838,-1.8838,-1.8838,-1.8838,-1.8838,-1.8824,-1.8744,-1.8664,-1.8664,-1.7969,-1.7408,-1.7408,-1.7408,-1.7408,-1.7422,-1.7422,-1.7475,-2.322,-2.2914,-2.1777,-2.1296,-2.1256,-2.1243,-2.1256,-2.1243,-2.1256,-2.1243,-2.1216,-2.1203,-2.1203,-2.1162,-2.0895,0.0,-2.0326,-2.0655,-2.0788,-2.0788,-2.1056,-2.1176,-2.1162,-2.0909,-2.0775,-2.0775,-2.0508,-2.0374,-2.0374,-2.026,-2.0247,-2.0267,-1.9185,-1.8624,-1.8651,-1.9172,-1.9497,-1.9439,-2.0259,-2.0651,-2.0698,-2.0988,-2.1187,-2.1158,-2.1101,-2.1044,-2.1026,-2.0732,-2.0423,-2.0104,-1.974,-1.9406,-1.9087,0.0,0.0,0.0,0.0,0.0,0.0,0.0,0.0,0.0,0.0,0.0,0.0,0.0,0.0,-1.6225,-1.6723,0.0,-1.7532,-1.7324,0.0,0.0,0.0,-1.7527,-1.7995,-1.8089,-1.8209,-1.8557,0.0,0.0,-1.943,-1.9439,-1.9332,-1.9065,-1.9025,-1.9225,-1.976,-1.9813,-1.9933,-2.01,-2.0,-1.984,-1.98,-1.9613,-1.9452,-1.9439,-1.9439,-1.9439,-1.9439,-1.9439,-1.9497,-1.9386,-1.9172,-1.8985,-1.8971,-1.8704,-1.8557,-1.8531,-1.8477,-1.845,-1.841,-1.8397,-1.8384,-2.3821,-2.3527,-2.326,-2.2873,-2.2445,-2.2445,-2.2445,-2.2445,-2.2445,-2.2325,-2.2111,-2.2111,-2.1991,-2.1777,-2.1697,-2.1643,-2.1577,-2.1643,-2.167,-2.1683,-2.175,-2.1777,-2.1777,-2.171,-2.167,-2.167,-2.1603,-2.1577,-2.155,-2.1109,-2.0909,-2.0869,-2.0174,-1.9813,-1.9826,-1.996,-2.0027,-2.0027,-2.0221,-2.0409,-2.0711,-2.1004,-2.1089,-2.0864,-2.0826,-2.0701,-2.0525,-2.0422,-2.0285,-2.018,-1.9687,-1.9229,-1.8949,-1.8238,0.0,0.0,0.0,0.0,0.0,0.0,0.0,0.0,0.0,-1.6257,-1.6625,0.0,-1.6924,0.0,-1.7277,-1.7616,-1.8138,-1.7928,0.0,0.0,-1.8224,-1.8317,-1.8677,-1.8918,-1.9172,-1.9452,-1.9679,-1.9807,-2.0013,-2.0027,-2.0,-1.9874,-1.992,-1.9973,-2.012,-2.0073,-2.0087,-2.0167,-2.0187,-2.0134,-2.012,-2.008,-2.0013,-2.0027,-2.0027,-2.0027,-2.0027,-2.0027,-1.996,-1.9746,-1.9639,-1.9506,-1.9305,-1.9199,-1.9158,-1.9132,-1.8798,-1.849,-1.849,-1.8504,-1.8504,-2.469,-2.4543,-2.4543,-2.4356,-2.4008,-2.3487,-2.3273,-2.3343,-2.326,-2.3166,-2.302,-2.302,-2.2859,-2.2592,-2.2579,-2.2498,-2.2392,-2.2525,-2.2512,-2.2392,-2.2512,-2.2512,-2.2378,-2.2245,-2.2178,-2.2178,-2.2044,-2.1991,-2.1964,-2.1657,-2.1496,-2.1483,-2.1176,-2.1015,-2.1002,-2.0628,-2.0441,-2.0428,-2.0561,-2.069,-2.0862,-2.1033,-2.1064,-2.0898,-2.0753,-2.0623,-2.0472,-2.0189,-2.0074,-2.0,-1.9596,-1.9217,-1.9056,-1.8476,-1.8071,0.0,0.0,0.0,0.0,0.0,0.0,0.0,0.0,0.0,0.0,0.0,-1.7428,-1.7932,-1.7966,-1.8144,-1.8604,-1.8492,-1.8611,-1.9025,-1.9078,-1.9185,-1.9479,-1.9653,-1.9813,-1.9973,-2.0134,-2.0281,-2.0401,-2.0428,-2.0481,-2.0601,-2.0628,-2.0575,-2.0454,-2.0428,-2.0481,-2.0601,-2.0508,-2.0374,-2.0267,-2.018,-2.018,-2.018,-2.018,-2.018,-2.018,-2.018,-2.0174,-2.0027,-1.9893,-1.976,-1.9586,-1.9452,-1.943,-1.9377,-1.9118,-1.8905,-1.8878,-1.8878,-1.8878,-2.5545,-2.5518,-2.5518,-2.5518,-2.5424,-2.4422,-2.3995,-2.3995,-2.3995,-2.3955,-2.3875,-2.3808,-2.3621,-2.338,-2.338,-2.3233,-2.3075,-2.326,-2.3233,-2.3075,-2.326,-2.3233,-2.2966,-2.2712,-2.2592,-2.2579,-2.2298,-2.2164,-2.2151,-2.2071,-2.2044,-2.2044,-2.2004,-2.1991,-2.1951,-2.1229,-2.0828,-2.0851,-2.1029,-2.1149,-2.1109,-2.1105,-2.1067,-2.1012,-2.0824,-2.0712,-2.0656,-2.0171,-1.9864,-1.9906,-1.9598,-1.9347,-1.9278,-1.8749,-1.8443,0.0,-1.7685,0.0,0.0,0.0,0.0,0.0,0.0,0.0,0.0,-1.7648,-1.8009,-1.8611,-1.8664,-1.8771,-1.9065,-1.9092,-1.9292,-1.9786,-1.9853,-1.9973,-2.0254,-2.0281,-2.0307,-2.0273,-2.0286,-2.0454,-2.0695,-2.0735,-2.0828,-2.1015,-2.1056,-2.0975,-2.0788,-2.0735,-2.0815,-2.1082,-2.0895,-2.0655,-2.0454,-2.0313,-2.0374,-2.0361,-2.0388,-2.0286,-2.0388,-2.0374,-2.0347,-2.0281,-2.0107,-1.9907,-1.9826,-1.9599,-1.9426,-1.9386,-1.939,-1.9377,-1.9377,-1.9377,-1.943,-2.5732,-2.5518,-2.5518,-2.5518,-2.5491,-2.5277,-2.5184,-2.5184,-2.5184,-2.4917,-2.4436,-2.3981,-2.3741,-2.3688,-2.3688,-2.3647,-2.3678,-2.3661,-2.3661,-2.3607,-2.3661,-2.3661,-2.3665,-2.3541,-2.3514,-2.35,-2.322,-2.3073,-2.306,-2.2579,-2.2338,-2.2325,-2.2098,-2.1991,-2.1977,0.0,0.0,0.0,-2.1507,-2.1349,-2.1122,-2.1119,-2.0971,-2.0805,-2.0746,0.0,-2.069,-2.0347,-2.033,-2.0478,-2.0018,0.0,0.0,0.0,0.0,0.0,0.0,0.0,0.0,0.0,0.0,0.0,-1.8519,-1.8492,-1.8318,-1.8504,-1.8918,-1.9492,-1.9559,-1.9666,-1.996,-1.9927,-1.9967,-2.0134,-2.0147,-2.0267,-2.0548,-2.0601,-2.0681,-2.0909,-2.0935,-2.0962,-2.1029,-2.1029,-2.1056,-2.1109,-2.1109,-2.1082,-2.1029,-2.1015,-2.1042,-2.1096,-2.1042,-2.1002,-2.0949,-2.0922,-2.0882,-2.0935,-2.0949,-2.0922,-2.0909,-2.0909,-2.0842,-2.0641,-2.0548,-2.0334,-1.9907,-1.9746,-1.9626,-1.947,-1.943,-1.943,-1.943,-1.943,-1.943,-2.6079,-2.5945,-2.5945,-2.5945,0.0,-2.5945,-2.5945,-2.5919,-2.5638,-2.5344,-2.505,-2.477,-2.4556,-2.4422,-2.4422,-2.4342,-2.4195,-2.4195,-2.4115,-2.3981,-2.3981,-2.3901,-2.3781,-2.3781,-2.3781,-2.3768,-2.3621,-2.3541,-2.3527,-2.3233,-2.3006,-2.2859,-2.2712,-2.2579,-2.2432,-2.2418,-2.2205,-2.1842,-2.1829,-2.163,-2.1349,-2.1323,-2.1189,-2.0909,-2.0748,0.0,0.0,0.0,0.0,0.0,0.0,0.0,0.0,-1.9307,0.0,-1.8704,-1.8571,-1.8624,-1.8891,-1.8918,-1.9052,-1.9332,-1.9492,-1.9439,-1.9158,-1.9412,-1.9693,-1.9973,-2.0013,-2.0134,-2.0428,-2.0588,-2.0722,-2.0869,-2.1015,-2.1162,-2.1296,-2.1323,-2.1376,-2.151,-2.1537,-2.1537,-2.1537,-2.1537,-2.1483,-2.1349,-2.1323,-2.1283,-2.1136,-2.1109,-2.1109,-2.1109,-2.1109,-2.1096,-2.1109,-2.1109,-2.1109,-2.1096,-2.1109,-2.1109,-2.1109,-2.1109,-2.1056,-2.0909,-2.0775,-2.0521,-2.012,-1.9907,-1.9706,-1.9452,-1.943,-1.943,-1.943,-1.943,-1.943,-2.64,-2.64,-2.64,-2.64,-2.64,-2.64,-2.64,-2.636,-2.5812,0.0,0.0,-2.5545,-2.5384,-2.5157,-2.5157,-2.4997,-2.4716,-2.4716,-2.4556,-2.4289,-2.4275,-2.4155,-2.3928,-2.3928,-2.3915,-2.3928,-2.3875,-2.3848,-2.3848,-2.3794,-2.3647,-2.342,-2.3407,-2.3247,-2.2966,-2.2939,-2.2672,-2.2164,-2.2084,-2.1924,-2.1708,-2.1641,-2.1507,-2.1203,-2.0909,-2.0748,-2.0748,-2.0468,-2.0247,-2.0307,-2.0267,-2.0073,-1.9893,-1.9653,-1.9412,-1.9158,-1.8931,-1.9011,-1.9479,-1.9578,-1.9746,-2.0281,-2.0307,-2.0214,-1.9973,-2.0174,-2.0361,-2.0454,-2.0468,-2.0588,-2.0882,-2.1122,-2.1363,-2.1668,-2.1844,-2.1977,-2.1977,-2.1991,-2.1951,-2.1991,-2.1951,-2.1977,-2.1964,-2.1951,-2.1897,-2.1697,-2.1695,-2.1523,-2.1256,-2.1149,-2.1109,-2.1109,-2.1109,-2.1109,-2.1109,-2.1109,-2.1109,-2.1109,-2.1109,-2.1109,-2.1109,-2.1109,-2.1109,-2.1082,-2.0895,-2.0668,-2.0374,-2.0094,-1.9786,-1.9564,-1.9399,-1.943,-1.943,-1.943,-1.943,-2.64,-2.64,-2.64,-2.64,-2.64,-2.64,-2.64,-2.636,-2.6039,-2.5892,-2.5879,-2.5625,-2.5491,-2.5451,-2.5451,-2.5291,-2.5024,-2.5024,-2.4863,-2.4583,-2.4569,-2.4556,-2.4516,-2.4516,-2.4516,-2.4489,-2.4262,-2.4142,-2.4115,-2.3901,-2.3754,-2.3714,-2.3701,-2.3554,-2.3287,-2.326,-2.3086,-2.2739,-2.2485,-2.2218,-2.1937,-2.1748,-2.1601,-2.1483,-2.1203,-2.1042,-2.1042,-2.0775,-2.0615,-2.0601,-2.0361,-2.0214,-2.0174,-2.012,-2.0094,-1.9993,-2.0013,-1.9967,-2.0094,-2.0047,-2.0254,-2.0575,-2.0615,-2.0601,-2.0561,-2.0588,-2.0815,-2.136,-2.1336,-2.1547,-2.1764,-2.1817,-2.1871,-2.1924,-2.1964,-2.1991,-2.2017,-2.2017,-2.2031,-2.2031,-2.1991,-2.2004,-2.2044,-2.2031,-2.2017,-2.1937,-2.1897,-2.1804,-2.1601,-2.1269,-2.1122,-2.1109,-2.1109,-2.1109,-2.1109,-2.1109,-2.1109,-2.1109,-2.1109,-2.1109,-2.1109,-2.1109,-2.1109,-2.1109,-2.1056,-2.0922,-2.0641,-2.0374,-2.0054,-1.976,-1.9533,-1.943,-1.943,-1.943,-1.943,-2.64,-2.64,-2.64,-2.64,-2.64,-2.64,-2.64,-2.6373,-2.6253,-2.6199,-2.6172,-2.6039,-2.5905,-2.5758,-2.5758,-2.5598,-2.5317,-2.5317,-2.5237,-2.5104,-2.4943,-2.4877,-2.4863,-2.4716,-2.4636,-2.4623,-2.4502,-2.4436,-2.4422,-2.4302,-2.4155,-2.4008,-2.3848,-2.3701,-2.3581,-2.3567,-2.342,-2.3113,-2.2806,-2.2512,-2.2231,-2.2084,-2.1951,-2.179,-2.1496,-2.1349,-2.1349,-2.1069,-2.0909,-2.0909,-2.0788,-2.0641,-2.0481,-2.0468,-2.0401,-2.0254,-2.018,-2.0307,-2.0468,-2.0615,-2.0775,-2.0895,-2.1069,-2.1149,-2.1212,-2.1212,-2.1323,-2.1737,-2.179,-2.1844,-2.1977,-2.2124,-2.2218,-2.2218,-2.2352,-2.2458,-2.2526,-2.2458,-2.2526,-2.2526,-2.2458,-2.2458,-2.2526,-2.2526,-2.2378,-2.2258,-2.2111,-2.1937,-2.1869,-2.167,-2.1456,-2.1176,-2.1109,-2.1109,-2.1109,-2.1109,-2.1109,-2.1109,-2.1109,-2.1109,-2.1109,-2.1109,-2.1109,-2.1109,-2.1109,-2.0989,-2.0735,-2.0428,-2.0147,-1.9853,-1.9573,-1.9457,-1.943,-1.943,-1.943,-2.6426,-2.648,-2.6493,-2.652,-2.6587,-2.6587,-2.6547,-2.6493,-2.6493,-2.6453,-2.64,-2.64,-2.6266,-2.6144,-2.6052,-2.5892,-2.5638,-2.5611,-2.5585,-2.5491,-2.5291,-2.5184,-2.5157,-2.493,-2.4762,-2.4836,-2.4836,-2.4836,-2.4823,-2.477,-2.4583,-2.4315,-2.4075,-2.3928,-2.3875,-2.3861,-2.3728,-2.3434,-2.3193,-2.2886,-2.2539,-2.2458,-2.2311,-2.2084,-2.1804,-2.1708,-2.1695,-2.143,-2.1283,-2.1216,-2.1203,-2.1069,-2.0802,-2.0775,-2.0668,-2.0468,-2.0428,-2.0535,-2.0762,-2.1042,-2.1216,-2.1216,-2.1483,-2.1735,-2.1737,-2.175,-2.1844,-2.2044,-2.2084,-2.2111,-2.2218,-2.2378,-2.2512,-2.2525,-2.2712,-2.2819,-2.2859,-2.2859,-2.2859,-2.2859,-2.2859,-2.2846,-2.2859,-2.2859,-2.2752,-2.2525,-2.2325,-2.2178,-2.2111,-2.2084,-2.1857,-2.147,-2.1256,-2.1176,-2.1136,-2.1109,-2.1109,-2.1109,-2.1109,-2.1109,-2.1109,-2.1109,-2.1109,-2.1109,-2.1109,-2.1029,-2.0815,-2.0548,-2.0267,-1.9987,-1.9706,-1.9466,-1.9444,-1.943,-1.943,-2.6547,-2.6774,-2.6787,-2.6934,-2.7161,-2.7175,-2.7014,-2.68,-2.6787,-2.6627,-2.644,-2.64,-2.6373,-2.6346,-2.6333,-2.6172,-2.5919,-2.5919,-2.5772,-2.5558,-2.5491,-2.5478,-2.5478,-2.5438,-2.5424,-2.5411,-2.5398,-2.5384,-2.5358,-2.5157,-2.489,-2.4623,-2.4569,-2.4422,-2.4195,-2.4155,-2.4022,-2.3741,-2.3701,-2.3407,-2.2846,-2.2552,-2.2405,-2.2378,-2.2098,-2.1937,-2.1951,-2.1911,-2.1777,-2.1601,-2.151,-2.1376,-2.1122,-2.1069,-2.1056,-2.1029,-2.1029,-2.1042,-2.1082,-2.1413,-2.1574,-2.1601,-2.1856,-2.211,-2.2351,-2.2325,-2.2338,-2.2378,-2.2378,-2.2485,-2.2739,-2.2792,-2.2792,-2.2779,-2.2832,-2.2859,-2.2859,-2.2859,-2.2859,-2.2859,-2.2859,-2.2859,-2.2859,-2.2859,-2.2846,-2.2792,-2.2726,-2.2605,-2.2432,-2.2378,-2.2271,-2.1937,-2.1697,-2.1416,-2.1216,-2.1109,-2.1136,-2.1122,-2.1109,-2.1109,-2.1109,-2.1109,-2.1109,-2.1109,-2.1109,-2.1069,-2.1015,-2.0828,-2.0521,-2.0174,-1.9893,-1.9653,-1.9511,-1.943,-1.943,-2.6974,-2.7081,-2.7081,-2.7148,-2.7255,-2.735,-2.7201,-2.7094,-2.7081,-2.7014,-2.6894,-2.672,-2.656,-2.64,-2.64,-2.6319,-2.6213,-2.6213,-2.6146,-2.6012,-2.5852,-2.5785,-2.5758,-2.5585,-2.5518,-2.5518,-2.5518,-2.5518,-2.5491,-2.5384,-2.5184,-2.493,-2.4903,-2.4756,-2.4489,-2.4462,-2.4315,-2.4035,-2.4035,-2.3821,-2.342,-2.3113,-2.2873,-2.2672,-2.2405,-2.2245,-2.2218,-2.2084,-2.1937,-2.1817,-2.1817,-2.175,-2.163,-2.163,-2.163,-2.163,-2.163,-2.1681,-2.194,-2.2062,-2.2261,-2.247,-2.2731,-2.2965,-2.3075,-2.3254,-2.3364,-2.3296,-2.2944,-2.2739,-2.2914,-2.2859,-2.2859,-2.2859,-2.2859,-2.2859,-2.2859,-2.2859,-2.2859,-2.2859,-2.2859,-2.2859,-2.2859,-2.2859,-2.2859,-2.2859,-2.2859,-2.2792,-2.2686,-2.2672,-2.2552,-2.2311,-2.2138,-2.1871,-2.1496,-2.1363,-2.1296,-2.1162,-2.1109,-2.1109,-2.1109,-2.1109,-2.1109,-2.1109,-2.1109,-2.1109,-2.1096,-2.0869,-2.0588,-2.0267,-1.9826,-1.9492,-1.9444,-1.943,-1.943,-2.7321,-2.7388,-2.7468,-2.7591,-2.7509,-2.7591,-2.7455,-2.7388,-2.7388,-2.7335,-2.7241,-2.7041,-2.6827,-2.6627,-2.6466,-2.64,-2.64,-2.64,-2.64,-2.6373,-2.6172,-2.6079,-2.6052,-2.5865,-2.5758,-2.5758,-2.5772,-2.5718,-2.5651,-2.5638,-2.5491,-2.5237,-2.5197,-2.505,-2.4783,-2.4756,-2.4609,-2.4356,-2.4315,-2.4182,-2.3901,-2.3688,-2.338,-2.302,-2.2779,-2.2632,-2.2539,-2.2338,-2.2191,-2.2111,-2.2098,-2.2058,-2.1991,-2.1991,-2.1991,-2.1991,-2.2109,-2.2241,-2.2517,-2.2651,-2.289,-2.3196,-2.3448,-2.3616,-2.3658,-2.3826,-2.3952,-2.3952,-2.3475,-2.3188,-2.3201,-2.3201,-2.3133,-2.3065,-2.3065,-2.2996,-2.2928,-2.2859,-2.2859,-2.2859,-2.2859,-2.2859,-2.2859,-2.2859,-2.2859,-2.2859,-2.2859,-2.2859,-2.2859,-2.2846,-2.2766,-2.2579,-2.2539,-2.2285,-2.179,-2.1577,-2.1456,-2.1309,-2.1203,-2.1109,-2.1109,-2.1109,-2.1109,-2.1109,-2.1109,-2.1109,-2.1109,-2.0895,-2.0641,-2.0267,-1.9853,-1.9466,-1.9386,-1.943,-1.943,-2.7428,-2.7709,-2.806,-2.8154,-2.8181,-2.8154,-2.7923,-2.7682,-2.7682,-2.7535,-2.7321,-2.7268,-2.7241,-2.7175,-2.668,-2.64,-2.6413,-2.644,-2.6426,-2.6413,-2.6386,-2.6373,-2.6373,-2.636,-2.6333,-2.6279,-2.6266,-2.6159,-2.5945,-2.5932,-2.5785,-2.5504,-2.5491,-2.5344,-2.509,-2.5037,-2.4917,-2.4649,-2.4596,-2.4476,-2.4222,-2.4168,-2.3875,-2.338,-2.3217,-2.3113,-2.2941,-2.2901,-2.2686,-2.2405,-2.2405,-2.2285,-2.2044,-2.2004,-2.2097,-2.2083,-2.2347,-2.2531,-2.2651,-2.3123,-2.3476,-2.3571,-2.3863,-2.3992,-2.4032,-2.4074,-2.4102,-2.402,-2.402,-2.3966,-2.3966,-2.3884,-2.3747,-2.3406,-2.3338,-2.3201,-2.2928,-2.2928,-2.2859,-2.2859,-2.2859,-2.2859,-2.2859,-2.2859,-2.2859,-2.2859,-2.2859,-2.2859,-2.2859,-2.2859,-2.2832,-2.2819,-2.2779,-2.2632,-2.2084,-2.1777,-2.1681,-2.1494,-2.1256,-2.1109,-2.1109,-2.1109,-2.1109,-2.1109,-2.1109,-2.1109,-2.1109,-2.0975,-2.0748,-2.0414,-2.0013,-1.9693,-1.9506,-1.9457,-1.943,-2.7966,-2.8073,-2.8181,-2.8234,-2.8234,-2.8234,-2.8154,-2.7989,-2.7989,-2.8006,-2.7886,-2.7629,-2.7535,-2.7522,-2.7134,-2.6947,-2.6947,-2.6947,-2.6854,-2.6694,-2.6667,-2.6573,-2.64,-2.64,-2.64,-2.64,-2.6386,-2.6333,-2.6253,-2.6226,-2.6092,-2.5838,-2.5798,-2.5651,-2.5384,-2.517,-2.5024,-2.4917,-2.4743,-2.4583,-2.4489,-2.4489,-2.4289,-2.3901,-2.3514,-2.3273,-2.3166,-2.2966,-2.2806,-2.2699,-2.2699,-2.2659,-2.2633,-2.2741,-2.2876,-2.2943,-2.328,-2.3563,-2.3764,-2.3997,-2.4271,-2.4473,-2.4641,-2.4713,-2.4713,-2.4713,-2.4713,-2.4713,-2.4713,-2.4713,-2.4645,-2.4306,-2.3952,-2.3816,-2.3543,-2.3406,-2.3201,-2.3065,-2.2859,-2.2859,-2.2859,-2.2859,-2.2859,-2.2859,-2.2859,-2.2859,-2.2859,-2.2859,-2.2859,-2.2859,-2.2859,-2.2859,-2.2859,-2.2861,-2.27,-2.2124,-2.1777,-2.1601,-2.1336,-2.1176,-2.1109,-2.1109,-2.1109,-2.1109,-2.1109,-2.1109,-2.1096,-2.0962,-2.0762,-2.0588,-2.0187,-1.9907,-1.9679,-1.9533,-1.9484,-2.8234,-2.8234,-2.8234,-2.8234,-2.8234,-2.8234,-2.8234,-2.8234,-2.8234,-2.8234,-2.8181,-2.7923,-2.7843,-2.7816,-2.7629,-2.7549,-2.7522,-2.7362,-2.7161,-2.6974,-2.6961,-2.6867,-2.6707,-2.6667,-2.6627,-2.6533,-2.6426,-2.64,-2.64,-2.64,-2.6293,-2.6184,-2.6092,-2.5945,-2.5665,-2.5451,-2.5291,-2.509,-2.4877,-2.4743,-2.4663,-2.4636,-2.4543,-2.4302,-2.3861,-2.35,-2.334,-2.3126,-2.2953,-2.2873,-2.2859,-2.2928,-2.3065,-2.327,-2.3475,-2.3611,-2.3952,-2.4224,-2.4495,-2.4645,-2.4834,-2.5187,-2.5269,-2.5255,-2.5404,-2.5404,-2.539,-2.539,-2.539,-2.5404,-2.5187,-2.4781,-2.4442,-2.4238,-2.3884,-2.3611,-2.3406,-2.3201,-2.3065,-2.2928,-2.2859,-2.2859,-2.2859,-2.2859,-2.2859,-2.2859,-2.2859,-2.2859,-2.2859,-2.2859,-2.2859,-2.2859,-2.2859,-2.2859,-2.2739,-2.2378,-2.2017,-2.1764,-2.1534,-2.1283,-2.1109,-2.1109,-2.1109,-2.1109,-2.1109,-2.1109,-2.1042,-2.0922,-2.0802,-2.0695,-2.0468,-2.0187,-1.992,-1.9653,-1.9533,-2.8234,-2.8234,-2.8234,-2.8234,-2.8234,-2.8234,-2.8234,-2.8234,-2.8234,-2.8234,-2.8221,-2.8207,-2.8181,-2.8194,-2.814,-2.8181,-2.806,-2.7575,-2.7321,-2.7268,-2.7268,-2.7255,-2.7188,-2.7175,-2.7041,-2.6814,-2.6547,-2.6413,-2.644,-2.6413,-2.6373,-2.6373,-2.6346,-2.6213,-2.5959,-2.5892,-2.5638,-2.5251,-2.509,-2.493,-2.4676,-2.4649,-2.4549,-2.4583,-2.4315,-2.3928,-2.3394,-2.3327,-2.3166,-2.2926,-2.2873,-2.3065,-2.3338,-2.3475,-2.3611,-2.3966,-2.4306,-2.4495,-2.4578,-2.4916,-2.5269,-2.5539,-2.5592,-2.5727,-2.5944,-2.6011,-2.6011,-2.6011,-2.5996,-2.5928,-2.5659,-2.5457,-2.5187,-2.4631,-2.4428,-2.4088,-2.3679,-2.3406,-2.327,-2.2996,-2.2859,-2.2859,-2.2859,-2.2859,-2.2859,-2.2859,-2.2859,-2.2859,-2.2859,-2.2859,-2.2859,-2.2859,-2.2859,-2.2859,-2.2766,-2.2605,-2.2311,-2.2017,-2.1697,-2.1494,-2.1189,-2.1109,-2.1109,-2.1109,-2.1109,-2.1109,-2.1109,-2.0989,-2.0935,-2.0815,-2.0615,-2.0401,-2.008,-1.98,-1.9599,-2.8234,-2.8234,-2.8234,-2.8234,-2.8234,-2.8234,-2.8234,-2.8234,-2.8234,-2.8234,-2.8234,-2.8234,-2.8234,-2.8234,-2.8234,-2.8234,-2.8207,-2.802,-2.7846,-2.7589,-2.7562,-2.7455,-2.7308,-2.735,-2.7215,-2.7094,-2.6827,-2.668,-2.6653,-2.6493,-2.64,-2.64,-2.64,-2.6346,-2.6239,-2.6144,-2.5916,-2.5742,-2.5277,-2.5024,-2.4917,-2.4743,-2.4636,-2.4623,-2.4543,-2.4315,-2.3941,-2.3554,-2.3287,-2.3166,-2.2979,-2.3065,-2.3406,-2.3884,-2.4238,-2.436,-2.4713,-2.5052,-2.5255,-2.5322,-2.5607,-2.5861,-2.5944,-2.6011,-2.6078,-2.613,-2.613,-2.613,-2.6063,-2.6011,-2.5944,-2.5727,-2.539,-2.4984,-2.4699,-2.4442,-2.4088,-2.3679,-2.327,-2.2996,-2.2859,-2.2859,-2.2859,-2.2859,-2.2859,-2.2859,-2.2859,-2.2859,-2.2859,-2.2859,-2.2859,-2.2859,-2.2859,-2.2859,-2.2792,-2.2686,-2.2458,-2.2124,-2.1804,-2.1534,-2.1243,-2.1109,-2.1109,-2.1109,-2.1109,-2.1109,-2.1109,-2.1069,-2.1015,-2.0949,-2.0788,-2.0508,-2.0187,-1.9947,-1.976,-2.8234,-2.8234,-2.8234,-2.8234,-2.8234,-2.8234,-2.8234,-2.8234,-2.8234,-2.8234,-2.8234,-2.8234,-2.8234,-2.8234,-2.8234,-2.8234,-2.8234,-2.8234,-2.8043,-2.7883,-2.7869,-2.7762,-2.7575,-2.7468,-2.7428,-2.7375,-2.7134,-2.6921,-2.6814,-2.664,-2.6493,-2.6413,-2.64,-2.6386,-2.6386,-2.6213,-2.6157,-2.5996,-2.5598,-2.5304,-2.509,-2.4903,-2.4756,-2.4649,-2.4636,-2.4543,-2.4342,-2.3901,-2.3554,-2.3327,-2.3171,-2.3352,-2.3747,-2.4224,-2.4563,-2.4781,-2.5052,-2.539,-2.5607,-2.5742,-2.5944,-2.6197,-2.6331,-2.6398,-2.6465,-2.6532,-2.6532,-2.6532,-2.6548,-2.6465,-2.6347,-2.6011,-2.5674,-2.5322,-2.4984,-2.4645,-2.436,-2.3747,-2.327,-2.2996,-2.2859,-2.2859,-2.2859,-2.2859,-2.2859,-2.2859,-2.2859,-2.2859,-2.2859,-2.2859,-2.2859,-2.2859,-2.2859,-2.2859,-2.2859,-2.2739,-2.2579,-2.2231,-2.1936,-2.1523,-2.1229,-2.1136,-2.1109,-2.1109,-2.1109,-2.1109,-2.1109,-2.1109,-2.1056,-2.0989,-2.0922,-2.0735,-2.0468,-2.0174,-1.996,-2.8234,-2.8234,-2.8234,-2.8234,-2.8234,-2.8234,-2.8234,-2.8234,-2.8234,-2.8234,-2.8234,-2.8234,-2.8234,-2.8234,-2.8234,-2.8234,-2.8234,-2.8221,-2.8221,-2.8194,-2.8194,-2.8154,-2.81,-2.7816,-2.7722,-2.7682,-2.7428,-2.7175,-2.6974,-2.6827,-2.6694,-2.6466,-2.6413,-2.64,-2.6386,-2.6386,-2.6239,-2.6117,-2.6023,-2.5638,-2.5157,-2.5064,-2.493,-2.4649,-2.4636,-2.4623,-2.4556,-2.4348,-2.3946,-2.345,-2.3474,-2.3871,-2.4374,-2.4495,-2.4781,-2.5119,-2.5472,-2.5607,-2.5727,-2.5996,-2.6264,-2.6666,-2.6733,-2.6867,-2.7067,-2.7067,-2.7067,-2.7067,-2.7067,-2.7,-2.6666,-2.628,-2.5944,-2.5592,-2.5187,-2.4781,-2.4088,-2.3679,-2.3338,-2.2996,-2.2859,-2.2859,-2.2859,-2.2859,-2.2859,-2.2859,-2.2859,-2.2859,-2.2859,-2.2859,-2.2859,-2.2859,-2.2859,-2.2859,-2.2859,-2.2832,-2.2672,-2.2338,-2.1964,-2.1603,-2.1269,-2.1149,-2.1109,-2.1109,-2.1109,-2.1109,-2.1109,-2.1109,-2.1109,-2.1069,-2.1002,-2.0935,-2.0708,-2.0374,-2.0067,-2.8234,-2.8234,-2.8234,-2.8234,-2.8234,-2.8234,-2.8234,-2.8234,-2.8234,-2.8234,-2.8234,-2.8234,-2.8234,-2.8234,-2.8234,-2.8234,-2.8234,-2.8234,-2.8234,-2.8234,-2.8234,-2.8234,-2.8221,-2.8154,-2.8016,-2.7963,-2.7722,-2.7535,-2.7428,-2.7054,-2.68,-2.6707,-2.6493,-2.64,-2.64,-2.64,-2.636,-2.6253,-2.613,-2.5798,-2.5438,-2.5184,-2.493,-2.4663,-2.4562,-2.4636,-2.4609,-2.4634,-2.4344,-2.3856,-2.4289,-2.4519,-2.4621,-2.4999,-2.5352,-2.5457,-2.5809,-2.613,-2.6331,-2.6465,-2.6733,-2.7,-2.7,-2.7134,-2.72,-2.72,-2.72,-2.72,-2.72,-2.7067,-2.6733,-2.6331,-2.5876,-2.5322,-2.5119,-2.4781,-2.417,-2.3898,-2.3625,-2.3065,-2.2928,-2.2859,-2.2859,-2.2859,-2.2859,-2.2859,-2.2859,-2.2859,-2.2859,-2.2859,-2.2859,-2.2859,-2.2859,-2.2859,-2.2859,-2.2859,-2.2726,-2.2432,-2.2071,-2.1683,-2.1363,-2.1122,-2.1109,-2.1109,-2.1109,-2.1109,-2.1109,-2.1109,-2.1109,-2.1109,-2.1069,-2.1002,-2.0735,-2.0428,-2.0147,-2.8234,-2.8234,-2.8234,-2.8234,-2.8234,-2.8234,-2.8234,-2.8234,-2.8234,-2.8234,-2.8234,-2.8234,-2.8234,-2.8234,-2.8234,-2.8234,-2.8234,-2.8234,-2.8234,-2.8234,-2.8234,-2.8234,-2.8221,-2.8234,-2.8234,-2.8207,-2.7976,-2.7816,-2.7655,-2.7335,-2.7081,-2.6827,-2.6653,-2.652,-2.64,-2.64,-2.64,-2.636,-2.6213,-2.5999,-2.5705,-2.5411,-2.513,-2.485,-2.4716,-2.4636,-2.483,-2.5267,-2.5224,-2.489,-2.5044,-2.5178,-2.5232,-2.5529,-2.5809,-2.5839,-2.6145,-2.6465,-2.6666,-2.68,-2.7,-2.7134,-2.72,-2.72,-2.72,-2.72,-2.72,-2.72,-2.7067,-2.6934,-2.6666,-2.6197,-2.5659,-2.5187,-2.4984,-2.4645,-2.4034,-2.3816,-2.3475,-2.3065,-2.2859,-2.2859,-2.2859,-2.2859,-2.2859,-2.2859,-2.2859,-2.2859,-2.2859,-2.2859,-2.2859,-2.2859,-2.2859,-2.2859,-2.2859,-2.2859,-2.2699,-2.2418,-2.2071,-2.1697,-2.1376,-2.1109,-2.1109,-2.1109,-2.1109,-2.1109,-2.1109,-2.1109,-2.1109,-2.1109,-2.1109,-2.1042,-2.0815,-2.0561,-2.0281,-2.8234,-2.8234,-2.8234,-2.8234,-2.8234,-2.8234,-2.8234,-2.8234,-2.8234,-2.8234,-2.8234,-2.8234,-2.8234,-2.8234,-2.8234,-2.8234,-2.8234,-2.8234,-2.8234,-2.8234,-2.8234,-2.8234,-2.8234,-2.8234,-2.8234,-2.8221,-2.8221,-2.8073,-2.7802,-2.7709,-2.7388,-2.7001,-2.6854,-2.6653,-2.6453,-2.64,-2.64,-2.64,-2.6373,-2.6186,-2.5905,-2.5611,-2.5317,-2.5037,-2.4831,-2.5018,-2.5373,-2.5918,-2.6213,-2.6114,-2.5811,-2.5845,-2.6136,-2.6145,-2.6254,-2.6298,-2.6641,-2.6811,-2.68,-2.7067,-2.72,-2.72,-2.72,-2.72,-2.72,-2.72,-2.72,-2.7067,-2.6867,-2.6666,-2.6398,-2.5928,-2.539,-2.4984,-2.4713,-2.4306,-2.3966,-2.3611,-2.327,-2.2996,-2.2859,-2.2859,-2.2859,-2.2859,-2.2859,-2.2859,-2.2859,-2.2859,-2.2859,-2.2859,-2.2859,-2.2859,-2.2859,-2.2859,-2.2859,-2.2859,-2.2632,-2.2365,-2.2017,-2.1657,-2.1309,-2.1109,-2.1109,-2.1109,-2.1109,-2.1109,-2.1109,-2.1109,-2.1109,-2.1109,-2.1109,-2.1109,-2.1042,-2.0748,-2.0454,-2.8234,-2.8234,-2.8234,-2.8234,-2.8234,-2.8234,-2.8234,-2.8234,-2.8234,-2.8234,-2.8234,-2.8234,-2.8234,-2.8234,-2.8234,-2.8234,-2.8234,-2.8234,-2.8234,-2.8234,-2.8234,-2.8234,-2.8234,-2.8234,-2.8234,-2.8234,-2.8234,-2.8181,-2.8087,-2.7802,-2.7522,-2.7215,-2.6947,-2.668,-2.6453,-2.64,-2.64,-2.64,-2.64,-2.6253,-2.5985,-2.5692,-2.5398,-2.5166,-2.5093,-2.546,-2.6034,-2.6312,-2.6648,-2.7025,-2.6917,-2.6732,-2.6673,-2.7031,-2.7139,-2.7097,-2.7275,-2.7367,-2.7146,-2.7197,-2.7216,-2.7232,-2.7248,-2.72,-2.72,-2.72,-2.7067,-2.6851,-2.6733,-2.6398,-2.5928,-2.5457,-2.5052,-2.4713,-2.4374,-2.3952,-2.3611,-2.3475,-2.3201,-2.2996,-2.2859,-2.2859,-2.2859,-2.2859,-2.2859,-2.2859,-2.2859,-2.2859,-2.2859,-2.2859,-2.2859,-2.2859,-2.2859,-2.2859,-2.2859,-2.2819,-2.2592,-2.2338,-2.2004,-2.1617,-2.1269,-2.1109,-2.1109,-2.1109,-2.1109,-2.1109,-2.1109,-2.1109,-2.1109,-2.1109,-2.1109,-2.1109,-2.1042,-2.0815,-2.0641,-2.8234,-2.8234,-2.8234,-2.8234,-2.8234,-2.8234,-2.8234,-2.8234,-2.8234,-2.8234,-2.8234,-2.8234,-2.8234,-2.8234,-2.8234,-2.8234,-2.8234,-2.8234,-2.8234,-2.8234,-2.8234,-2.8234,-2.8234,-2.8234,-2.8234,-2.8234,-2.8234,-2.8234,-2.8167,-2.806,-2.7762,-2.7468,-2.7161,-2.6907,-2.66,-2.6453,-2.64,-2.64,-2.6386,-2.6306,-2.6132,-2.5879,-2.5644,-2.5418,-2.5464,-2.5814,-2.6312,-2.6823,-2.7187,-2.7505,-2.7731,-2.7702,-2.7427,-2.7718,-2.7826,-2.7752,-2.7826,-2.79,-2.7725,-2.7661,-2.7629,-2.7455,-2.7455,-2.7343,-2.7197,-2.7067,-2.6867,-2.6666,-2.6398,-2.5928,-2.539,-2.5052,-2.4713,-2.4495,-2.402,-2.3611,-2.3406,-2.327,-2.3133,-2.2928,-2.2859,-2.2859,-2.2859,-2.2859,-2.2859,-2.2859,-2.2859,-2.2859,-2.2859,-2.2859,-2.2859,-2.2859,-2.2859,-2.2859,-2.2859,-2.2766,-2.2579,-2.2311,-2.2017,-2.1617,-2.1229,-2.1149,-2.1109,-2.1109,-2.1109,-2.1109,-2.1109,-2.1109,-2.1109,-2.1109,-2.1109,-2.1109,-2.1069,-2.0962,-2.0788,-2.8234,-2.8234,-2.8234,-2.8234,-2.8234,-2.8234,-2.8234,-2.8234,-2.8234,-2.8234,-2.8234,-2.8234,-2.8234,-2.8234,-2.8234,-2.8234,-2.8234,-2.8234,-2.8234,-2.8234,-2.8234,-2.8234,-2.8234,-2.8234,-2.8234,-2.8234,-2.8234,-2.8234,-2.8234,-2.8207,-2.8006,-2.7682,-2.7388,-2.7068,-2.68,-2.6547,-2.64,-2.64,-2.6386,-2.6386,-2.6306,-2.6144,-2.5882,-2.5807,-2.5992,-2.6163,-2.6633,-2.7114,-2.7623,-2.7695,-2.8331,-2.8551,-2.8451,-2.8342,-2.8342,-2.8344,-2.8313,-2.8233,-2.8122,-2.8122,-2.8043,-2.7752,-2.7804,-2.7693,-2.7419,-2.7107,-2.6858,-2.6476,-2.6124,-2.5457,-2.5052,-2.4781,-2.451,-2.4224,-2.3747,-2.3406,-2.327,-2.3065,-2.2928,-2.2928,-2.2859,-2.2859,-2.2859,-2.2859,-2.2859,-2.2859,-2.2859,-2.2859,-2.2859,-2.2859,-2.2859,-2.2859,-2.2859,-2.2859,-2.2859,-2.2832,-2.2632,-2.2338,-2.2044,-2.1683,-2.1296,-2.1162,-2.1122,-2.1109,-2.1109,-2.1109,-2.1109,-2.1109,-2.1109,-2.1109,-2.1109,-2.1109,-2.1109,-2.1109,-2.0922,-2.8234,-2.8234,-2.8234,-2.8234,-2.8234,-2.8234,-2.8234,-2.8234,-2.8234,-2.8234,-2.8234,-2.8234,-2.8234,-2.8234,-2.8234,-2.8234,-2.8234,-2.8234,-2.8234,-2.8234,-2.8234,-2.8234,-2.8234,-2.8234,-2.8234,-2.8234,-2.8234,-2.8234,-2.8234,-2.8207,-2.8003,-2.7696,-2.7402,-2.7121,-2.6854,-2.656,-2.64,-2.64,-2.64,-2.64,-2.6333,-2.6171,-2.618,-2.6176,-2.6443,-2.6717,-2.6969,-2.7347,-2.771,-2.7985,-2.8491,-2.8819,-2.8972,-2.9028,-2.8925,-2.8773,-2.8678,-2.8583,-2.8392,-2.8281,-2.8217,-2.8154,-2.8138,-2.8122,-2.791,-2.7447,-2.6982,-2.6481,-2.5786,-2.5096,-2.4645,-2.4527,-2.4198,-2.3775,-2.3543,-2.3338,-2.3119,-2.2981,-2.2913,-2.2926,-2.2899,-2.2859,-2.2859,-2.2859,-2.2859,-2.2859,-2.2859,-2.2859,-2.2859,-2.2859,-2.2859,-2.2859,-2.2859,-2.2859,-2.2859,-2.2846,-2.2726,-2.2418,-2.2124,-2.1844,-2.1496,-2.1243,-2.1149,-2.1109,-2.1109,-2.1109,-2.1109,-2.1109,-2.1109,-2.1109,-2.1109,-2.1109,-2.1109,-2.1096,-2.0989,-2.8234,-2.8234,-2.8234,-2.8234,-2.8234,-2.8234,-2.8234,-2.8234,-2.8234,-2.8234,-2.8234,-2.8234,-2.8234,-2.8234,-2.8234,-2.8234,-2.8234,-2.8234,-2.8234,-2.8234,-2.8234,-2.8234,-2.8234,-2.8234,-2.8234,-2.8234,-2.8234,-2.8234,-2.8234,-2.8234,-2.814,-2.7869,-2.7509,-2.7188,-2.6974,-2.6613,-2.6426,-2.64,-2.64,-2.6386,-2.6452,-2.634,-2.6543,-2.6932,-2.6955,-2.7097,-2.7541,-2.7683,-2.8072,-2.8418,-2.8779,-2.9082,-2.9226,-2.9282,-2.9218,-2.9059,-2.9028,-2.898,-2.8805,-2.8773,-2.8726,-2.8535,-2.8503,-2.8269,-2.7918,-2.7454,-2.6962,-2.6364,-2.5834,-2.5204,-2.5011,-2.4622,-2.4233,-2.3955,-2.3732,-2.3509,-2.3356,-2.318,-2.3113,-2.306,-2.2966,-2.2913,-2.2859,-2.2859,-2.2859,-2.2859,-2.2859,-2.2859,-2.2859,-2.2859,-2.2859,-2.2859,-2.2859,-2.2859,-2.2859,-2.2846,-2.2806,-2.2525,-2.2231,-2.1937,-2.1643,-2.1363,-2.1189,-2.1109,-2.1109,-2.1109,-2.1109,-2.1109,-2.1109,-2.1109,-2.1109,-2.1109,-2.1109,-2.1069,-2.0989,-2.8234,-2.8234,-2.8234,-2.8234,-2.8234,-2.8234,-2.8234,-2.8234,-2.8234,-2.8234,-2.8234,-2.8234,-2.8234,-2.8234,-2.8234,-2.8234,-2.8234,-2.8234,-2.8234,-2.8234,-2.8234,-2.8234,-2.8234,-2.8234,-2.8234,-2.8234,-2.8234,-2.8234,-2.8234,-2.8234,-2.8234,-2.8033,-2.7631,-2.735,-2.7134,-2.6667,-2.648,-2.64,-2.6386,-2.6386,-2.6556,-2.6721,-2.7101,-2.7802,-2.7467,-2.7627,-2.7925,-2.8258,-2.8439,-2.8738,-2.8995,-2.9298,-2.9298,-2.9298,-2.9298,-2.9298,-2.9298,-2.9298,-2.9266,-2.925,-2.9091,-2.89,-2.8885,-2.8585,-2.799,-2.7461,-2.6764,-2.6032,-2.5637,-2.5242,-2.4989,-2.465,-2.4296,-2.4083,-2.3927,-2.3741,-2.3647,-2.3527,-2.3367,-2.3247,-2.3073,-2.2966,-2.2913,-2.2859,-2.2859,-2.2859,-2.2859,-2.2859,-2.2859,-2.2859,-2.2859,-2.2859,-2.2859,-2.2859,-2.2859,-2.2859,-2.2806,-2.2659,-2.2365,-2.2084,-2.1764,-2.1456,-2.1309,-2.1162,-2.1109,-2.1109,-2.1109,-2.1109,-2.1109,-2.1109,-2.1109,-2.1109,-2.1109,-2.1109,-2.1056,-2.8234,-2.8234,-2.8234,-2.8234,-2.8234,-2.8234,-2.8234,-2.8234,-2.8234,-2.8234,-2.8234,-2.8234,-2.8234,-2.8234,-2.8234,-2.8234,-2.8234,-2.8234,-2.8234,-2.8234,-2.8234,-2.8234,-2.8234,-2.8234,-2.8234,-2.8234,-2.8234,-2.8234,-2.8234,-2.8234,-2.8234,-2.81,-2.7685,-2.735,-2.7283,-2.668,-2.6413,-2.64,-2.6386,-2.6637,-2.6939,-2.7278,-2.7593,-2.7951,-2.8286,-2.8476,-2.8282,-2.8676,-2.893,-2.8826,-2.9082,-2.9298,-2.9298,-2.9298,-2.9298,-2.9298,-2.9298,-2.9298,-2.9298,-2.9298,-2.9282,-2.9171,-2.9186,-2.8972,-2.8299,-2.7529,-2.668,-2.5596,-2.5413,-2.5186,-2.4788,-2.4449,-2.4151,-2.4049,-2.3973,-2.3875,-2.3821,-2.3834,-2.3674,-2.3514,-2.3367,-2.3126,-2.2979,-2.2913,-2.2859,-2.2859,-2.2859,-2.2859,-2.2859,-2.2859,-2.2859,-2.2859,-2.2859,-2.2859,-2.2859,-2.2859,-2.2832,-2.2739,-2.2485,-2.2218,-2.1964,-2.167,-2.139,-2.1269,-2.1189,-2.1109,-2.1109,-2.1109,-2.1109,-2.1109,-2.1109,-2.1109,-2.1109,-2.1109,-2.1109,-2.8234,-2.8234,-2.8234,-2.8234,-2.8234,-2.8234,-2.8234,-2.8234,-2.8234,-2.8234,-2.8234,-2.8234,-2.8234,-2.8234,-2.8234,-2.8234,-2.8234,-2.8234,-2.8234,-2.8234,-2.8234,-2.8234,-2.8234,-2.8234,-2.8234,-2.8234,-2.8234,-2.8234,-2.8234,-2.8234,-2.8234,-2.814,-2.7589,-2.735,-2.7283,-2.668,-2.6453,-2.6465,-2.6623,-2.6939,-2.7333,-2.779,-2.8125,-2.8448,-2.8828,-2.8942,-2.8973,-2.8992,-2.9263,-2.9262,-2.9369,-2.9298,-2.9298,-2.9298,-2.9298,-2.9298,-2.9298,-2.9298,-2.9298,-2.9298,-2.9298,-2.9226,-2.9082,-2.8676,-2.8099,-2.7503,-2.6792,-2.6085,-2.5768,-2.5308,-2.4874,-2.4612,-2.4394,-2.4321,-2.4168,-2.4195,-2.4155,-2.4035,-2.3968,-2.3821,-2.3661,-2.342,-2.3166,-2.2993,-2.2926,-2.2859,-2.2859,-2.2859,-2.2859,-2.2859,-2.2859,-2.2859,-2.2859,-2.2859,-2.2859,-2.2859,-2.2859,-2.2766,-2.2579,-2.2338,-2.2191,-2.1937,-2.163,-2.1376,-2.1243,-2.1176,-2.1122,-2.1109,-2.1109,-2.1109,-2.1109,-2.1109,-2.1109,-2.1109,-2.1109,-2.8234,-2.8234,-2.8234,-2.8234,-2.8234,-2.8234,-2.8234,-2.8234,-2.8234,-2.8234,-2.8234,-2.8234,-2.8234,-2.8234,-2.8234,-2.8234,-2.8234,-2.8234,-2.8234,-2.8234,-2.8234,-2.8234,-2.8234,-2.8234,-2.8234,-2.8234,-2.8234,-2.8234,-2.8234,-2.8234,-2.8234,-2.8194,-2.7549,-2.739,-2.7189,-2.672,-2.6465,-2.6623,-2.686,-2.7254,-2.7726,-2.8118,-2.8588,-2.889,-2.9222,-2.9426,-2.964,-2.9753,-2.9902,-2.9739,-2.9631,-2.9488,-2.9472,-2.9361,-2.9314,-2.9298,-2.9298,-2.9298,-2.9298,-2.9298,-2.9298,-2.9154,-2.8779,-2.8274,-2.7768,-2.7202,-2.6765,-2.6168,-2.5949,-2.5524,-2.5139,-2.4743,-2.463,-2.4543,-2.4556,-2.4609,-2.4596,-2.4396,-2.4209,-2.4048,-2.3888,-2.3741,-2.3474,-2.3166,-2.3006,-2.2899,-2.2859,-2.2859,-2.2859,-2.2859,-2.2859,-2.2859,-2.2859,-2.2859,-2.2859,-2.2859,-2.2859,-2.2819,-2.2632,-2.2472,-2.2325,-2.2124,-2.1844,-2.1603,-2.1376,-2.1229,-2.1162,-2.1136,-2.1109,-2.1109,-2.1109,-2.1109,-2.1109,-2.1109,-2.1109,-2.8234,-2.8234,-2.8234,-2.8234,-2.8234,-2.8234,-2.8234,-2.8234,-2.8234,-2.8234,-2.8234,-2.8234,-2.8234,-2.8234,-2.8234,-2.8234,-2.8234,-2.8234,-2.8234,-2.8234,-2.8234,-2.8234,-2.8234,-2.8234,-2.8234,-2.8234,-2.8234,-2.8234,-2.8234,-2.8234,-2.8234,-2.814,-2.7602,-2.7444,-2.7176,-2.6707,-2.665,-2.6795,-2.7032,-2.7504,-2.7976,-2.8368,-2.8744,-2.9368,-2.9774,-3.0115,-3.0204,-3.0442,-3.0494,-3.0283,-2.9965,-2.9727,-2.9663,-2.9504,-2.9393,-2.9314,-2.9298,-2.9298,-2.9298,-2.9298,-2.9298,-2.9082,-2.8635,-2.8057,-2.755,-2.7202,-2.6692,-2.6019,-2.58,-2.5359,-2.4931,-2.4636,-2.4636,-2.4636,-2.4636,-2.4636,-2.4636,-2.4609,-2.4436,-2.4262,-2.4128,-2.4008,-2.3781,-2.3474,-2.318,-2.306,-2.2873,-2.2859,-2.2859,-2.2859,-2.2859,-2.2859,-2.2859,-2.2859,-2.2859,-2.2859,-2.2859,-2.2859,-2.2766,-2.2619,-2.2485,-2.2258,-2.2044,-2.1817,-2.159,-2.139,-2.1203,-2.1162,-2.1122,-2.1109,-2.1109,-2.1109,-2.1109,-2.1109,-2.1109,-2.8234,-2.8234,-2.8234,-2.8234,-2.8234,-2.8234,-2.8234,-2.8234,-2.8234,-2.8234,-2.8234,-2.8234,-2.8234,-2.8234,-2.8234,-2.8234,-2.8234,-2.8234,-2.8234,-2.8234,-2.8234,-2.8234,-2.8234,-2.8234,-2.8234,-2.8234,-2.8234,-2.8234,-2.8234,-2.8234,-2.8234,-2.8087,-2.7722,-2.7455,-2.7148,-2.6787,-2.6691,-2.7032,-2.7347,-2.7726,-2.8211,-2.8822,-2.9212,-2.9446,-3.0237,-3.0485,-3.0576,-3.0738,-3.0732,-3.0616,-3.0315,-3.0092,-2.9917,-2.9711,-2.9552,-2.9377,-2.9361,-2.9329,-2.9314,-2.9242,-2.9082,-2.8578,-2.8217,-2.7855,-2.7347,-2.691,-2.6385,-2.5946,-2.5593,-2.5152,-2.4784,-2.4636,-2.4636,-2.4636,-2.4636,-2.4636,-2.4636,-2.4636,-2.4609,-2.4422,-2.4396,-2.4342,-2.4075,-2.3781,-2.3487,-2.322,-2.302,-2.2859,-2.2859,-2.2859,-2.2859,-2.2859,-2.2859,-2.2859,-2.2859,-2.2859,-2.2859,-2.2859,-2.2859,-2.2752,-2.2619,-2.2445,-2.2231,-2.2017,-2.179,-2.1577,-2.139,-2.1229,-2.1149,-2.1122,-2.1109,-2.1109,-2.1109,-2.1109,-2.1109,-2.8234,-2.8234,-2.8234,-2.8234,-2.8234,-2.8234,-2.8234,-2.8234,-2.8234,-2.8234,-2.8234,-2.8234,-2.8234,-2.8234,-2.8234,-2.8234,-2.8234,-2.8234,-2.8234,-2.8234,-2.8234,-2.8234,-2.8234,-2.8234,-2.8234,-2.8234,-2.8234,-2.8234,-2.8234,-2.8234,-2.8234,-2.8167,-2.7923,-2.7655,-2.7269,-2.688,-2.6795,-2.7175,-2.7661,-2.804,-2.851,-2.9056,-2.9601,-2.9756,-3.0392,-3.0856,-3.0931,-3.1096,-3.1077,-3.0918,-3.0696,-3.0394,-3.0203,-3.0013,-2.9854,-2.9663,-2.9504,-2.9457,-2.9441,-2.9273,-2.8954,-2.8346,-2.813,-2.771,-2.7129,-2.6619,-2.6239,-2.5873,-2.5446,-2.5005,-2.4636,-2.4636,-2.4636,-2.4636,-2.4636,-2.4636,-2.4636,-2.4636,-2.4636,-2.4583,-2.4556,-2.4516,-2.4289,-2.3955,-2.3487,-2.3207,-2.2993,-2.2859,-2.2859,-2.2859,-2.2859,-2.2859,-2.2859,-2.2859,-2.2859,-2.2859,-2.2859,-2.2859,-2.2859,-2.2859,-2.2739,-2.2592,-2.2445,-2.2258,-2.2031,-2.1856,-2.1577,-2.139,-2.1243,-2.1122,-2.1109,-2.1109,-2.1109,-2.1109,-2.1109,-2.8234,-2.8234,-2.8234,-2.8234,-2.8234,-2.8234,-2.8234,-2.8234,-2.8234,-2.8234,-2.8234,-2.8234,-2.8234,-2.8234,-2.8234,-2.8234,-2.8234,-2.8234,-2.8234,-2.8234,-2.8234,-2.8234,-2.8234,-2.8234,-2.8234,-2.8234,-2.8234,-2.8234,-2.8234,-2.8234,-2.8234,-2.8194,-2.8003,-2.7762,-2.7336,-2.7093,-2.7203,-2.7555,-2.804,-2.8431,-2.89,-2.9368,-2.9756,-3.0144,-3.0624,-3.101,-3.1209,-3.1255,-3.1268,-3.122,-3.1014,-3.0791,-3.068,-3.0426,-3.0267,-3.0187,-2.9933,-2.9822,-2.979,-2.9488,-2.8929,-2.8289,-2.813,-2.7768,-2.7129,-2.6619,-2.6166,-2.58,-2.5373,-2.5005,-2.4784,-2.4636,-2.4636,-2.4636,-2.4636,-2.4636,-2.4636,-2.4636,-2.4636,-2.4636,-2.4636,-2.4596,-2.4409,-2.4102,-2.3541,-2.318,-2.2953,-2.2859,-2.2859,-2.2859,-2.2859,-2.2859,-2.2859,-2.2859,-2.2859,-2.2859,-2.2859,-2.2859,-2.2859,-2.2859,-2.2859,-2.2779,-2.2632,-2.2485,-2.2298,-2.2071,-2.1804,-2.155,-2.1427,-2.1303,-2.1122,-2.1109,-2.1109,-2.1172,-2.1235,-2.8234,-2.8234,-2.8234,-2.8234,-2.8234,-2.8234,-2.8234,-2.8234,-2.8234,-2.8234,-2.8234,-2.8234,-2.8234,-2.8234,-2.8234,-2.8234,-2.8234,-2.8234,-2.8234,-2.8234,-2.8234,-2.8234,-2.8234,-2.8234,-2.8234,-2.8234,-2.8234,-2.8234,-2.8234,-2.8234,-2.8234,-2.8207,-2.7976,-2.7642,-2.7445,-2.7269,-2.7409,-2.7597,-2.804,-2.8602,-2.9212,-2.9679,-3.0067,-3.0531,-3.0933,-3.1241,-3.1379,-3.1395,-3.1395,-3.1395,-3.1188,-3.1093,-3.1026,-3.0696,-3.0585,-3.0426,-3.0156,-3.0044,-2.9901,-2.9606,-2.9174,-2.8526,-2.8057,-2.7783,-2.7056,-2.6385,-2.6019,-2.5653,-2.5226,-2.4857,-2.4636,-2.4636,-2.4636,-2.4636,-2.4636,-2.4636,-2.4636,-2.4636,-2.4636,-2.4636,-2.4636,-2.4516,-2.4356,-2.4182,-2.3688,-2.33,-2.3086,-2.2913,-2.2941,-2.2873,-2.2859,-2.2859,-2.2859,-2.2859,-2.2859,-2.2859,-2.2859,-2.2859,-2.2859,-2.2859,-2.2859,-2.2859,-2.2819,-2.2672,-2.2512,-2.2352,-2.2071,-2.1842,-2.1636,-2.1433,-2.1353,-2.1362,-2.1425,-2.1488,-2.1551,-2.8234,-2.8234,-2.8234,-2.8234,-2.8234,-2.8234,-2.8234,-2.8234,-2.8234,-2.8234,-2.8234,-2.8234,-2.8234,-2.8234,-2.8234,-2.8234,-2.8234,-2.8234,-2.8234,-2.8234,-2.8234,-2.8234,-2.8234,-2.8234,-2.8234,-2.8234,-2.8234,-2.8234,-2.8234,-2.8234,-2.8234,-2.8181,-2.802,-2.7915,-2.7743,-2.7783,-2.7689,-2.7875,-2.8197,-2.8822,-2.9446,-2.9912,-3.0299,-3.0778,-3.1087,-3.1395,-3.1395,-3.1395,-3.1395,-3.1395,-3.1347,-3.1284,-3.1093,-3.0998,-3.0918,-3.0743,-3.0537,-3.0362,-3.0108,-3.0013,-2.9399,-2.8462,-2.8236,-2.771,-2.7056,-2.6312,-2.5946,-2.558,-2.5005,-2.471,-2.4636,-2.4636,-2.4636,-2.4636,-2.4636,-2.4636,-2.4636,-2.4636,-2.4636,-2.4636,-2.4609,-2.4476,-2.4356,-2.4115,-2.3834,-2.3527,-2.3233,-2.306,-2.2954,-2.2873,-2.2859,-2.2859,-2.2859,-2.2859,-2.2859,-2.2859,-2.2859,-2.2859,-2.2859,-2.2859,-2.2859,-2.2859,-2.2859,-2.2859,-2.2712,-2.2539,-2.2378,-2.2149,-2.194,-2.1783,-2.1696,-2.1719,-2.174,-2.1803,-2.1866,-2.8207,-2.8207,-2.8234,-2.8234,-2.8234,-2.8234,-2.8234,-2.8234,-2.8234,-2.8234,-2.8234,-2.8234,-2.8234,-2.8234,-2.8234,-2.8234,-2.8234,-2.8234,-2.8234,-2.8234,-2.8234,-2.8234,-2.8234,-2.8234,-2.8234,-2.8234,-2.8234,-2.8234,-2.8234,-2.8234,-2.8234,-2.8234,-2.8181,-2.8133,-2.8139,-2.8068,-2.7974,-2.8146,-2.8524,-2.9149,-2.9679,-2.9989,-3.0454,-3.0856,-3.1241,-3.1395,-3.1395,-3.1395,-3.1395,-3.1395,-3.1379,-3.1379,-3.1379,-3.1379,-3.1379,-3.1284,-3.1014,-3.0712,-3.0426,-3.0346,-2.9712,-2.8826,-2.8301,-2.7728,-2.7056,-2.6312,-2.5873,-2.558,-2.5065,-2.4784,-2.4636,-2.4636,-2.4636,-2.4636,-2.4636,-2.4636,-2.4636,-2.4636,-2.4636,-2.4636,-2.4636,-2.4556,-2.4516,-2.4302,-2.3995,-2.3688,-2.338,-2.31,-2.2953,-2.2873,-2.2859,-2.2859,-2.2859,-2.2859,-2.2859,-2.2859,-2.2859,-2.2859,-2.2859,-2.2859,-2.2859,-2.2859,-2.2859,-2.2859,-2.2859,-2.278,-2.262,-2.2428,-2.2271,-2.2167,-2.2207,-2.2062,-2.216,-2.2118,-2.2181,-2.7829,-2.7843,-2.8056,-2.8234,-2.8234,-2.8234,-2.8234,-2.8234,-2.8234,-2.8234,-2.8234,-2.8234,-2.8234,-2.8234,-2.8234,-2.8234,-2.8234,-2.8234,-2.8234,-2.8234,-2.8234,-2.8234,-2.8234,-2.8234,-2.8234,-2.8234,-2.8234,-2.8234,-2.8234,-2.8234,-2.8234,-2.8234,-2.8234,-2.8298,-2.8359,-2.8383,-2.8452,-2.8619,-2.9047,-2.9461,-2.9912,-3.0299,-3.0778,-3.1164,-3.1318,-3.1395,-3.1395,-3.1395,-3.1395,-3.1395,-3.1395,-3.1395,-3.1395,-3.1395,-3.1379,-3.1379,-3.1252,-3.1093,-3.0716,-3.0395,-2.9878,-2.9105,-2.8473,-2.7716,-2.6998,-2.6341,-2.5814,-2.5506,-2.5065,-2.471,-2.4636,-2.4636,-2.4636,-2.4636,-2.4636,-2.4636,-2.4636,-2.4636,-2.4636,-2.4636,-2.4636,-2.4623,-2.4583,-2.4436,-2.4115,-2.3821,-2.3527,-2.3247,-2.3006,-2.2926,-2.2859,-2.2859,-2.2859,-2.2859,-2.2859,-2.2859,-2.2859,-2.2859,-2.2859,-2.2859,-2.2859,-2.2859,-2.2859,-2.2928,-2.2928,-2.2903,-2.2862,-2.2775,-2.2818,-2.2976,-2.3014,-2.273,-2.258,-2.2537,-2.262,-2.7535,-2.7562,-2.7843,-2.8114,-2.8221,-2.8234,-2.8234,-2.8234,-2.8234,-2.8234,-2.8234,-2.8234,-2.8234,-2.8234,-2.8234,-2.8234,-2.8234,-2.8234,-2.8234,-2.8234,-2.8234,-2.8234,-2.8234,-2.8234,-2.8234,-2.8234,-2.8234,-2.8234,-2.8234,-2.8234,-2.8234,-2.8234,-2.8234,-2.8463,-2.8648,-2.8714,-2.8811,-2.9073,-2.9444,-2.9754,-3.0144,-3.0547,-3.101,-3.1318,-3.1395,-3.1395,-3.1395,-3.1395,-3.1395,-3.1395,-3.1395,-3.1395,-3.1395,-3.1395,-3.1395,-3.1395,-3.1363,-3.1268,-3.1017,-3.0696,-3.0112,-2.9396,-2.8672,-2.7925,-2.7055,-2.6279,-2.5988,-2.5653,-2.5065,-2.4636,-2.4636,-2.4636,-2.4636,-2.4636,-2.4636,-2.4636,-2.4636,-2.4636,-2.4636,-2.4636,-2.4636,-2.4636,-2.4556,-2.4436,-2.4275,-2.4022,-2.3741,-2.346,-2.318,-2.2966,-2.2899,-2.2859,-2.2859,-2.2859,-2.2859,-2.2859,-2.2859,-2.2859,-2.2859,-2.2859,-2.2859,-2.2859,-2.2928,-2.2928,-2.2996,-2.3052,-2.32,-2.3398,-2.3468,-2.3628,-2.3753,-2.3607,-2.3379,-2.3131,-2.3274,-2.7241,-2.7255,-2.7535,-2.7829,-2.8083,-2.8181,-2.8194,-2.8234,-2.8234,-2.8234,-2.8234,-2.8234,-2.8234,-2.8234,-2.8234,-2.8234,-2.8234,-2.8234,-2.8234,-2.8234,-2.8234,-2.8234,-2.8234,-2.8234,-2.8234,-2.8234,-2.8234,-2.8234,-2.8234,-2.8234,-2.8234,-2.8234,-2.8305,-2.8574,-2.9063,-2.8809,-2.8972,-2.9414,-2.9601,-2.9834,-3.0144,-3.0624,-3.1026,-3.1318,-3.1395,-3.1395,-3.1395,-3.1395,-3.1395,-3.1395,-3.1395,-3.1395,-3.1395,-3.1395,-3.1395,-3.1395,-3.1395,-3.1363,-3.1162,-3.0839,-3.033,-2.9778,-2.9183,-2.8218,-2.7326,-2.639,-2.6041,-2.5534,-2.5005,-2.4636,-2.4636,-2.4636,-2.4636,-2.4636,-2.4636,-2.4636,-2.4636,-2.4636,-2.4636,-2.4636,-2.4636,-2.4636,-2.4623,-2.4502,-2.4382,-2.4182,-2.3901,-2.3607,-2.3327,-2.3046,-2.2926,-2.2873,-2.2859,-2.2859,-2.2859,-2.2859,-2.2859,-2.2859,-2.2859,-2.2859,-2.2859,-2.2928,-2.2941,-2.3065,-2.3201,-2.3406,-2.3582,-2.3781,-2.4004,-2.4318,-2.4415,-2.4431,-2.4261,-2.4056,-2.3786,-2.6934,-2.6961,-2.7241,-2.7535,-2.7789,-2.7802,-2.7936,-2.8221,-2.8234,-2.8207,-2.8221,-2.8221,-2.8234,-2.8234,-2.8234,-2.8234,-2.8234,-2.8234,-2.8234,-2.8234,-2.8234,-2.8234,-2.8234,-2.8234,-2.8234,-2.8234,-2.8234,-2.8234,-2.8234,-2.8234,-2.8221,-2.8221,-2.8362,-2.8784,-2.9159,-2.8874,-2.9172,-2.9624,-2.9886,-2.9927,-3.0222,-3.084,-3.1318,-3.1395,-3.1395,-3.1395,-3.1395,-3.1395,-3.1395,-3.1395,-3.1395,-3.1395,-3.1395,-3.1395,-3.1395,-3.1395,-3.1395,-3.1395,-3.1225,-3.0763,-3.0207,-2.9807,-2.9194,-2.8403,-2.7549,-2.6716,-2.5945,-2.5423,-2.5005,-2.4784,-2.4636,-2.4636,-2.4636,-2.4636,-2.4636,-2.4636,-2.4636,-2.4636,-2.4636,-2.4636,-2.4636,-2.4636,-2.4636,-2.4569,-2.4449,-2.4235,-2.3941,-2.3661,-2.338,-2.3113,-2.3021,-2.2886,-2.2873,-2.2859,-2.2859,-2.2859,-2.2859,-2.2859,-2.2859,-2.2859,-2.2859,-2.2996,-2.3065,-2.3201,-2.3406,-2.3679,-2.3952,-2.4263,-2.4501,-2.4818,-2.5085,-2.5166,-2.534,-2.516,-2.4667,-2.6627,-2.6667,-2.6947,-2.7241,-2.7482,-2.7509,-2.7602,-2.7819,-2.7832,-2.7832,-2.7816,-2.8087,-2.8221,-2.8221,-2.8234,-2.8234,-2.8234,-2.8234,-2.8234,-2.8234,-2.8234,-2.8234,-2.8234,-2.8234,-2.8234,-2.8234,-2.8234,-2.8234,-2.8234,-2.8234,-2.8221,-2.8278,-2.8547,-2.8689,-2.8949,-2.902,-2.9254,-2.97,-2.9985,-3.0159,-3.0376,-3.0994,-3.1395,-3.1395,-3.1395,-3.1395,-3.1395,-3.1395,-3.1395,-3.1395,-3.1395,-3.1395,-3.1395,-3.1395,-3.1395,-3.1395,-3.1395,-3.1395,-3.1148,-3.0686,-3.0129,-2.9743,-2.9249,-2.8453,-2.7591,-2.6724,-2.6307,-2.5738,-2.4925,-2.4636,-2.4636,-2.4636,-2.4636,-2.4636,-2.4636,-2.4636,-2.4636,-2.4636,-2.4636,-2.4636,-2.4636,-2.4636,-2.4636,-2.4623,-2.4529,-2.4476,-2.4155,-2.3848,-2.3541,-2.3207,-2.3033,-2.2968,-2.2873,-2.2859,-2.2859,-2.2859,-2.2859,-2.2859,-2.2859,-2.2859,-2.2928,-2.3065,-2.3201,-2.3406,-2.3679,-2.402,-2.436,-2.4645,-2.4984,-2.5233,-2.5598,-2.5927,-2.6036,-2.6143,-2.5751,-2.64,-2.6426,-2.6667,-2.6934,-2.7188,-2.7215,-2.7241,-2.7281,-2.7363,-2.7363,-2.7362,-2.7886,-2.81,-2.8167,-2.8221,-2.8221,-2.8234,-2.8234,-2.8234,-2.8234,-2.8234,-2.8234,-2.8234,-2.8234,-2.8234,-2.8234,-2.8234,-2.8234,-2.8234,-2.8221,-2.8194,-2.8211,-2.837,-2.8565,-2.8767,-2.8944,-2.921,-2.971,-3.0048,-3.0314,-3.0763,-3.1164,-3.1318,-3.1395,-3.1395,-3.1395,-3.1395,-3.1395,-3.1395,-3.1395,-3.1395,-3.1395,-3.1395,-3.1395,-3.1395,-3.1395,-3.1395,-3.1395,-3.1164,-3.0531,-3.0206,-2.9819,-2.9212,-2.8472,-2.753,-2.6997,-2.6503,-2.5923,-2.5106,-2.469,-2.4676,-2.4636,-2.4636,-2.4636,-2.4636,-2.4636,-2.4636,-2.4636,-2.4636,-2.4636,-2.4636,-2.4636,-2.4636,-2.4636,-2.4609,-2.4569,-2.4396,-2.4102,-2.3781,-2.3407,-2.3126,-2.2966,-2.2873,-2.2859,-2.2859,-2.2859,-2.2859,-2.2859,-2.2859,-2.2859,-2.2928,-2.3133,-2.3338,-2.3611,-2.3884,-2.436,-2.4781,-2.5119,-2.539,-2.5727,-2.5987,-2.6346,-2.6534,-2.6624,-2.6646,-2.64,-2.64,-2.6453,-2.664,-2.6881,-2.6907,-2.7041,-2.7323,-2.7323,-2.735,-2.7255,-2.7335,-2.7535,-2.7789,-2.814,-2.8181,-2.8087,-2.8127,-2.8194,-2.8234,-2.8114,-2.8167,-2.8167,-2.8047,-2.8194,-2.8194,-2.8154,-2.8194,-2.806,-2.8114,-2.8254,-2.8288,-2.8745,-2.8849,-2.8787,-2.9022,-2.9395,-2.9796,-3.0096,-3.0376,-3.0778,-3.1164,-3.1318,-3.1395,-3.1395,-3.1395,-3.1395,-3.1395,-3.1395,-3.1395,-3.1395,-3.1395,-3.1395,-3.1395,-3.1395,-3.1395,-3.1395,-3.1241,-3.0933,-3.0454,-3.0129,-2.9679,-2.8978,-2.8339,-2.7515,-2.6987,-2.6548,-2.6026,-2.5344,-2.493,-2.4823,-2.4676,-2.4636,-2.4636,-2.4636,-2.4636,-2.4636,-2.4636,-2.4636,-2.4636,-2.4636,-2.4636,-2.4636,-2.4636,-2.4636,-2.4556,-2.4436,-2.4155,-2.3888,-2.3554,-2.3233,-2.3073,-2.2913,-2.2859,-2.2859,-2.2859,-2.2859,-2.2859,-2.2928,-2.2928,-2.3065,-2.3201,-2.3475,-2.3816,-2.4224,-2.4699,-2.5119,-2.5524,-2.5861,-2.6197,-2.6398,-2.6671,-2.6941,-2.706,-2.7082]},{"header":{"parameterUnit":"m.s-1","parameterCategory":1,"la1":31.0,"la2":29.5877,"lo1":-88.7671,"lo2":-86.6584,"dy":0.0162,"dx":0.0185,"nx":115,"ny":88,"refTime":"2023-10-17T06:00:00:Z","depth":0,"parameterNumber":3,"parameterNumberName":"V-component_of_WINDS"},"data":[0.0,0.0,0.0,0.0,0.0,0.0,0.0,0.0,0.0,0.0,0.0,0.0,0.0,0.0,0.0,0.0,0.0,0.0,0.0,0.0,0.0,0.0,0.0,0.0,0.0,0.0,0.0,0.0,0.0,0.0,0.0,0.0,0.0,0.0,0.0,0.0,0.0,0.0,0.0,0.0,0.0,0.0,0.0,0.0,0.0,0.0,0.0,0.0,0.0,0.0,0.0,0.0,0.0,0.0,0.0,0.0,0.0,0.0,0.0,0.0,0.0,0.0,0.0,0.0,0.0,0.0,0.0,0.0,0.0,0.0,0.0,0.0,0.0,0.0,0.0,0.0,0.0,0.0,0.0,0.0,0.0,0.0,0.0,0.0,0.0,0.0,0.0,0.0,0.0,0.0,0.0,0.0,0.0,0.0,0.0,0.0,0.0,0.0,0.0,0.0,0.0,0.0,0.0,0.0,0.0,0.0,0.0,0.0,0.0,0.0,0.0,0.0,0.0,0.0,0.0,0.0,0.0,0.0,0.0,0.0,0.0,0.0,0.0,0.0,0.0,0.0,0.0,0.0,0.0,0.0,0.0,0.0,0.0,0.0,0.0,0.0,0.0,0.0,0.0,0.0,0.0,0.0,0.0,0.0,0.0,0.0,0.0,0.0,0.0,0.0,0.0,0.0,0.0,0.0,0.0,0.0,0.0,0.0,0.0,0.0,0.0,0.0,0.0,0.0,0.0,0.0,0.0,0.0,0.0,0.0,0.0,0.0,0.0,0.0,0.0,0.0,0.0,0.0,0.0,0.0,0.0,0.0,0.0,0.0,0.0,0.0,0.0,0.0,0.0,0.0,0.0,0.0,0.0,0.0,0.0,0.0,0.0,0.0,0.0,0.0,0.0,0.0,0.0,0.0,0.0,0.0,0.0,0.0,0.0,0.0,0.0,0.0,0.0,0.0,0.0,0.0,0.0,0.0,0.0,0.0,0.0,0.0,0.0,0.0,0.0,0.0,0.0,0.0,0.0,0.0,0.0,0.0,0.0,0.0,0.0,0.0,0.0,0.0,0.0,0.0,0.0,0.0,0.0,0.0,0.0,0.0,0.0,0.0,0.0,0.0,0.0,0.0,0.0,0.0,0.0,0.0,0.0,0.0,0.0,0.0,0.0,0.0,0.0,0.0,0.0,0.0,0.0,0.0,0.0,0.0,0.0,0.0,0.0,0.0,0.0,0.0,0.0,0.0,0.0,0.0,0.0,0.0,0.0,0.0,0.0,0.0,0.0,0.0,0.0,0.0,0.0,0.0,0.0,0.0,0.0,0.0,0.0,0.0,0.0,0.0,0.0,0.0,0.0,0.0,0.0,0.0,0.0,0.0,0.0,0.0,0.0,0.0,0.0,0.0,0.0,0.0,0.0,0.0,0.0,0.0,0.0,0.0,0.0,0.0,0.0,0.0,0.0,0.0,0.0,0.0,0.0,0.0,0.0,0.0,0.0,0.0,0.0,0.0,0.0,0.0,0.0,0.0,0.0,0.0,0.0,0.0,0.0,0.0,0.0,0.0,0.0,0.0,0.0,0.0,0.0,0.0,0.0,0.0,0.0,0.0,0.0,0.0,0.0,0.0,0.0,0.0,0.0,0.0,0.0,0.0,0.0,0.0,0.0,0.0,0.0,0.0,0.0,0.0,0.0,0.0,0.0,0.0,0.0,0.0,0.0,0.0,0.0,0.0,0.0,0.0,0.0,0.0,0.0,0.0,0.0,0.0,0.0,0.0,0.0,0.0,0.0,0.0,0.0,0.0,0.0,0.0,0.0,0.0,0.0,0.0,0.0,0.0,0.0,0.0,0.0,0.0,0.0,0.0,0.0,0.0,0.0,0.0,0.0,0.0,0.0,0.0,0.0,0.0,0.0,0.0,0.0,0.0,0.0,0.0,0.0,0.0,0.0,0.0,0.0,0.0,0.0,0.0,0.0,0.0,0.0,0.0,0.0,0.0,0.0,0.0,0.0,0.0,0.0,0.0,0.0,0.0,0.0,0.0,0.0,0.0,0.0,0.0,0.0,0.0,0.0,0.0,0.0,0.0,0.0,0.0,0.0,0.0,0.0,0.0,0.0,0.0,0.0,0.0,0.0,0.0,0.0,0.0,0.0,0.0,0.0,0.0,0.0,0.0,0.0,0.0,0.0,0.0,0.0,0.0,0.0,0.0,0.0,0.0,0.0,0.0,0.0,0.0,0.0,0.0,0.0,0.0,0.0,0.0,0.0,0.0,0.0,0.0,0.0,0.0,0.0,0.0,0.0,0.0,0.0,0.0,0.0,0.0,0.0,0.0,0.0,0.0,0.0,0.0,0.0,0.0,0.0,0.0,0.0,0.0,0.0,0.0,0.0,0.0,0.0,0.0,0.0,0.0,0.0,0.0,0.0,0.0,0.0,0.0,0.0,0.0,0.0,0.0,0.0,0.0,0.0,0.0,0.0,0.0,0.0,0.0,0.0,0.0,0.0,0.0,0.0,0.0,0.0,0.0,0.0,0.0,0.0,0.0,0.0,0.0,0.0,0.0,0.0,0.0,0.0,0.0,0.0,0.0,0.0,0.0,0.0,0.0,0.0,0.0,0.0,0.0,0.0,0.0,0.0,0.0,0.0,0.0,0.0,0.0,0.0,0.0,0.0,0.0,0.0,0.0,0.0,0.0,0.0,0.0,0.0,0.0,0.0,0.0,0.0,0.0,0.0,0.0,0.0,0.0,0.0,0.0,0.0,0.0,0.0,0.0,0.0,0.0,0.0,0.0,0.0,0.0,0.0,0.0,0.0,0.0,0.0,0.0,0.0,0.0,0.0,0.0,0.0,0.0,0.0,0.0,0.0,0.0,0.0,0.0,0.0,0.0,0.0,0.0,0.0,0.0,0.0,0.0,0.0,0.0,0.0,0.0,0.0,0.0,0.0,0.0,0.0,0.0,0.0,0.0,0.0,0.0,0.0,0.0,0.0,0.0,0.0,0.0,0.0,0.0,0.0,0.0,0.0,0.0,0.0,0.0,0.0,0.0,0.0,0.0,0.0,0.0,0.0,0.0,0.0,0.0,0.0,0.0,0.0,0.0,0.0,0.0,0.0,0.0,0.0,0.0,0.0,0.0,0.0,0.0,0.0,0.0,0.0,0.0,0.0,0.0,0.0,0.0,0.0,0.0,0.0,0.0,0.0,0.0,0.0,0.0,0.0,0.0,0.0,0.0,0.0,0.0,0.0,0.0,0.0,0.0,0.0,0.0,0.0,0.0,0.0,0.0,0.0,0.0,0.0,0.0,0.0,0.0,0.0,0.0,0.0,0.0,0.0,0.0,0.0,0.0,0.0,0.0,0.0,0.0,0.0,0.0,0.0,0.0,0.0,0.0,0.0,0.0,0.0,0.0,0.0,0.0,0.0,0.0,0.0,0.0,0.0,0.0,0.0,0.0,0.0,0.0,0.0,0.0,0.0,0.0,0.0,0.0,0.0,0.0,0.0,0.0,0.0,0.0,0.0,0.0,0.0,0.0,0.0,0.0,0.0,0.0,0.0,0.0,0.0,0.0,0.0,0.0,0.0,0.0,0.0,0.0,0.0,0.0,0.0,0.0,0.0,0.0,0.0,0.0,0.0,0.0,0.0,0.0,0.0,0.0,0.0,0.0,0.0,0.0,0.0,0.0,0.0,0.0,0.0,0.0,0.0,0.0,0.0,0.0,0.0,0.0,0.0,0.0,0.0,0.0,0.0,0.0,0.0,0.0,0.0,0.0,0.0,0.0,0.0,0.0,0.0,0.0,0.0,0.0,0.0,0.0,0.0,0.0,0.0,0.0,0.0,0.0,0.0,0.0,0.0,0.0,0.0,0.0,0.0,0.0,0.0,0.0,0.0,0.0,0.0,0.0,0.0,0.0,0.0,0.0,0.0,0.0,0.0,0.0,0.0,0.0,0.0,0.0,0.0,0.0,0.0,0.0,0.0,0.0,0.0,0.0,0.0,0.0,0.0,0.0,0.0,0.0,0.0,0.0,0.0,0.0,0.0,0.0,0.0,0.0,0.0,0.0,0.0,0.0,0.0,0.0,0.0,0.0,0.0,0.0,0.0,0.0,0.0,0.0,0.0,0.0,0.0,0.0,0.0,0.0,0.0,0.0,0.0,0.0,0.0,0.0,0.0,0.0,0.0,0.0,0.0,0.0,0.0,0.0,0.0,0.0,0.0,0.0,0.0,0.0,0.0,0.0,0.0,0.0,0.0,0.0,0.0,0.0,-3.0572,0.0,0.0,0.0,-3.0162,0.0,0.0,0.0,0.0,0.0,0.0,0.0,0.0,0.0,0.0,0.0,0.0,0.0,0.0,0.0,0.0,0.0,0.0,0.0,0.0,0.0,0.0,0.0,0.0,0.0,0.0,0.0,0.0,0.0,0.0,0.0,0.0,0.0,0.0,0.0,0.0,0.0,0.0,0.0,0.0,0.0,0.0,0.0,0.0,0.0,0.0,0.0,0.0,0.0,0.0,0.0,0.0,0.0,0.0,0.0,0.0,0.0,0.0,0.0,0.0,0.0,0.0,0.0,0.0,0.0,0.0,0.0,0.0,0.0,0.0,0.0,0.0,0.0,0.0,0.0,0.0,0.0,0.0,0.0,0.0,0.0,0.0,0.0,0.0,0.0,0.0,0.0,0.0,0.0,0.0,0.0,0.0,0.0,0.0,0.0,0.0,0.0,0.0,0.0,0.0,0.0,0.0,0.0,0.0,0.0,0.0,0.0,0.0,0.0,0.0,-3.0749,-3.0626,-3.0489,-3.0417,-3.0312,0.0,0.0,0.0,0.0,0.0,0.0,0.0,0.0,0.0,0.0,0.0,0.0,0.0,0.0,0.0,0.0,0.0,0.0,0.0,0.0,0.0,0.0,0.0,0.0,0.0,0.0,0.0,0.0,0.0,0.0,0.0,0.0,0.0,0.0,0.0,0.0,0.0,0.0,0.0,0.0,0.0,0.0,0.0,0.0,0.0,0.0,0.0,0.0,0.0,0.0,0.0,0.0,0.0,0.0,0.0,0.0,0.0,0.0,0.0,0.0,0.0,0.0,0.0,0.0,0.0,0.0,0.0,0.0,0.0,0.0,0.0,0.0,0.0,0.0,0.0,0.0,0.0,0.0,0.0,0.0,0.0,0.0,0.0,0.0,0.0,0.0,0.0,0.0,0.0,0.0,0.0,0.0,0.0,0.0,0.0,0.0,0.0,0.0,0.0,0.0,0.0,0.0,0.0,0.0,0.0,0.0,0.0,0.0,0.0,0.0,0.0,0.0,-3.0613,-3.0489,-3.0396,0.0,0.0,0.0,0.0,0.0,0.0,0.0,0.0,0.0,0.0,0.0,0.0,0.0,0.0,0.0,0.0,0.0,0.0,0.0,0.0,0.0,0.0,0.0,0.0,0.0,0.0,0.0,0.0,0.0,0.0,0.0,0.0,0.0,0.0,0.0,0.0,0.0,0.0,0.0,0.0,0.0,0.0,0.0,0.0,0.0,0.0,0.0,0.0,0.0,0.0,0.0,0.0,0.0,0.0,0.0,0.0,0.0,0.0,0.0,0.0,0.0,0.0,0.0,0.0,0.0,0.0,0.0,0.0,0.0,0.0,0.0,0.0,0.0,0.0,0.0,0.0,0.0,0.0,0.0,0.0,0.0,0.0,0.0,0.0,0.0,0.0,0.0,0.0,0.0,0.0,0.0,0.0,0.0,0.0,0.0,0.0,0.0,0.0,0.0,0.0,0.0,0.0,0.0,0.0,0.0,0.0,0.0,0.0,0.0,0.0,-3.0958,-3.0958,-3.0777,0.0,-3.0417,0.0,0.0,0.0,0.0,0.0,0.0,0.0,0.0,0.0,0.0,0.0,0.0,0.0,0.0,0.0,0.0,0.0,0.0,0.0,0.0,0.0,0.0,0.0,0.0,0.0,0.0,0.0,0.0,0.0,0.0,0.0,0.0,0.0,0.0,0.0,0.0,0.0,0.0,0.0,0.0,0.0,0.0,0.0,0.0,0.0,0.0,0.0,0.0,0.0,0.0,0.0,0.0,0.0,0.0,0.0,0.0,0.0,0.0,0.0,0.0,0.0,0.0,0.0,0.0,0.0,0.0,0.0,0.0,0.0,0.0,0.0,0.0,0.0,0.0,0.0,0.0,0.0,0.0,0.0,0.0,0.0,0.0,0.0,0.0,0.0,0.0,0.0,0.0,0.0,0.0,0.0,0.0,0.0,0.0,0.0,0.0,0.0,0.0,0.0,0.0,0.0,0.0,0.0,0.0,0.0,0.0,0.0,0.0,0.0,0.0,-3.1092,-3.1012,-3.0831,-3.0667,0.0,0.0,0.0,0.0,0.0,0.0,0.0,0.0,0.0,0.0,0.0,0.0,0.0,0.0,0.0,0.0,0.0,0.0,0.0,0.0,0.0,0.0,0.0,0.0,0.0,0.0,0.0,0.0,0.0,0.0,0.0,0.0,0.0,0.0,0.0,0.0,0.0,0.0,0.0,0.0,0.0,0.0,0.0,0.0,0.0,0.0,0.0,0.0,0.0,0.0,0.0,0.0,0.0,0.0,0.0,0.0,0.0,0.0,0.0,0.0,0.0,0.0,0.0,0.0,0.0,0.0,0.0,0.0,0.0,0.0,0.0,0.0,0.0,0.0,0.0,0.0,0.0,0.0,0.0,0.0,0.0,0.0,0.0,0.0,0.0,0.0,0.0,0.0,0.0,0.0,0.0,0.0,0.0,0.0,0.0,0.0,0.0,0.0,0.0,0.0,0.0,0.0,0.0,0.0,0.0,0.0,0.0,0.0,0.0,0.0,-3.119,-3.1131,-3.1012,-3.0838,-3.0736,-3.0708,0.0,0.0,0.0,0.0,0.0,0.0,0.0,0.0,0.0,0.0,0.0,0.0,0.0,0.0,0.0,0.0,0.0,0.0,0.0,0.0,0.0,0.0,0.0,0.0,0.0,0.0,0.0,0.0,0.0,0.0,0.0,0.0,0.0,0.0,0.0,0.0,0.0,0.0,0.0,0.0,0.0,0.0,0.0,0.0,0.0,0.0,0.0,0.0,0.0,0.0,0.0,0.0,0.0,0.0,0.0,0.0,0.0,0.0,0.0,0.0,0.0,0.0,0.0,0.0,0.0,0.0,0.0,0.0,0.0,0.0,0.0,0.0,0.0,0.0,0.0,0.0,0.0,0.0,0.0,0.0,0.0,0.0,0.0,0.0,0.0,0.0,0.0,0.0,0.0,0.0,0.0,0.0,0.0,0.0,0.0,0.0,0.0,0.0,0.0,0.0,0.0,0.0,0.0,0.0,0.0,0.0,0.0,0.0,-3.119,-3.119,-3.1131,-3.1012,-3.0978,-3.0878,0.0,0.0,0.0,0.0,0.0,0.0,0.0,0.0,0.0,0.0,0.0,0.0,0.0,0.0,0.0,0.0,0.0,0.0,0.0,0.0,0.0,0.0,0.0,0.0,0.0,0.0,0.0,0.0,0.0,0.0,0.0,0.0,0.0,0.0,0.0,0.0,0.0,0.0,0.0,0.0,0.0,0.0,0.0,0.0,0.0,0.0,0.0,0.0,0.0,0.0,0.0,0.0,0.0,0.0,0.0,0.0,0.0,0.0,0.0,0.0,0.0,0.0,0.0,0.0,0.0,0.0,0.0,0.0,0.0,0.0,0.0,0.0,0.0,0.0,0.0,0.0,0.0,0.0,0.0,0.0,0.0,0.0,0.0,0.0,0.0,0.0,0.0,0.0,0.0,0.0,0.0,0.0,0.0,0.0,0.0,0.0,0.0,0.0,0.0,0.0,0.0,0.0,0.0,0.0,0.0,0.0,0.0,0.0,0.0,-3.119,-3.119,-3.1171,-3.1131,-3.1052,-3.0938,0.0,0.0,0.0,0.0,0.0,0.0,0.0,0.0,0.0,0.0,0.0,0.0,0.0,0.0,0.0,0.0,0.0,0.0,0.0,0.0,0.0,0.0,0.0,0.0,0.0,0.0,0.0,0.0,0.0,0.0,0.0,0.0,0.0,0.0,0.0,0.0,0.0,0.0,0.0,0.0,0.0,0.0,0.0,0.0,0.0,0.0,0.0,0.0,0.0,0.0,0.0,0.0,0.0,0.0,0.0,0.0,0.0,0.0,0.0,0.0,0.0,0.0,0.0,0.0,0.0,0.0,0.0,0.0,0.0,0.0,0.0,0.0,0.0,0.0,0.0,0.0,0.0,0.0,0.0,0.0,0.0,0.0,0.0,0.0,0.0,0.0,0.0,0.0,0.0,0.0,0.0,0.0,0.0,0.0,0.0,0.0,0.0,0.0,0.0,0.0,0.0,0.0,0.0,0.0,0.0,0.0,0.0,0.0,0.0,-3.119,0.0,-3.119,-3.119,-3.1112,-3.1018,0.0,0.0,0.0,0.0,0.0,0.0,0.0,0.0,0.0,0.0,0.0,0.0,0.0,0.0,0.0,0.0,0.0,0.0,0.0,0.0,0.0,0.0,0.0,0.0,0.0,0.0,0.0,0.0,0.0,0.0,0.0,0.0,0.0,0.0,0.0,0.0,0.0,0.0,0.0,0.0,0.0,0.0,0.0,0.0,0.0,0.0,0.0,0.0,0.0,0.0,0.0,0.0,0.0,0.0,0.0,0.0,0.0,0.0,0.0,0.0,0.0,0.0,0.0,0.0,0.0,0.0,0.0,0.0,0.0,0.0,0.0,0.0,0.0,0.0,0.0,0.0,0.0,0.0,0.0,0.0,0.0,0.0,0.0,0.0,0.0,0.0,0.0,0.0,0.0,0.0,0.0,0.0,0.0,0.0,0.0,0.0,0.0,0.0,0.0,0.0,0.0,0.0,0.0,0.0,0.0,0.0,0.0,0.0,-3.1224,-3.119,-3.119,-3.1224,-3.119,-3.1224,-3.1165,0.0,0.0,0.0,0.0,0.0,0.0,0.0,0.0,0.0,0.0,0.0,0.0,0.0,0.0,0.0,0.0,0.0,0.0,0.0,0.0,0.0,0.0,0.0,0.0,0.0,0.0,0.0,0.0,0.0,0.0,0.0,0.0,0.0,0.0,0.0,0.0,0.0,0.0,0.0,0.0,0.0,0.0,0.0,0.0,0.0,0.0,0.0,0.0,0.0,0.0,0.0,0.0,0.0,0.0,0.0,0.0,0.0,0.0,0.0,0.0,0.0,0.0,0.0,0.0,0.0,0.0,0.0,0.0,0.0,0.0,0.0,0.0,0.0,0.0,0.0,0.0,0.0,0.0,0.0,0.0,0.0,0.0,0.0,0.0,0.0,0.0,0.0,0.0,0.0,0.0,0.0,0.0,0.0,0.0,0.0,0.0,0.0,0.0,0.0,0.0,0.0,0.0,0.0,0.0,0.0,0.0,0.0,0.0,0.0,-3.1244,-3.1718,-3.1698,-3.1224,-3.1718,-3.1698,0.0,0.0,0.0,0.0,0.0,0.0,0.0,0.0,0.0,0.0,0.0,0.0,0.0,0.0,0.0,0.0,0.0,0.0,0.0,0.0,0.0,0.0,0.0,0.0,0.0,0.0,0.0,0.0,0.0,0.0,0.0,0.0,0.0,0.0,0.0,0.0,0.0,0.0,0.0,0.0,0.0,0.0,0.0,0.0,0.0,0.0,0.0,0.0,0.0,0.0,0.0,0.0,0.0,0.0,0.0,0.0,0.0,0.0,0.0,0.0,0.0,0.0,0.0,0.0,0.0,0.0,0.0,0.0,0.0,0.0,0.0,0.0,0.0,0.0,0.0,0.0,0.0,0.0,0.0,0.0,0.0,0.0,0.0,0.0,0.0,0.0,0.0,0.0,0.0,0.0,0.0,0.0,0.0,0.0,0.0,0.0,0.0,0.0,0.0,0.0,0.0,0.0,0.0,0.0,0.0,0.0,0.0,0.0,0.0,-3.2116,-3.2483,-3.2476,-3.2036,-3.2476,-3.2361,-3.163,0.0,0.0,0.0,0.0,0.0,0.0,0.0,0.0,0.0,0.0,0.0,0.0,0.0,0.0,0.0,0.0,0.0,0.0,0.0,0.0,0.0,0.0,0.0,0.0,0.0,0.0,0.0,0.0,0.0,0.0,0.0,0.0,0.0,0.0,0.0,0.0,0.0,0.0,0.0,0.0,0.0,0.0,0.0,0.0,0.0,0.0,0.0,0.0,0.0,0.0,0.0,0.0,0.0,0.0,0.0,0.0,0.0,0.0,0.0,0.0,0.0,0.0,0.0,0.0,0.0,0.0,0.0,0.0,0.0,0.0,0.0,0.0,0.0,0.0,0.0,0.0,0.0,0.0,0.0,0.0,0.0,0.0,0.0,0.0,0.0,0.0,0.0,0.0,0.0,0.0,0.0,0.0,0.0,0.0,0.0,0.0,0.0,0.0,0.0,0.0,0.0,0.0,0.0,0.0,0.0,0.0,0.0,0.0,-3.3679,-3.3588,-3.3491,-3.3389,-3.3423,-3.3085,0.0,0.0,0.0,0.0,0.0,0.0,0.0,0.0,0.0,0.0,0.0,0.0,0.0,0.0,0.0,0.0,0.0,0.0,0.0,0.0,0.0,0.0,0.0,0.0,0.0,0.0,0.0,0.0,0.0,0.0,0.0,0.0,0.0,0.0,0.0,0.0,0.0,0.0,0.0,0.0,0.0,0.0,0.0,0.0,0.0,0.0,0.0,0.0,0.0,0.0,0.0,0.0,0.0,0.0,0.0,0.0,0.0,0.0,0.0,0.0,0.0,0.0,0.0,0.0,0.0,0.0,0.0,0.0,0.0,0.0,0.0,0.0,0.0,0.0,0.0,0.0,0.0,0.0,0.0,0.0,0.0,0.0,0.0,0.0,0.0,0.0,0.0,0.0,0.0,0.0,0.0,0.0,0.0,0.0,0.0,0.0,0.0,0.0,0.0,0.0,0.0,0.0,0.0,0.0,0.0,0.0,0.0,0.0,0.0,-3.4658,-3.4959,-3.4605,-3.3491,-3.3931,-3.3592,0.0,0.0,0.0,0.0,0.0,0.0,0.0,0.0,0.0,0.0,0.0,0.0,0.0,0.0,0.0,0.0,0.0,0.0,0.0,0.0,0.0,0.0,0.0,0.0,0.0,0.0,0.0,0.0,0.0,0.0,0.0,0.0,0.0,0.0,0.0,0.0,0.0,0.0,0.0,0.0,0.0,0.0,0.0,0.0,0.0,0.0,0.0,0.0,0.0,0.0,0.0,0.0,0.0,0.0,0.0,0.0,0.0,0.0,0.0,0.0,0.0,0.0,0.0,0.0,0.0,0.0,0.0,0.0,0.0,0.0,0.0,0.0,0.0,0.0,0.0,0.0,0.0,0.0,0.0,0.0,0.0,0.0,0.0,0.0,0.0,0.0,0.0,0.0,0.0,0.0,0.0,0.0,0.0,0.0,0.0,0.0,0.0,0.0,0.0,0.0,0.0,0.0,0.0,0.0,0.0,0.0,0.0,0.0,-3.5738,-3.5976,-3.6566,-3.6456,-3.5472,-3.5147,-3.4404,0.0,0.0,0.0,0.0,0.0,0.0,0.0,0.0,0.0,0.0,0.0,0.0,0.0,0.0,0.0,0.0,0.0,0.0,0.0,0.0,0.0,0.0,0.0,0.0,0.0,0.0,0.0,0.0,0.0,0.0,0.0,0.0,0.0,0.0,0.0,0.0,0.0,0.0,0.0,0.0,0.0,0.0,0.0,0.0,0.0,0.0,0.0,0.0,0.0,0.0,0.0,0.0,0.0,0.0,0.0,0.0,0.0,0.0,0.0,0.0,0.0,0.0,0.0,0.0,0.0,0.0,0.0,0.0,0.0,0.0,0.0,0.0,0.0,0.0,0.0,0.0,0.0,0.0,0.0,0.0,0.0,0.0,0.0,0.0,0.0,0.0,0.0,0.0,0.0,0.0,0.0,0.0,0.0,0.0,0.0,0.0,0.0,0.0,0.0,0.0,0.0,0.0,0.0,0.0,0.0,0.0,0.0,0.0,-3.6851,-3.7347,-3.8024,-3.8357,-3.8253,-3.6661,-3.5407,0.0,0.0,0.0,0.0,0.0,0.0,0.0,0.0,0.0,0.0,0.0,0.0,0.0,0.0,0.0,0.0,0.0,0.0,0.0,0.0,0.0,0.0,0.0,0.0,0.0,0.0,0.0,0.0,0.0,0.0,0.0,0.0,0.0,0.0,0.0,0.0,0.0,0.0,0.0,0.0,0.0,0.0,0.0,0.0,0.0,0.0,0.0,0.0,0.0,0.0,0.0,0.0,0.0,0.0,0.0,0.0,0.0,0.0,0.0,0.0,0.0,0.0,0.0,0.0,0.0,0.0,0.0,0.0,0.0,0.0,0.0,0.0,0.0,0.0,0.0,0.0,0.0,0.0,0.0,0.0,0.0,0.0,0.0,0.0,0.0,0.0,0.0,0.0,0.0,0.0,0.0,0.0,0.0,0.0,0.0,0.0,0.0,0.0,0.0,0.0,0.0,0.0,0.0,0.0,0.0,0.0,0.0,0.0,-3.7434,-3.7564,-3.8114,-3.838,-3.8357,-3.7342,-3.6433,0.0,0.0,0.0,0.0,0.0,0.0,0.0,0.0,0.0,0.0,0.0,0.0,0.0,0.0,0.0,0.0,0.0,0.0,0.0,0.0,0.0,0.0,0.0,0.0,0.0,0.0,0.0,0.0,0.0,0.0,0.0,0.0,0.0,0.0,0.0,0.0,0.0,0.0,0.0,0.0,0.0,0.0,0.0,0.0,0.0,0.0,0.0,0.0,-3.1481,0.0,0.0,0.0,0.0,0.0,0.0,0.0,0.0,0.0,0.0,0.0,0.0,0.0,0.0,0.0,0.0,0.0,0.0,0.0,0.0,0.0,0.0,0.0,0.0,0.0,0.0,0.0,0.0,0.0,0.0,0.0,0.0,0.0,0.0,0.0,0.0,0.0,0.0,0.0,0.0,0.0,0.0,0.0,0.0,0.0,0.0,0.0,0.0,0.0,0.0,0.0,0.0,0.0,0.0,0.0,0.0,0.0,0.0,0.0,-3.843,-3.8703,-3.9318,-3.9641,-3.9525,-3.8402,-3.7386,0.0,0.0,0.0,0.0,0.0,0.0,0.0,0.0,0.0,0.0,0.0,0.0,0.0,0.0,0.0,0.0,0.0,0.0,0.0,0.0,0.0,0.0,0.0,0.0,0.0,0.0,0.0,0.0,0.0,0.0,0.0,0.0,0.0,0.0,0.0,0.0,0.0,0.0,0.0,0.0,0.0,0.0,0.0,0.0,0.0,0.0,0.0,0.0,0.0,0.0,0.0,0.0,0.0,0.0,0.0,0.0,0.0,0.0,0.0,0.0,0.0,0.0,0.0,0.0,0.0,0.0,0.0,0.0,0.0,0.0,0.0,0.0,0.0,0.0,0.0,0.0,0.0,0.0,0.0,0.0,0.0,0.0,0.0,0.0,0.0,0.0,0.0,0.0,0.0,0.0,0.0,0.0,0.0,0.0,0.0,0.0,0.0,0.0,0.0,0.0,0.0,0.0,0.0,0.0,0.0,0.0,0.0,-3.8467,-3.9382,-3.9961,-4.0701,-4.1047,-4.0918,-3.941,-3.8195,-3.7341,0.0,0.0,0.0,0.0,0.0,0.0,0.0,0.0,0.0,0.0,0.0,0.0,0.0,0.0,0.0,0.0,0.0,0.0,0.0,0.0,0.0,0.0,0.0,0.0,0.0,0.0,0.0,0.0,0.0,0.0,0.0,0.0,0.0,0.0,0.0,0.0,0.0,0.0,-3.2247,-3.2804,0.0,0.0,0.0,0.0,0.0,0.0,0.0,0.0,-3.2874,0.0,0.0,0.0,0.0,0.0,0.0,0.0,0.0,0.0,0.0,0.0,0.0,0.0,0.0,0.0,0.0,0.0,0.0,0.0,0.0,0.0,0.0,0.0,0.0,0.0,0.0,0.0,0.0,0.0,0.0,0.0,0.0,0.0,0.0,0.0,0.0,0.0,0.0,0.0,0.0,0.0,0.0,0.0,0.0,0.0,0.0,0.0,0.0,0.0,0.0,0.0,0.0,0.0,0.0,0.0,0.0,-3.8038,-3.8851,-3.9602,-4.0206,-4.0804,-4.1093,-4.1035,-3.9433,-3.8503,-3.8239,0.0,0.0,0.0,0.0,0.0,0.0,0.0,0.0,0.0,0.0,0.0,0.0,0.0,0.0,0.0,0.0,0.0,0.0,0.0,0.0,0.0,0.0,0.0,0.0,0.0,0.0,0.0,0.0,0.0,0.0,0.0,0.0,0.0,0.0,0.0,0.0,0.0,0.0,0.0,-3.3118,-3.3447,0.0,0.0,0.0,0.0,0.0,0.0,0.0,0.0,-3.3814,0.0,0.0,0.0,0.0,0.0,0.0,0.0,0.0,0.0,0.0,0.0,0.0,0.0,0.0,0.0,0.0,0.0,0.0,0.0,0.0,0.0,0.0,0.0,0.0,0.0,0.0,0.0,0.0,0.0,0.0,0.0,0.0,0.0,0.0,0.0,0.0,0.0,0.0,0.0,0.0,0.0,0.0,0.0,0.0,0.0,0.0,0.0,0.0,0.0,0.0,0.0,0.0,0.0,0.0,0.0,-3.8943,-3.9276,-3.9926,-4.092,-4.1161,-4.1198,-4.1117,-3.9962,-3.9098,0.0,0.0,0.0,0.0,0.0,0.0,0.0,0.0,0.0,0.0,0.0,0.0,0.0,0.0,0.0,0.0,0.0,0.0,0.0,0.0,0.0,0.0,0.0,0.0,0.0,0.0,0.0,0.0,0.0,0.0,0.0,0.0,0.0,0.0,0.0,0.0,0.0,0.0,0.0,0.0,-3.4197,-3.4865,-3.5252,0.0,0.0,0.0,0.0,0.0,0.0,-3.4952,-3.4584,0.0,0.0,0.0,0.0,0.0,0.0,0.0,0.0,0.0,0.0,0.0,0.0,0.0,0.0,0.0,0.0,0.0,0.0,0.0,0.0,0.0,0.0,0.0,0.0,0.0,0.0,0.0,0.0,0.0,0.0,0.0,0.0,0.0,0.0,0.0,0.0,0.0,0.0,0.0,0.0,0.0,0.0,0.0,0.0,0.0,0.0,0.0,0.0,0.0,0.0,0.0,0.0,0.0,0.0,0.0,-3.9669,-3.9651,-4.0228,-4.1578,-4.1515,-4.138,-4.1232,-4.0388,-3.9614,0.0,0.0,0.0,0.0,0.0,0.0,0.0,0.0,0.0,0.0,0.0,0.0,0.0,0.0,0.0,0.0,0.0,0.0,0.0,0.0,0.0,0.0,0.0,0.0,0.0,0.0,0.0,0.0,0.0,0.0,0.0,0.0,0.0,0.0,0.0,0.0,0.0,0.0,0.0,0.0,0.0,-3.629,-3.6609,-3.7194,0.0,0.0,0.0,0.0,-3.6606,-3.6094,0.0,0.0,0.0,0.0,0.0,0.0,0.0,0.0,0.0,0.0,0.0,0.0,0.0,0.0,0.0,0.0,0.0,0.0,0.0,0.0,0.0,0.0,0.0,0.0,0.0,0.0,0.0,0.0,0.0,0.0,0.0,0.0,0.0,0.0,0.0,0.0,0.0,0.0,0.0,0.0,0.0,0.0,0.0,0.0,0.0,0.0,0.0,0.0,0.0,0.0,0.0,0.0,0.0,0.0,0.0,0.0,-3.9786,-3.9811,-4.0415,-4.1709,-4.1648,-4.1515,-4.1346,-4.0523,-3.9747,0.0,0.0,0.0,0.0,0.0,0.0,0.0,0.0,0.0,0.0,0.0,0.0,0.0,0.0,0.0,0.0,0.0,0.0,0.0,0.0,0.0,0.0,0.0,0.0,0.0,0.0,0.0,0.0,0.0,0.0,0.0,0.0,0.0,0.0,0.0,0.0,0.0,0.0,0.0,0.0,0.0,-3.6881,-3.829,-3.8482,-3.869,0.0,0.0,-3.8963,-3.8325,-3.8148,0.0,0.0,0.0,0.0,0.0,0.0,0.0,0.0,0.0,0.0,0.0,0.0,0.0,0.0,0.0,0.0,0.0,0.0,0.0,0.0,0.0,0.0,0.0,0.0,0.0,0.0,0.0,0.0,0.0,0.0,0.0,0.0,0.0,0.0,0.0,0.0,0.0,0.0,0.0,0.0,0.0,0.0,0.0,0.0,0.0,0.0,0.0,0.0,0.0,0.0,0.0,0.0,0.0,0.0,0.0,-3.8277,-3.9938,-4.0376,-4.1217,-4.2597,-4.2472,-4.2339,-4.2294,-4.1763,-4.073,0.0,0.0,0.0,0.0,0.0,0.0,0.0,0.0,0.0,0.0,0.0,0.0,0.0,0.0,0.0,0.0,0.0,0.0,0.0,0.0,0.0,0.0,0.0,0.0,0.0,0.0,0.0,0.0,0.0,0.0,0.0,0.0,0.0,0.0,0.0,0.0,0.0,0.0,0.0,0.0,0.0,0.0,-3.9497,-3.9584,0.0,0.0,0.0,-3.9902,-3.958,0.0,0.0,0.0,0.0,0.0,0.0,0.0,0.0,0.0,0.0,0.0,0.0,0.0,0.0,0.0,0.0,0.0,0.0,0.0,0.0,0.0,0.0,0.0,0.0,0.0,0.0,0.0,0.0,0.0,0.0,0.0,0.0,0.0,0.0,0.0,0.0,0.0,0.0,0.0,0.0,0.0,0.0,0.0,0.0,0.0,0.0,0.0,0.0,0.0,0.0,0.0,0.0,0.0,0.0,0.0,0.0,0.0,-4.0104,-4.101,-4.2052,-4.3223,-4.3297,-4.3293,-4.3261,-4.2926,0.0,0.0,0.0,0.0,0.0,0.0,0.0,0.0,0.0,0.0,0.0,0.0,0.0,0.0,0.0,0.0,0.0,0.0,0.0,0.0,0.0,0.0,0.0,0.0,0.0,0.0,0.0,-3.0513,0.0,0.0,0.0,0.0,0.0,0.0,0.0,0.0,0.0,0.0,0.0,0.0,0.0,0.0,-3.9788,-4.06,-4.0653,-4.0706,0.0,0.0,-4.0794,-4.0614,-4.0578,-4.0327,0.0,0.0,0.0,0.0,0.0,0.0,0.0,0.0,0.0,0.0,0.0,0.0,0.0,0.0,0.0,0.0,0.0,0.0,0.0,0.0,0.0,0.0,0.0,0.0,0.0,0.0,0.0,0.0,0.0,0.0,0.0,0.0,0.0,0.0,0.0,0.0,0.0,0.0,0.0,0.0,0.0,0.0,0.0,0.0,0.0,0.0,0.0,0.0,0.0,0.0,0.0,0.0,0.0,0.0,-3.9464,-4.0217,-4.1665,-4.2685,-4.3316,-4.4005,-4.4285,-4.4024,-4.3366,-4.2489,0.0,0.0,0.0,0.0,0.0,0.0,0.0,0.0,0.0,0.0,0.0,0.0,0.0,0.0,0.0,0.0,0.0,0.0,0.0,0.0,0.0,0.0,0.0,0.0,0.0,0.0,0.0,0.0,0.0,0.0,0.0,0.0,0.0,0.0,0.0,0.0,0.0,0.0,0.0,0.0,0.0,-4.087,-4.1669,-4.1614,-4.1791,0.0,-4.2524,-4.2214,-4.1459,-4.1351,-4.1101,-4.0437,0.0,0.0,0.0,0.0,0.0,0.0,0.0,0.0,0.0,0.0,0.0,0.0,0.0,0.0,0.0,0.0,0.0,0.0,0.0,0.0,0.0,0.0,0.0,0.0,0.0,0.0,0.0,0.0,0.0,0.0,0.0,0.0,0.0,0.0,0.0,0.0,0.0,0.0,0.0,0.0,0.0,0.0,0.0,0.0,0.0,0.0,0.0,0.0,0.0,0.0,0.0,0.0,0.0,-4.0673,-4.177,-4.2769,-4.3832,-4.49,-4.5125,-4.5133,-4.5078,-4.4657,-4.3555,0.0,0.0,0.0,0.0,0.0,0.0,0.0,0.0,0.0,0.0,0.0,0.0,0.0,0.0,0.0,0.0,0.0,0.0,0.0,0.0,0.0,0.0,0.0,0.0,0.0,0.0,0.0,0.0,-3.3244,-3.3933,-3.48,0.0,0.0,0.0,0.0,0.0,0.0,0.0,0.0,0.0,0.0,-4.2522,-4.3324,-4.3796,0.0,0.0,-4.4464,-4.4336,-4.401,-4.3574,-4.2976,-4.2268,-4.1723,0.0,0.0,0.0,0.0,0.0,0.0,0.0,0.0,0.0,0.0,0.0,0.0,0.0,0.0,0.0,0.0,0.0,0.0,0.0,0.0,0.0,0.0,0.0,0.0,0.0,0.0,0.0,0.0,0.0,0.0,0.0,0.0,0.0,0.0,0.0,0.0,0.0,0.0,0.0,0.0,0.0,0.0,0.0,0.0,0.0,0.0,0.0,0.0,0.0,0.0,0.0,0.0,-4.1869,-4.2823,-4.3969,-4.4997,-4.5996,-4.6056,-4.6087,-4.6054,-4.5622,-4.4645,0.0,0.0,0.0,0.0,0.0,0.0,0.0,0.0,0.0,0.0,0.0,0.0,0.0,0.0,0.0,0.0,0.0,0.0,0.0,0.0,0.0,0.0,0.0,0.0,0.0,0.0,0.0,0.0,-3.4548,-3.5307,-3.624,0.0,0.0,0.0,0.0,0.0,0.0,0.0,0.0,0.0,0.0,-4.3889,-4.4693,-4.5258,-4.5585,-4.5585,-4.5585,-4.5585,-4.5585,-4.513,-4.4582,-4.3999,0.0,0.0,0.0,0.0,0.0,0.0,0.0,0.0,0.0,0.0,0.0,0.0,0.0,0.0,0.0,0.0,0.0,0.0,0.0,0.0,0.0,0.0,0.0,0.0,0.0,0.0,0.0,-4.0906,0.0,0.0,-4.0696,0.0,0.0,0.0,0.0,0.0,0.0,0.0,0.0,0.0,0.0,0.0,0.0,0.0,0.0,0.0,0.0,0.0,0.0,0.0,0.0,0.0,0.0,-4.3012,-4.2955,-4.5116,-4.6197,-4.609,-4.6784,-4.7066,-4.6801,-4.6102,-4.5595,-4.5351,0.0,0.0,0.0,0.0,0.0,0.0,0.0,0.0,0.0,0.0,0.0,0.0,0.0,0.0,0.0,0.0,0.0,0.0,0.0,0.0,0.0,0.0,0.0,0.0,0.0,0.0,-3.5652,-3.5794,-3.6313,0.0,0.0,0.0,0.0,0.0,0.0,0.0,0.0,0.0,-4.3387,-4.4106,-4.4839,-4.5663,-4.5697,-4.575,-4.5713,-4.5713,-4.5658,-4.5694,-4.5621,-4.5548,0.0,0.0,0.0,0.0,0.0,0.0,0.0,0.0,0.0,0.0,0.0,0.0,0.0,0.0,0.0,0.0,0.0,0.0,0.0,0.0,0.0,0.0,0.0,0.0,0.0,0.0,0.0,-4.2673,-4.2656,0.0,0.0,0.0,0.0,0.0,0.0,0.0,0.0,0.0,0.0,0.0,-4.5865,-4.6452,0.0,0.0,0.0,0.0,0.0,0.0,0.0,0.0,0.0,0.0,0.0,0.0,-4.4451,-4.5428,-4.653,-4.7306,-4.7817,-4.8484,-4.8765,-4.8567,-4.7783,-4.6788,-4.5515,0.0,0.0,0.0,0.0,0.0,0.0,0.0,0.0,0.0,0.0,0.0,0.0,0.0,0.0,0.0,0.0,0.0,0.0,0.0,0.0,0.0,0.0,0.0,0.0,0.0,-3.617,0.0,0.0,0.0,0.0,0.0,0.0,0.0,0.0,0.0,0.0,-4.2727,-4.3571,-4.4892,-4.5773,-4.6562,-4.7368,-4.7899,-4.8429,0.0,0.0,0.0,0.0,0.0,0.0,0.0,0.0,0.0,0.0,0.0,0.0,0.0,0.0,-4.3608,-4.1462,-4.1095,-4.1095,-4.1095,0.0,0.0,0.0,0.0,0.0,0.0,0.0,0.0,0.0,0.0,0.0,0.0,0.0,0.0,-4.5149,-4.5149,-4.5149,0.0,0.0,0.0,0.0,0.0,0.0,0.0,0.0,-4.7719,-4.8122,-4.8397,-4.893,-4.8893,0.0,-4.8397,-4.7149,0.0,0.0,0.0,0.0,0.0,0.0,0.0,0.0,-4.6224,-4.7203,-4.8052,-4.8721,-4.9183,-4.9577,-4.9716,-4.9541,-4.8744,-4.7568,-4.6079,-4.4259,-4.2902,0.0,0.0,0.0,0.0,0.0,0.0,0.0,0.0,0.0,0.0,0.0,0.0,0.0,0.0,0.0,0.0,0.0,0.0,0.0,0.0,0.0,0.0,0.0,-3.7881,0.0,0.0,0.0,0.0,0.0,0.0,0.0,0.0,0.0,-4.3938,-4.4158,-4.4929,-4.6507,-4.7186,-4.792,-4.9003,0.0,0.0,0.0,0.0,0.0,0.0,0.0,-4.9003,-4.847,-4.7976,-4.7609,-4.7609,-4.7388,-4.7205,-4.7168,0.0,0.0,-4.3204,-4.28,-4.2783,-4.2746,-4.2763,-4.2746,-4.2763,-4.2763,-4.2947,0.0,0.0,0.0,0.0,0.0,0.0,0.0,0.0,-4.8453,-4.8453,0.0,-4.8453,0.0,0.0,0.0,0.0,-4.8453,-4.8489,0.0,0.0,-4.9757,-5.0141,-5.0875,-5.0949,-5.0949,-5.0912,-5.0912,-5.0472,-4.9574,-4.7297,0.0,0.0,0.0,0.0,0.0,0.0,-4.828,-4.8334,-4.9607,-5.0257,-5.0148,-5.0073,-4.9925,-4.9752,-4.8954,-4.8051,-4.7079,-4.6216,-4.4623,-4.2264,-4.2051,0.0,0.0,0.0,0.0,0.0,0.0,0.0,0.0,0.0,0.0,0.0,0.0,0.0,0.0,0.0,0.0,0.0,0.0,0.0,0.0,-3.9711,0.0,0.0,0.0,0.0,0.0,0.0,0.0,0.0,0.0,-4.5736,-4.5112,-4.5553,-4.6581,-4.8159,0.0,0.0,0.0,0.0,-5.0839,-5.0912,-5.0875,-5.0875,-5.0839,-5.0839,-5.0802,-5.0765,0.0,0.0,-5.0765,-5.0141,-4.9574,-4.961,-4.8306,-4.6966,-4.6214,-4.5847,-4.5736,-4.5736,-4.5663,-4.5847,-4.5847,-4.5553,-4.5663,-5.5317,0.0,0.0,0.0,0.0,-5.1793,-5.1809,-5.183,-5.1773,-5.1793,-5.1793,-5.1773,0.0,0.0,0.0,0.0,0.0,0.0,-5.194,-5.2197,-5.2747,-5.3151,-5.3371,-5.3959,-5.3922,-5.3371,-5.3371,-5.2968,-5.2123,-5.0875,-4.937,-4.7645,0.0,0.0,0.0,0.0,-4.9907,-4.998,-5.0785,-5.1166,-5.1092,-5.1578,-5.1466,-5.0718,-5.0363,-4.9516,-4.8129,-4.7353,-4.6341,-4.5029,-4.3345,0.0,0.0,0.0,0.0,0.0,0.0,0.0,0.0,0.0,0.0,0.0,0.0,0.0,0.0,0.0,0.0,0.0,0.0,0.0,-4.0726,-4.1374,-4.2262,0.0,0.0,0.0,0.0,0.0,0.0,0.0,0.0,0.0,-4.9003,-4.8196,-4.8233,0.0,0.0,-5.0472,-5.1499,-5.1646,-5.1867,-5.2417,-5.2527,0.0,-5.172,-5.1646,-5.1463,-5.0912,-5.0802,-5.0802,-5.0802,-5.0618,-5.0435,-5.0472,-5.0068,-4.9664,-4.9334,-4.7425,-4.6067,-4.5883,-4.5883,-4.5883,-4.5883,-4.5883,-4.6104,-5.9795,-5.7593,-5.5831,-5.5097,-5.5133,-5.5097,-5.5097,-5.5097,-5.5097,-5.5097,-5.5133,-5.5133,-5.5097,-5.5097,-5.4803,0.0,0.0,0.0,-5.4656,-5.4634,-5.5464,-5.5831,-5.5868,-5.6014,-5.5831,-5.5354,-5.5023,-5.462,-5.4142,-5.3665,-5.2674,-5.1206,0.0,-5.0088,-5.0105,-5.1108,-5.1616,-5.169,-5.2608,-5.3105,-5.3016,-5.3094,-5.2835,-5.2203,-5.1427,-5.0541,-4.9568,-4.8421,-4.7463,-4.6672,-4.4967,-4.3888,0.0,0.0,0.0,0.0,0.0,0.0,0.0,0.0,0.0,0.0,0.0,-3.7998,-3.8953,0.0,0.0,0.0,-4.1669,-4.2414,-4.3287,-4.3506,0.0,0.0,0.0,0.0,0.0,0.0,0.0,-4.9224,-4.9738,-5.0508,-5.1573,-5.0875,-5.0508,-5.1206,-5.1279,-5.1683,-5.2784,0.0,-5.3225,-5.4032,-5.3885,-5.3518,-5.3004,-5.2674,-5.2307,-5.1867,-5.1756,-5.1756,-5.1756,-5.1756,-5.1756,-5.172,-5.1499,-5.1279,-5.1279,-4.937,-4.7829,-4.7829,-4.7829,-4.7829,-4.7865,-4.7865,-4.8012,-6.3796,-6.2743,-5.9832,-5.851,-5.84,-5.8364,-5.84,-5.8364,-5.84,-5.8364,-5.829,-5.8253,-5.8253,-5.8143,-5.7409,0.0,-5.6037,-5.6748,-5.7116,-5.7116,-5.785,-5.818,-5.8143,-5.7446,-5.7079,-5.7079,-5.6345,-5.5978,-5.5978,-5.5853,-5.5816,-5.5684,-5.2711,-5.1169,-5.1242,-5.2674,-5.3387,-5.3408,-5.473,-5.5418,-5.5359,-5.4497,-5.3958,-5.3885,-5.2226,-5.1279,-5.1076,-4.9591,-4.8407,-4.7651,-4.6787,-4.5996,-4.524,0.0,0.0,0.0,0.0,0.0,0.0,0.0,0.0,0.0,0.0,0.0,0.0,0.0,0.0,-4.2266,-4.3707,0.0,-4.5823,-4.6027,0.0,0.0,0.0,-4.7993,-4.961,-4.9867,-5.0198,-5.0986,0.0,0.0,-5.3203,-5.3408,-5.3115,-5.238,-5.227,-5.2821,-5.4289,-5.4436,-5.4766,-5.5412,-5.495,-5.4509,-5.4399,-5.3885,-5.3445,-5.3408,-5.3408,-5.3408,-5.3408,-5.3408,-5.3387,-5.3261,-5.2674,-5.216,-5.2123,-5.1389,-5.0986,-5.0912,-5.0765,-5.0692,-5.0582,-5.0545,-5.0508,-6.5448,-6.464,-6.3906,-6.2842,-6.1667,-6.1667,-6.1667,-6.1667,-6.1667,-6.1337,-6.075,-6.075,-6.0419,-5.9832,-5.9612,-5.9465,-5.9281,-5.9465,-5.9538,-5.9575,-5.9758,-5.9832,-5.9832,-5.9648,-5.9538,-5.9538,-5.9355,-5.9281,-5.9208,-5.7997,-5.7446,-5.7336,-5.5427,-5.4436,-5.4473,-5.484,-5.5023,-5.5023,-5.5368,-5.5507,-5.5395,-5.5076,-5.4583,-5.4,-5.3554,-5.2722,-5.1447,-5.1026,-5.0365,-4.948,-4.8121,-4.7295,-4.7197,-4.5715,0.0,0.0,0.0,0.0,0.0,0.0,0.0,0.0,0.0,-4.2212,-4.3451,0.0,-4.409,0.0,-4.5753,-4.6961,-4.835,-4.8595,0.0,0.0,-4.9901,-5.0325,-5.1316,-5.1977,-5.2674,-5.3445,-5.4069,-5.4604,-5.4987,-5.5023,-5.495,-5.4788,-5.473,-5.4876,-5.528,-5.5339,-5.5376,-5.5596,-5.5464,-5.5317,-5.528,-5.517,-5.4987,-5.5023,-5.5023,-5.5023,-5.5023,-5.5023,-5.484,-5.4252,-5.3959,-5.3592,-5.3041,-5.2747,-5.2637,-5.2564,-5.1646,-5.0802,-5.0802,-5.0839,-5.0839,-6.7834,-6.743,-6.743,-6.6916,-6.5962,-6.453,-6.3943,-6.3918,-6.3906,-6.3649,-6.3246,-6.3246,-6.2805,-6.2071,-6.2034,-6.1814,-6.152,-6.1887,-6.1851,-6.152,-6.1851,-6.1851,-6.1484,-6.1117,-6.0933,-6.0933,-6.0566,-6.0419,-6.0346,-5.9501,-5.9061,-5.9024,-5.818,-5.774,-5.7703,-5.6675,-5.6161,-5.6124,-5.6492,-5.6653,-5.6548,-5.6068,-5.5597,-5.5158,-5.4419,-5.3549,-5.2644,-5.1916,-5.1289,-5.0773,-4.9589,-4.894,-4.9003,-4.751,-4.662,0.0,0.0,0.0,0.0,0.0,0.0,0.0,0.0,0.0,0.0,0.0,-4.6614,-4.7802,-4.8373,-4.9182,-5.0428,-5.0635,-5.1132,-5.227,-5.2417,-5.2711,-5.3518,-5.3995,-5.4436,-5.4876,-5.5317,-5.5721,-5.6051,-5.6124,-5.6271,-5.6602,-5.6675,-5.6528,-5.6198,-5.6124,-5.6271,-5.6602,-5.6345,-5.5978,-5.5684,-5.5633,-5.5633,-5.5633,-5.5633,-5.5633,-5.5633,-5.5633,-5.5427,-5.5023,-5.4656,-5.4289,-5.3812,-5.3445,-5.3203,-5.3057,-5.2527,-5.194,-5.1867,-5.1867,-5.1867,-7.0183,-7.011,-7.011,-7.011,-6.9853,-6.71,-6.5925,-6.5925,-6.5925,-6.5815,-6.5595,-6.5411,-6.4897,-6.4237,-6.4237,-6.3833,-6.3184,-6.3906,-6.3833,-6.3184,-6.3906,-6.3833,-6.3099,-6.2401,-6.2071,-6.2034,-6.1263,-6.0896,-6.086,-6.0639,-6.0566,-6.0566,-6.0456,-6.0419,-6.0309,-5.8327,-5.7226,-5.7093,-5.7776,-5.8107,-5.7997,-5.7208,-5.6722,-5.6575,-5.5144,-5.431,-5.4164,-5.2718,-5.1916,-5.1857,-5.1055,-5.0566,-5.055,-4.9163,-4.836,0.0,-4.7144,0.0,0.0,0.0,0.0,0.0,0.0,0.0,0.0,-4.8323,-4.9481,-5.1132,-5.1279,-5.1573,-5.238,-5.2454,-5.3004,-5.4363,-5.4546,-5.4876,-5.5647,-5.5721,-5.5794,-5.589,-5.5926,-5.6198,-5.6859,-5.6969,-5.7226,-5.774,-5.785,-5.7629,-5.7116,-5.6969,-5.7189,-5.7923,-5.7409,-5.6748,-5.6198,-5.6,-5.5978,-5.5941,-5.6014,-5.5926,-5.6014,-5.5978,-5.5904,-5.5721,-5.5244,-5.4693,-5.4473,-5.3849,-5.3371,-5.3261,-5.3093,-5.3057,-5.3057,-5.3057,-5.3203,-7.0697,-7.011,-7.011,-7.011,-7.0036,-6.9449,-6.9192,-6.9192,-6.9192,-6.8458,-6.7136,-6.5888,-6.5228,-6.5081,-6.5081,-6.4971,-6.4835,-6.5007,-6.5007,-6.4861,-6.5007,-6.5007,-6.4798,-6.4677,-6.4604,-6.4567,-6.3796,-6.3392,-6.3356,-6.2034,-6.1374,-6.1337,-6.0713,-6.0419,-6.0382,0.0,0.0,0.0,-5.8891,-5.8657,-5.8033,-5.7827,-5.7423,-5.6777,-5.6424,0.0,-5.5153,-5.4239,-5.3661,-5.3521,-5.2149,0.0,0.0,0.0,0.0,0.0,0.0,0.0,0.0,0.0,0.0,0.0,-5.0708,-5.0635,-5.0158,-5.0839,-5.1977,-5.3555,-5.3739,-5.4032,-5.484,-5.4935,-5.5045,-5.5317,-5.5354,-5.5684,-5.6455,-5.6602,-5.6822,-5.7446,-5.7519,-5.7593,-5.7776,-5.7776,-5.785,-5.7997,-5.7997,-5.7923,-5.7776,-5.774,-5.7813,-5.796,-5.7813,-5.7703,-5.7556,-5.7483,-5.7373,-5.7519,-5.7556,-5.7483,-5.7446,-5.7446,-5.7262,-5.6712,-5.6455,-5.5868,-5.4693,-5.4252,-5.3922,-5.3314,-5.3203,-5.3203,-5.3203,-5.3203,-5.3203,-7.1651,-7.1284,-7.1284,-7.1284,0.0,-7.1284,-7.1284,-7.1211,-7.044,-6.9633,-6.8825,-6.8054,-6.7467,-6.71,-6.71,-6.688,-6.6476,-6.6476,-6.6256,-6.5888,-6.5888,-6.5668,-6.5338,-6.5338,-6.5338,-6.5301,-6.4897,-6.4677,-6.464,-6.3833,-6.3209,-6.2805,-6.2401,-6.2034,-6.163,-6.1594,-6.1006,-5.9808,-5.9771,-5.9428,-5.8657,-5.8584,-5.8217,-5.7446,-5.7005,0.0,0.0,0.0,0.0,0.0,0.0,0.0,0.0,-5.2333,0.0,-5.1389,-5.1022,-5.1169,-5.1903,-5.1977,-5.2344,-5.3115,-5.3555,-5.3408,-5.2637,-5.3335,-5.4106,-5.4876,-5.4987,-5.5317,-5.6124,-5.6565,-5.6932,-5.7336,-5.774,-5.8143,-5.851,-5.8584,-5.8731,-5.9098,-5.9171,-5.9171,-5.9171,-5.9171,-5.9024,-5.8657,-5.8584,-5.8474,-5.807,-5.7997,-5.7997,-5.7997,-5.7997,-5.796,-5.7997,-5.7997,-5.7997,-5.796,-5.7997,-5.7997,-5.7997,-5.7997,-5.785,-5.7446,-5.7079,-5.6381,-5.528,-5.4693,-5.4142,-5.3445,-5.3203,-5.3203,-5.3203,-5.3203,-5.3203,-7.2532,-7.2532,-7.2532,-7.2532,-7.2532,-7.2532,-7.2532,-7.2422,-7.0917,0.0,0.0,-7.0183,-6.9743,-6.9119,-6.9119,-6.8678,-6.7907,-6.7907,-6.7467,-6.6733,-6.6696,-6.6366,-6.5742,-6.5742,-6.5705,-6.5742,-6.5595,-6.5521,-6.5521,-6.5375,-6.4971,-6.4347,-6.431,-6.387,-6.3099,-6.3025,-6.2291,-6.0896,-6.0676,-6.0236,-5.9441,-5.9258,-5.8891,-5.8253,-5.7446,-5.7005,-5.7005,-5.6235,-5.5816,-5.5794,-5.5684,-5.5339,-5.4656,-5.3995,-5.3335,-5.2637,-5.2013,-5.2234,-5.3518,-5.3607,-5.4252,-5.5721,-5.5794,-5.5537,-5.4876,-5.5427,-5.5941,-5.6198,-5.6235,-5.6565,-5.7373,-5.8033,-5.8694,-5.9331,-6.0015,-6.0382,-6.0382,-6.0419,-6.0309,-6.0419,-6.0309,-6.0382,-6.0346,-6.0309,-6.0162,-5.9612,-5.9404,-5.9134,-5.84,-5.8107,-5.7997,-5.7997,-5.7997,-5.7997,-5.7997,-5.7997,-5.7997,-5.7997,-5.7997,-5.7997,-5.7997,-5.7997,-5.7997,-5.7923,-5.7409,-5.6785,-5.5978,-5.5207,-5.4363,-5.357,-5.3298,-5.3203,-5.3203,-5.3203,-5.3203,-7.2532,-7.2532,-7.2532,-7.2532,-7.2532,-7.2532,-7.2532,-7.2422,-7.1541,-7.1138,-7.1101,-7.0403,-7.0036,-6.9926,-6.9926,-6.9486,-6.8752,-6.8752,-6.8311,-6.754,-6.7504,-6.7467,-6.7357,-6.7357,-6.7357,-6.7283,-6.6659,-6.6329,-6.6256,-6.5668,-6.5264,-6.5154,-6.5118,-6.4714,-6.398,-6.3906,-6.3429,-6.2475,-6.1777,-6.1043,-6.0272,-5.9551,-5.9148,-5.9024,-5.8253,-5.7813,-5.7813,-5.7079,-5.6638,-5.6602,-5.5941,-5.5537,-5.5427,-5.528,-5.5207,-5.5119,-5.4987,-5.5045,-5.5207,-5.5265,-5.5647,-5.6528,-5.6638,-5.6602,-5.6492,-5.6565,-5.7189,-5.8487,-5.8621,-5.9001,-5.9795,-5.9942,-6.0089,-6.0236,-6.0346,-6.0419,-6.0493,-6.0493,-6.0529,-6.0529,-6.0419,-6.0456,-6.0566,-6.0529,-6.0493,-6.0272,-6.0162,-5.9905,-5.9148,-5.8437,-5.8033,-5.7997,-5.7997,-5.7997,-5.7997,-5.7997,-5.7997,-5.7997,-5.7997,-5.7997,-5.7997,-5.7997,-5.7997,-5.7997,-5.785,-5.7483,-5.6712,-5.5978,-5.5097,-5.4289,-5.3665,-5.3203,-5.3203,-5.3203,-5.3203,-7.2532,-7.2532,-7.2532,-7.2532,-7.2532,-7.2532,-7.2532,-7.2459,-7.2129,-7.1982,-7.1908,-7.1541,-7.1174,-7.077,-7.077,-7.033,-6.9559,-6.9559,-6.9339,-6.8972,-6.8531,-6.8348,-6.8311,-6.7907,-6.7687,-6.765,-6.732,-6.7136,-6.71,-6.6769,-6.6366,-6.5962,-6.5521,-6.5118,-6.4787,-6.4751,-6.4347,-6.3503,-6.2658,-6.1851,-6.108,-6.0676,-6.0309,-5.9869,-5.9061,-5.8657,-5.8657,-5.7886,-5.7446,-5.7446,-5.7116,-5.6712,-5.6271,-5.6235,-5.6051,-5.5647,-5.5633,-5.5794,-5.6235,-5.6638,-5.7079,-5.7409,-5.7886,-5.8107,-5.8084,-5.8084,-5.8584,-5.9722,-5.9869,-6.0015,-6.0382,-6.0786,-6.1043,-6.1043,-6.141,-6.1704,-6.1679,-6.1704,-6.1679,-6.1679,-6.1704,-6.1704,-6.1679,-6.1679,-6.1484,-6.1153,-6.075,-6.0272,-5.9881,-5.9538,-5.8951,-5.818,-5.7997,-5.7997,-5.7997,-5.7997,-5.7997,-5.7997,-5.7997,-5.7997,-5.7997,-5.7997,-5.7997,-5.7997,-5.7997,-5.7666,-5.6969,-5.6124,-5.5354,-5.4546,-5.3775,-5.3277,-5.3203,-5.3203,-5.3203,-7.2606,-7.2753,-7.2789,-7.2863,-7.3046,-7.3046,-7.2936,-7.2789,-7.2789,-7.2679,-7.2532,-7.2532,-7.2165,-7.1586,-7.1578,-7.1138,-7.044,-7.0367,-7.0293,-7.0036,-6.9486,-6.9192,-6.9119,-6.8495,-6.8265,-6.8238,-6.8238,-6.8238,-6.8201,-6.8054,-6.754,-6.6806,-6.6145,-6.5742,-6.5595,-6.5558,-6.5191,-6.4383,-6.3723,-6.2879,-6.1924,-6.1704,-6.13,-6.0676,-5.9905,-5.9441,-5.9404,-5.8877,-5.8474,-5.829,-5.8253,-5.7886,-5.7152,-5.7079,-5.6785,-5.6235,-5.6124,-5.6418,-5.7042,-5.7813,-5.829,-5.829,-5.9024,-5.9515,-5.9722,-5.9758,-6.0015,-6.0566,-6.0676,-6.075,-6.1043,-6.1484,-6.1851,-6.1887,-6.2401,-6.2695,-6.2805,-6.2805,-6.2805,-6.2805,-6.2805,-6.2768,-6.2805,-6.2805,-6.2511,-6.1887,-6.1337,-6.0933,-6.075,-6.0676,-6.0052,-5.8988,-5.84,-5.818,-5.807,-5.7997,-5.7997,-5.7997,-5.7997,-5.7997,-5.7997,-5.7997,-5.7997,-5.7997,-5.7997,-5.7776,-5.7189,-5.6455,-5.5684,-5.4913,-5.4142,-5.3482,-5.324,-5.3203,-5.3203,-7.2936,-7.356,-7.3597,-7.4001,-7.4625,-7.4661,-7.4221,-7.3634,-7.3597,-7.3156,-7.2642,-7.2532,-7.2459,-7.2386,-7.2349,-7.1908,-7.1211,-7.1211,-7.0807,-7.022,-7.0036,-7.0,-7.0,-6.9889,-6.9853,-6.9816,-6.9779,-6.9743,-6.9669,-6.9119,-6.8385,-6.765,-6.7504,-6.71,-6.6476,-6.6366,-6.5999,-6.5228,-6.5118,-6.431,-6.2768,-6.1961,-6.1557,-6.1484,-6.0713,-6.0272,-6.0309,-6.0199,-5.9832,-5.9148,-5.9098,-5.8731,-5.8033,-5.7886,-5.785,-5.7776,-5.7776,-5.7813,-5.7923,-5.8634,-5.9074,-5.9148,-5.9845,-6.0542,-6.1202,-6.1337,-6.1374,-6.1484,-6.1484,-6.1777,-6.2475,-6.2622,-6.2622,-6.2585,-6.2732,-6.2805,-6.2805,-6.2805,-6.2805,-6.2805,-6.2805,-6.2805,-6.2805,-6.2805,-6.2768,-6.2622,-6.2438,-6.2108,-6.163,-6.1484,-6.119,-6.0272,-5.9612,-5.8841,-5.829,-5.7997,-5.807,-5.8033,-5.7997,-5.7997,-5.7997,-5.7997,-5.7997,-5.7997,-5.7997,-5.7886,-5.774,-5.7226,-5.6381,-5.5427,-5.4656,-5.3995,-5.3424,-5.3203,-5.3203,-7.4111,-7.4404,-7.4404,-7.4588,-7.4882,-7.4888,-7.4735,-7.4441,-7.4404,-7.4221,-7.3891,-7.3413,-7.2973,-7.2532,-7.2532,-7.2312,-7.2018,-7.2018,-7.1835,-7.1468,-7.1027,-7.0844,-7.077,-7.0293,-7.011,-7.011,-7.011,-7.011,-7.0036,-6.9743,-6.9192,-6.8495,-6.8421,-6.8017,-6.7283,-6.721,-6.6806,-6.6035,-6.6035,-6.5448,-6.4347,-6.3503,-6.2842,-6.2291,-6.1557,-6.1117,-6.1043,-6.0676,-6.0272,-5.9942,-5.9942,-5.9758,-5.9428,-5.9428,-5.9428,-5.9428,-5.9428,-5.9368,-5.9273,-5.9602,-5.9737,-5.97,-6.0395,-6.1017,-6.1309,-6.1784,-6.2077,-6.2102,-6.2192,-6.2475,-6.2743,-6.2805,-6.2805,-6.2805,-6.2805,-6.2805,-6.2805,-6.2805,-6.2805,-6.2805,-6.2805,-6.2805,-6.2805,-6.2805,-6.2805,-6.2805,-6.2805,-6.2622,-6.2328,-6.2291,-6.1961,-6.13,-6.0823,-6.0089,-5.9061,-5.8694,-5.851,-5.8143,-5.7997,-5.7997,-5.7997,-5.7997,-5.7997,-5.7997,-5.7997,-5.7997,-5.796,-5.7336,-5.6565,-5.5684,-5.4473,-5.3555,-5.324,-5.3203,-5.3203,-7.5065,-7.5249,-7.5469,-7.5549,-7.5579,-7.5549,-7.5432,-7.5249,-7.5249,-7.5102,-7.4845,-7.4294,-7.3707,-7.3156,-7.2716,-7.2532,-7.2532,-7.2532,-7.2532,-7.2459,-7.1908,-7.1651,-7.1578,-7.1064,-7.077,-7.077,-7.0807,-7.066,-7.0477,-7.044,-7.0036,-6.9339,-6.9229,-6.8825,-6.8091,-6.8017,-6.7614,-6.6916,-6.6806,-6.6439,-6.5668,-6.5081,-6.4237,-6.3246,-6.2585,-6.2181,-6.1924,-6.1374,-6.097,-6.075,-6.0713,-6.0603,-6.0419,-6.0419,-6.0419,-6.0419,-6.0334,-6.0286,-6.0225,-6.0383,-6.0418,-6.0427,-6.1084,-6.1521,-6.1631,-6.2068,-6.2397,-6.2397,-6.2578,-6.2643,-6.2679,-6.2679,-6.2705,-6.273,-6.273,-6.2755,-6.278,-6.2805,-6.2805,-6.2805,-6.2805,-6.2805,-6.2805,-6.2805,-6.2805,-6.2805,-6.2805,-6.2805,-6.2805,-6.2768,-6.2548,-6.2034,-6.1924,-6.1227,-5.9869,-5.9281,-5.8951,-5.8547,-5.8253,-5.7997,-5.7997,-5.7997,-5.7997,-5.7997,-5.7997,-5.7997,-5.7997,-5.7409,-5.6712,-5.5684,-5.4546,-5.3482,-5.3261,-5.3203,-5.3203,-7.5359,-7.613,-7.6833,-7.709,-7.7163,-7.709,-7.6717,-7.6056,-7.6056,-7.5652,-7.5065,-7.4918,-7.4845,-7.4661,-7.3303,-7.2532,-7.2569,-7.2642,-7.2606,-7.2569,-7.2496,-7.2459,-7.2459,-7.2422,-7.2349,-7.2202,-7.2165,-7.1872,-7.1284,-7.1248,-7.0844,-7.0073,-7.0036,-6.9633,-6.8935,-6.8788,-6.8458,-6.7724,-6.7577,-6.7247,-6.6549,-6.6402,-6.5595,-6.4237,-6.4005,-6.3503,-6.2817,-6.2707,-6.2328,-6.1557,-6.1557,-6.1227,-6.0566,-6.0456,-6.0505,-6.0469,-6.0372,-6.0262,-6.0383,-6.0832,-6.1157,-6.1204,-6.1761,-6.2298,-6.2198,-6.2308,-6.2381,-6.237,-6.237,-6.2433,-6.2433,-6.2423,-6.2475,-6.2603,-6.2629,-6.2679,-6.278,-6.278,-6.2805,-6.2805,-6.2805,-6.2805,-6.2805,-6.2805,-6.2805,-6.2805,-6.2805,-6.2805,-6.2805,-6.2805,-6.2732,-6.2695,-6.2585,-6.2181,-6.0676,-5.9832,-5.9368,-5.8854,-5.84,-5.7997,-5.7997,-5.7997,-5.7997,-5.7997,-5.7997,-5.7997,-5.7997,-5.7629,-5.7005,-5.6088,-5.4987,-5.4106,-5.3592,-5.3277,-5.3203,-7.6576,-7.687,-7.7163,-7.731,-7.731,-7.731,-7.709,-7.69,-7.69,-7.6686,-7.6356,-7.5909,-7.5652,-7.5616,-7.4551,-7.4037,-7.4037,-7.4037,-7.378,-7.334,-7.3266,-7.301,-7.2532,-7.2532,-7.2532,-7.2532,-7.2496,-7.2349,-7.2129,-7.2055,-7.1688,-7.0991,-7.0881,-7.0477,-6.9743,-6.9155,-6.8752,-6.8458,-6.7981,-6.754,-6.7283,-6.7283,-6.6733,-6.5668,-6.4604,-6.3943,-6.3649,-6.3099,-6.2658,-6.2365,-6.2365,-6.2254,-6.1973,-6.185,-6.18,-6.1775,-6.1649,-6.1584,-6.1506,-6.1709,-6.1812,-6.1732,-6.196,-6.2141,-6.2141,-6.2141,-6.2141,-6.2141,-6.2141,-6.2141,-6.2168,-6.2301,-6.2397,-6.2449,-6.2552,-6.2603,-6.2679,-6.273,-6.2805,-6.2805,-6.2805,-6.2805,-6.2805,-6.2805,-6.2805,-6.2805,-6.2805,-6.2805,-6.2805,-6.2805,-6.2805,-6.2805,-6.2805,-6.2597,-6.2156,-6.0786,-5.9832,-5.9148,-5.8621,-5.818,-5.7997,-5.7997,-5.7997,-5.7997,-5.7997,-5.7997,-5.796,-5.7593,-5.7042,-5.6565,-5.5464,-5.4693,-5.4069,-5.3665,-5.335,-7.731,-7.731,-7.731,-7.731,-7.731,-7.731,-7.731,-7.731,-7.731,-7.731,-7.7163,-7.6717,-7.6497,-7.6423,-7.5909,-7.5689,-7.5616,-7.5175,-7.4625,-7.4111,-7.4074,-7.3817,-7.3377,-7.3266,-7.3156,-7.2899,-7.2606,-7.2532,-7.2532,-7.2532,-7.2239,-7.1696,-7.1688,-7.1284,-7.0513,-6.9926,-6.9486,-6.8935,-6.8348,-6.7981,-6.776,-6.7687,-6.743,-6.6769,-6.5558,-6.4567,-6.4127,-6.3539,-6.3062,-6.2842,-6.2805,-6.278,-6.273,-6.2654,-6.2578,-6.2526,-6.2397,-6.2291,-6.2185,-6.2168,-6.2051,-6.195,-6.1959,-6.1923,-6.1904,-6.1904,-6.1868,-6.1868,-6.1868,-6.1904,-6.195,-6.2114,-6.2248,-6.2328,-6.2423,-6.2526,-6.2603,-6.2679,-6.273,-6.278,-6.2805,-6.2805,-6.2805,-6.2805,-6.2805,-6.2805,-6.2805,-6.2805,-6.2805,-6.2805,-6.2805,-6.2805,-6.2805,-6.2805,-6.2475,-6.1484,-6.0493,-5.9795,-5.8964,-5.8474,-5.7997,-5.7997,-5.7997,-5.7997,-5.7997,-5.7997,-5.7813,-5.7483,-5.7152,-5.6859,-5.6235,-5.5464,-5.473,-5.3995,-5.3665,-7.731,-7.731,-7.731,-7.731,-7.731,-7.731,-7.731,-7.731,-7.731,-7.731,-7.7273,-7.7237,-7.7163,-7.72,-7.7053,-7.7163,-7.6833,-7.5763,-7.5065,-7.4918,-7.4918,-7.4882,-7.4698,-7.4661,-7.4294,-7.367,-7.2936,-7.2569,-7.2642,-7.2569,-7.2459,-7.2459,-7.2386,-7.2018,-7.1321,-7.1138,-7.044,-6.9376,-6.8935,-6.8495,-6.7797,-6.7724,-6.7677,-6.754,-6.6806,-6.5742,-6.4273,-6.409,-6.3649,-6.2989,-6.2842,-6.273,-6.2629,-6.2578,-6.2526,-6.2433,-6.2301,-6.2185,-6.2195,-6.206,-6.1959,-6.1848,-6.1784,-6.1728,-6.168,-6.1651,-6.1651,-6.1651,-6.1615,-6.1644,-6.1756,-6.184,-6.195,-6.2132,-6.2212,-6.2344,-6.25,-6.2603,-6.2654,-6.2755,-6.2805,-6.2805,-6.2805,-6.2805,-6.2805,-6.2805,-6.2805,-6.2805,-6.2805,-6.2805,-6.2805,-6.2805,-6.2805,-6.2805,-6.2548,-6.2108,-6.13,-6.0493,-5.9612,-5.8854,-5.8217,-5.7997,-5.7997,-5.7997,-5.7997,-5.7997,-5.7997,-5.7666,-5.7519,-5.7189,-5.6638,-5.6051,-5.517,-5.4399,-5.3849,-7.731,-7.731,-7.731,-7.731,-7.731,-7.731,-7.731,-7.731,-7.731,-7.731,-7.731,-7.731,-7.731,-7.731,-7.731,-7.731,-7.7237,-7.6723,-7.6246,-7.5799,-7.5726,-7.5432,-7.5028,-7.4888,-7.4771,-7.4441,-7.3707,-7.3303,-7.323,-7.2789,-7.2532,-7.2532,-7.2532,-7.2386,-7.2092,-7.1586,-7.0962,-7.0485,-6.9449,-6.8752,-6.8458,-6.7981,-6.7687,-6.765,-6.743,-6.6806,-6.5778,-6.4714,-6.398,-6.3649,-6.3135,-6.273,-6.2603,-6.2423,-6.2328,-6.2238,-6.2141,-6.2005,-6.1923,-6.1895,-6.182,-6.1672,-6.168,-6.1651,-6.1623,-6.1559,-6.1559,-6.1559,-6.1587,-6.1651,-6.168,-6.1728,-6.1868,-6.2033,-6.2105,-6.2248,-6.2344,-6.25,-6.2654,-6.2755,-6.2805,-6.2805,-6.2805,-6.2805,-6.2805,-6.2805,-6.2805,-6.2805,-6.2805,-6.2805,-6.2805,-6.2805,-6.2805,-6.2805,-6.2622,-6.2328,-6.1704,-6.0786,-5.9905,-5.8964,-5.8364,-5.7997,-5.7997,-5.7997,-5.7997,-5.7997,-5.7997,-5.7886,-5.774,-5.7556,-5.7116,-5.6345,-5.5464,-5.4803,-5.4289,-7.731,-7.731,-7.731,-7.731,-7.731,-7.731,-7.731,-7.731,-7.731,-7.731,-7.731,-7.731,-7.731,-7.731,-7.731,-7.731,-7.731,-7.731,-7.7047,-7.6607,-7.657,-7.6276,-7.5763,-7.5469,-7.5359,-7.5212,-7.4551,-7.3964,-7.367,-7.3193,-7.2789,-7.2569,-7.2532,-7.2496,-7.2496,-7.2018,-7.1623,-7.1183,-7.033,-6.9522,-6.8935,-6.8421,-6.8017,-6.7724,-6.7687,-6.743,-6.688,-6.5668,-6.4714,-6.409,-6.3232,-6.2665,-6.2475,-6.2291,-6.2158,-6.2114,-6.2005,-6.1868,-6.182,-6.1764,-6.168,-6.153,-6.1473,-6.1444,-6.1415,-6.1386,-6.1386,-6.1386,-6.1422,-6.1415,-6.1509,-6.1651,-6.1792,-6.1895,-6.2033,-6.2168,-6.2238,-6.2475,-6.2654,-6.2755,-6.2805,-6.2805,-6.2805,-6.2805,-6.2805,-6.2805,-6.2805,-6.2805,-6.2805,-6.2805,-6.2805,-6.2805,-6.2805,-6.2805,-6.2805,-6.2475,-6.2034,-6.108,-6.0065,-5.9134,-5.8327,-5.807,-5.7997,-5.7997,-5.7997,-5.7997,-5.7997,-5.7997,-5.785,-5.7666,-5.7483,-5.6969,-5.6235,-5.5427,-5.484,-7.731,-7.731,-7.731,-7.731,-7.731,-7.731,-7.731,-7.731,-7.731,-7.731,-7.731,-7.731,-7.731,-7.731,-7.731,-7.731,-7.731,-7.7273,-7.7273,-7.72,-7.72,-7.709,-7.6943,-7.6423,-7.6166,-7.6056,-7.5359,-7.4661,-7.4111,-7.3707,-7.334,-7.2716,-7.2569,-7.2532,-7.2496,-7.2496,-7.2092,-7.1513,-7.1256,-7.044,-6.9119,-6.8862,-6.8495,-6.7724,-6.7687,-6.765,-6.7467,-6.6669,-6.5569,-6.4211,-6.3203,-6.2595,-6.2275,-6.2185,-6.2114,-6.1978,-6.1876,-6.182,-6.1728,-6.1615,-6.1501,-6.1328,-6.1299,-6.1241,-6.1152,-6.1152,-6.1152,-6.1152,-6.1152,-6.1182,-6.1328,-6.1537,-6.168,-6.1784,-6.195,-6.2114,-6.2344,-6.25,-6.2629,-6.2755,-6.2805,-6.2805,-6.2805,-6.2805,-6.2805,-6.2805,-6.2805,-6.2805,-6.2805,-6.2805,-6.2805,-6.2805,-6.2805,-6.2805,-6.2805,-6.2732,-6.2291,-6.1374,-6.0346,-5.9355,-5.8437,-5.8107,-5.7997,-5.7997,-5.7997,-5.7997,-5.7997,-5.7997,-5.7997,-5.7886,-5.7703,-5.7519,-5.6895,-5.5978,-5.5133,-7.731,-7.731,-7.731,-7.731,-7.731,-7.731,-7.731,-7.731,-7.731,-7.731,-7.731,-7.731,-7.731,-7.731,-7.731,-7.731,-7.731,-7.731,-7.731,-7.731,-7.731,-7.731,-7.7273,-7.709,-7.6974,-7.6827,-7.6166,-7.5652,-7.5359,-7.4331,-7.3634,-7.3377,-7.2789,-7.2532,-7.2532,-7.2532,-7.2422,-7.2129,-7.155,-7.0881,-6.9889,-6.9192,-6.8495,-6.776,-6.7714,-6.7687,-6.7614,-6.6773,-6.5547,-6.402,-6.3481,-6.2847,-6.2304,-6.2069,-6.1968,-6.184,-6.1736,-6.1559,-6.1473,-6.1415,-6.1299,-6.1182,-6.1182,-6.1123,-6.1093,-6.1093,-6.1093,-6.1093,-6.1093,-6.1152,-6.1299,-6.1473,-6.1708,-6.1895,-6.1978,-6.2114,-6.2354,-6.2459,-6.2563,-6.273,-6.278,-6.2805,-6.2805,-6.2805,-6.2805,-6.2805,-6.2805,-6.2805,-6.2805,-6.2805,-6.2805,-6.2805,-6.2805,-6.2805,-6.2805,-6.2805,-6.2438,-6.163,-6.0639,-5.9575,-5.8694,-5.8033,-5.7997,-5.7997,-5.7997,-5.7997,-5.7997,-5.7997,-5.7997,-5.7997,-5.7886,-5.7703,-5.6969,-5.6124,-5.5354,-7.731,-7.731,-7.731,-7.731,-7.731,-7.731,-7.731,-7.731,-7.731,-7.731,-7.731,-7.731,-7.731,-7.731,-7.731,-7.731,-7.731,-7.731,-7.731,-7.731,-7.731,-7.731,-7.7273,-7.731,-7.731,-7.7237,-7.6864,-7.6423,-7.5983,-7.5102,-7.4404,-7.3707,-7.323,-7.2863,-7.2532,-7.2532,-7.2532,-7.2422,-7.2018,-7.1431,-7.0624,-6.9816,-6.9045,-6.8274,-6.7907,-6.7687,-6.7533,-6.6912,-6.5925,-6.484,-6.4194,-6.3511,-6.2649,-6.2402,-6.2117,-6.1808,-6.1595,-6.1415,-6.1328,-6.127,-6.1182,-6.1123,-6.1093,-6.1093,-6.1093,-6.1093,-6.1093,-6.1093,-6.1152,-6.1211,-6.1328,-6.153,-6.1756,-6.195,-6.2033,-6.2168,-6.2407,-6.2449,-6.2578,-6.273,-6.2805,-6.2805,-6.2805,-6.2805,-6.2805,-6.2805,-6.2805,-6.2805,-6.2805,-6.2805,-6.2805,-6.2805,-6.2805,-6.2805,-6.2805,-6.2805,-6.2365,-6.1594,-6.0639,-5.9612,-5.8731,-5.7997,-5.7997,-5.7997,-5.7997,-5.7997,-5.7997,-5.7997,-5.7997,-5.7997,-5.7997,-5.7813,-5.7189,-5.6492,-5.5721,-7.731,-7.731,-7.731,-7.731,-7.731,-7.731,-7.731,-7.731,-7.731,-7.731,-7.731,-7.731,-7.731,-7.731,-7.731,-7.731,-7.731,-7.731,-7.731,-7.731,-7.731,-7.731,-7.731,-7.731,-7.731,-7.7273,-7.7273,-7.687,-7.6387,-7.613,-7.5249,-7.4184,-7.378,-7.323,-7.2679,-7.2532,-7.2532,-7.2532,-7.2459,-7.1945,-7.1174,-7.0367,-6.9559,-6.8788,-6.799,-6.7588,-6.7414,-6.7081,-6.6547,-6.5872,-6.5109,-6.417,-6.3292,-6.312,-6.2609,-6.1954,-6.1637,-6.1478,-6.127,-6.1152,-6.1093,-6.1093,-6.1093,-6.1093,-6.1093,-6.1093,-6.1093,-6.1152,-6.1241,-6.1328,-6.1444,-6.1644,-6.1868,-6.2033,-6.2141,-6.2301,-6.2433,-6.2526,-6.2654,-6.2755,-6.2805,-6.2805,-6.2805,-6.2805,-6.2805,-6.2805,-6.2805,-6.2805,-6.2805,-6.2805,-6.2805,-6.2805,-6.2805,-6.2805,-6.2805,-6.2805,-6.2181,-6.1447,-6.0493,-5.9501,-5.8547,-5.7997,-5.7997,-5.7997,-5.7997,-5.7997,-5.7997,-5.7997,-5.7997,-5.7997,-5.7997,-5.7997,-5.7813,-5.7005,-5.6198,-7.731,-7.731,-7.731,-7.731,-7.731,-7.731,-7.731,-7.731,-7.731,-7.731,-7.731,-7.731,-7.731,-7.731,-7.731,-7.731,-7.731,-7.731,-7.731,-7.731,-7.731,-7.731,-7.731,-7.731,-7.731,-7.731,-7.731,-7.7163,-7.6907,-7.6387,-7.5616,-7.4771,-7.4037,-7.3303,-7.2679,-7.2532,-7.2532,-7.2532,-7.2532,-7.2129,-7.1394,-7.0587,-6.9779,-6.8908,-6.8019,-6.7423,-6.7162,-6.7011,-6.6794,-6.6263,-6.559,-6.4737,-6.4,-6.368,-6.3167,-6.2504,-6.2171,-6.1831,-6.1331,-6.1266,-6.1129,-6.1165,-6.12,-6.1093,-6.1093,-6.1093,-6.1152,-6.1205,-6.1299,-6.1444,-6.1644,-6.184,-6.2005,-6.2141,-6.2275,-6.2397,-6.2526,-6.2578,-6.2679,-6.2755,-6.2805,-6.2805,-6.2805,-6.2805,-6.2805,-6.2805,-6.2805,-6.2805,-6.2805,-6.2805,-6.2805,-6.2805,-6.2805,-6.2805,-6.2805,-6.2695,-6.2071,-6.1374,-6.0456,-5.9391,-5.8437,-5.7997,-5.7997,-5.7997,-5.7997,-5.7997,-5.7997,-5.7997,-5.7997,-5.7997,-5.7997,-5.7997,-5.7813,-5.7189,-5.6712,-7.731,-7.731,-7.731,-7.731,-7.731,-7.731,-7.731,-7.731,-7.731,-7.731,-7.731,-7.731,-7.731,-7.731,-7.731,-7.731,-7.731,-7.731,-7.731,-7.731,-7.731,-7.731,-7.731,-7.731,-7.731,-7.731,-7.731,-7.731,-7.7127,-7.6833,-7.6276,-7.5469,-7.4625,-7.3927,-7.3083,-7.2679,-7.2532,-7.2532,-7.2496,-7.2275,-7.1798,-7.1101,-6.9981,-6.8898,-6.7881,-6.7247,-6.7011,-6.6809,-6.6661,-6.6404,-6.5929,-6.5262,-6.4615,-6.4321,-6.3806,-6.3071,-6.2867,-6.2663,-6.2271,-6.2128,-6.2057,-6.1664,-6.1664,-6.1414,-6.1266,-6.1152,-6.1241,-6.1328,-6.1444,-6.1644,-6.1868,-6.2005,-6.2141,-6.2185,-6.237,-6.2526,-6.2603,-6.2654,-6.2705,-6.278,-6.2805,-6.2805,-6.2805,-6.2805,-6.2805,-6.2805,-6.2805,-6.2805,-6.2805,-6.2805,-6.2805,-6.2805,-6.2805,-6.2805,-6.2805,-6.2548,-6.2034,-6.13,-6.0493,-5.9391,-5.8327,-5.8107,-5.7997,-5.7997,-5.7997,-5.7997,-5.7997,-5.7997,-5.7997,-5.7997,-5.7997,-5.7997,-5.7886,-5.7593,-5.7116,-7.731,-7.731,-7.731,-7.731,-7.731,-7.731,-7.731,-7.731,-7.731,-7.731,-7.731,-7.731,-7.731,-7.731,-7.731,-7.731,-7.731,-7.731,-7.731,-7.731,-7.731,-7.731,-7.731,-7.731,-7.731,-7.731,-7.731,-7.731,-7.731,-7.7237,-7.6686,-7.6056,-7.5249,-7.4368,-7.3634,-7.2936,-7.2532,-7.2532,-7.2496,-7.2496,-7.2275,-7.1586,-7.0392,-6.8795,-6.7932,-6.7279,-6.6969,-6.6691,-6.6482,-6.6452,-6.6141,-6.5663,-6.5238,-6.4987,-6.4603,-6.3663,-6.3591,-6.3413,-6.3163,-6.3163,-6.2985,-6.2515,-6.2449,-6.2199,-6.1765,-6.1605,-6.1586,-6.1623,-6.1731,-6.184,-6.2005,-6.2114,-6.2222,-6.2291,-6.2475,-6.2603,-6.2654,-6.273,-6.278,-6.278,-6.2805,-6.2805,-6.2805,-6.2805,-6.2805,-6.2805,-6.2805,-6.2805,-6.2805,-6.2805,-6.2805,-6.2805,-6.2805,-6.2805,-6.2805,-6.2732,-6.2181,-6.1374,-6.0566,-5.9575,-5.851,-5.8143,-5.8033,-5.7997,-5.7997,-5.7997,-5.7997,-5.7997,-5.7997,-5.7997,-5.7997,-5.7997,-5.7997,-5.7997,-5.7483,-7.731,-7.731,-7.731,-7.731,-7.731,-7.731,-7.731,-7.731,-7.731,-7.731,-7.731,-7.731,-7.731,-7.731,-7.731,-7.731,-7.731,-7.731,-7.731,-7.731,-7.731,-7.731,-7.731,-7.731,-7.731,-7.731,-7.731,-7.731,-7.731,-7.7237,-7.6937,-7.6093,-7.5285,-7.4515,-7.378,-7.2973,-7.2532,-7.2532,-7.2532,-7.2532,-7.2349,-7.166,-7.049,-6.8864,-6.8218,-6.7608,-6.696,-6.6638,-6.6488,-6.633,-6.6115,-6.5887,-6.5649,-6.5582,-6.5157,-6.4626,-6.4412,-6.4198,-6.377,-6.352,-6.3377,-6.3234,-6.3199,-6.3163,-6.2872,-6.2564,-6.2426,-6.2386,-6.2253,-6.2114,-6.2168,-6.2466,-6.2427,-6.2548,-6.2761,-6.2837,-6.2877,-6.2927,-6.2952,-6.2989,-6.2915,-6.2805,-6.2805,-6.2805,-6.2805,-6.2805,-6.2805,-6.2805,-6.2805,-6.2805,-6.2805,-6.2805,-6.2805,-6.2805,-6.2805,-6.2768,-6.2438,-6.1594,-6.0786,-6.0015,-5.9061,-5.8364,-5.8107,-5.7997,-5.7997,-5.7997,-5.7997,-5.7997,-5.7997,-5.7997,-5.7997,-5.7997,-5.7997,-5.796,-5.7666,-7.731,-7.731,-7.731,-7.731,-7.731,-7.731,-7.731,-7.731,-7.731,-7.731,-7.731,-7.731,-7.731,-7.731,-7.731,-7.731,-7.731,-7.731,-7.731,-7.731,-7.731,-7.731,-7.731,-7.731,-7.731,-7.731,-7.731,-7.731,-7.731,-7.731,-7.7053,-7.657,-7.5579,-7.4698,-7.4111,-7.312,-7.2606,-7.2532,-7.2532,-7.2496,-7.243,-7.1639,-7.0522,-6.9705,-6.8648,-6.7919,-6.7318,-6.6626,-6.6336,-6.6146,-6.599,-6.5899,-6.5836,-6.5768,-6.5625,-6.5268,-6.5197,-6.509,-6.4697,-6.4626,-6.4519,-6.4091,-6.4019,-6.3867,-6.3637,-6.3328,-6.3327,-6.3452,-6.3543,-6.3375,-6.3494,-6.352,-6.3753,-6.3858,-6.3899,-6.394,-6.3954,-6.3686,-6.3503,-6.3356,-6.3099,-6.2952,-6.2805,-6.2805,-6.2805,-6.2805,-6.2805,-6.2805,-6.2805,-6.2805,-6.2805,-6.2805,-6.2805,-6.2805,-6.2805,-6.2768,-6.2658,-6.1887,-6.108,-6.0272,-5.9465,-5.8694,-5.8217,-5.7997,-5.7997,-5.7997,-5.7997,-5.7997,-5.7997,-5.7997,-5.7997,-5.7997,-5.7997,-5.7886,-5.7666,-7.731,-7.731,-7.731,-7.731,-7.731,-7.731,-7.731,-7.731,-7.731,-7.731,-7.731,-7.731,-7.731,-7.731,-7.731,-7.731,-7.731,-7.731,-7.731,-7.731,-7.731,-7.731,-7.731,-7.731,-7.731,-7.731,-7.731,-7.731,-7.731,-7.731,-7.731,-7.676,-7.5659,-7.4888,-7.4551,-7.3266,-7.2753,-7.2532,-7.2496,-7.2496,-7.2226,-7.1706,-7.1062,-7.0581,-6.9285,-6.838,-6.7625,-6.6978,-6.6392,-6.6093,-6.5895,-6.5804,-6.5804,-6.5804,-6.5804,-6.5804,-6.5804,-6.5804,-6.5732,-6.5697,-6.534,-6.4912,-6.4876,-6.4582,-6.4373,-6.4304,-6.4216,-6.4432,-6.4464,-6.4494,-6.4467,-6.4848,-6.4981,-6.5061,-6.5076,-6.5228,-6.4971,-6.464,-6.42,-6.387,-6.3392,-6.3099,-6.2952,-6.2805,-6.2805,-6.2805,-6.2805,-6.2805,-6.2805,-6.2805,-6.2805,-6.2805,-6.2805,-6.2805,-6.2805,-6.2805,-6.2658,-6.2254,-6.1447,-6.0676,-5.9795,-5.8951,-5.8547,-5.8143,-5.7997,-5.7997,-5.7997,-5.7997,-5.7997,-5.7997,-5.7997,-5.7997,-5.7997,-5.7997,-5.785,-7.731,-7.731,-7.731,-7.731,-7.731,-7.731,-7.731,-7.731,-7.731,-7.731,-7.731,-7.731,-7.731,-7.731,-7.731,-7.731,-7.731,-7.731,-7.731,-7.731,-7.731,-7.731,-7.731,-7.731,-7.731,-7.731,-7.731,-7.731,-7.731,-7.731,-7.731,-7.6943,-7.5806,-7.4888,-7.4705,-7.3303,-7.2569,-7.2532,-7.2496,-7.2446,-7.2292,-7.1998,-7.1417,-7.0732,-7.0009,-6.9173,-6.8069,-6.7352,-6.6733,-6.6097,-6.5899,-6.5804,-6.5804,-6.5804,-6.5804,-6.5804,-6.5804,-6.5804,-6.5804,-6.5804,-6.5768,-6.5518,-6.5554,-6.5649,-6.5474,-6.5251,-6.5012,-6.4565,-6.4721,-6.4977,-6.5213,-6.5174,-6.5244,-6.5406,-6.5642,-6.5595,-6.5448,-6.5485,-6.5044,-6.4604,-6.42,-6.3539,-6.3135,-6.2952,-6.2805,-6.2805,-6.2805,-6.2805,-6.2805,-6.2805,-6.2805,-6.2805,-6.2805,-6.2805,-6.2805,-6.2805,-6.2732,-6.2475,-6.1777,-6.1043,-6.0346,-5.9538,-5.8767,-5.8437,-5.8217,-5.7997,-5.7997,-5.7997,-5.7997,-5.7997,-5.7997,-5.7997,-5.7997,-5.7997,-5.7997,-7.731,-7.731,-7.731,-7.731,-7.731,-7.731,-7.731,-7.731,-7.731,-7.731,-7.731,-7.731,-7.731,-7.731,-7.731,-7.731,-7.731,-7.731,-7.731,-7.731,-7.731,-7.731,-7.731,-7.731,-7.731,-7.731,-7.731,-7.731,-7.731,-7.731,-7.731,-7.7053,-7.5799,-7.4888,-7.4705,-7.3303,-7.2679,-7.2467,-7.2409,-7.2292,-7.2144,-7.1927,-7.1629,-7.1081,-7.0464,-6.9656,-6.8881,-6.7685,-6.71,-6.6503,-6.6157,-6.5804,-6.5804,-6.5804,-6.5804,-6.5804,-6.5804,-6.5804,-6.5804,-6.5804,-6.5804,-6.5836,-6.5899,-6.5949,-6.6197,-6.6193,-6.6105,-6.6009,-6.605,-6.6144,-6.6308,-6.6489,-6.657,-6.6596,-6.6402,-6.6476,-6.6366,-6.6035,-6.5852,-6.5448,-6.5007,-6.4347,-6.3649,-6.3172,-6.2989,-6.2805,-6.2805,-6.2805,-6.2805,-6.2805,-6.2805,-6.2805,-6.2805,-6.2805,-6.2805,-6.2805,-6.2805,-6.2548,-6.2034,-6.1374,-6.097,-6.0272,-5.9428,-5.8731,-5.8364,-5.818,-5.8033,-5.7997,-5.7997,-5.7997,-5.7997,-5.7997,-5.7997,-5.7997,-5.7997,-7.731,-7.731,-7.731,-7.731,-7.731,-7.731,-7.731,-7.731,-7.731,-7.731,-7.731,-7.731,-7.731,-7.731,-7.731,-7.731,-7.731,-7.731,-7.731,-7.731,-7.731,-7.731,-7.731,-7.731,-7.731,-7.731,-7.731,-7.731,-7.731,-7.731,-7.731,-7.72,-7.5689,-7.4999,-7.4448,-7.3413,-7.2467,-7.2409,-7.2321,-7.2174,-7.1994,-7.1842,-7.1656,-7.1282,-7.0766,-7.0174,-6.9617,-6.8633,-6.7758,-6.7189,-6.6553,-6.6232,-6.6196,-6.5946,-6.5839,-6.5804,-6.5804,-6.5804,-6.5804,-6.5804,-6.5804,-6.5867,-6.599,-6.6207,-6.6421,-6.6697,-6.6874,-6.6858,-6.6943,-6.7148,-6.746,-6.7523,-6.744,-6.743,-6.7467,-6.7614,-6.7577,-6.7026,-6.6512,-6.6072,-6.5632,-6.5228,-6.4494,-6.3649,-6.3209,-6.2915,-6.2805,-6.2805,-6.2805,-6.2805,-6.2805,-6.2805,-6.2805,-6.2805,-6.2805,-6.2805,-6.2805,-6.2695,-6.2181,-6.1741,-6.1337,-6.0786,-6.0015,-5.9355,-5.8731,-5.8327,-5.8143,-5.807,-5.7997,-5.7997,-5.7997,-5.7997,-5.7997,-5.7997,-5.7997,-7.731,-7.731,-7.731,-7.731,-7.731,-7.731,-7.731,-7.731,-7.731,-7.731,-7.731,-7.731,-7.731,-7.731,-7.731,-7.731,-7.731,-7.731,-7.731,-7.731,-7.731,-7.731,-7.731,-7.731,-7.731,-7.731,-7.731,-7.731,-7.731,-7.731,-7.731,-7.7053,-7.5836,-7.5145,-7.4411,-7.3377,-7.2482,-7.2387,-7.2299,-7.2121,-7.1939,-7.1786,-7.1593,-7.134,-7.1002,-7.0518,-6.9672,-6.9185,-6.8692,-6.8016,-6.7302,-6.6767,-6.6624,-6.6268,-6.6018,-6.5839,-6.5804,-6.5804,-6.5804,-6.5804,-6.5804,-6.5899,-6.6052,-6.63,-6.6512,-6.6697,-6.6903,-6.7126,-6.721,-6.7378,-6.7579,-6.7687,-6.7687,-6.7687,-6.7687,-6.7687,-6.7687,-6.7614,-6.7136,-6.6659,-6.6292,-6.5962,-6.5338,-6.4494,-6.3686,-6.3356,-6.2842,-6.2805,-6.2805,-6.2805,-6.2805,-6.2805,-6.2805,-6.2805,-6.2805,-6.2805,-6.2805,-6.2805,-6.2548,-6.2144,-6.1777,-6.1153,-6.0566,-5.9942,-5.9318,-5.8767,-5.8253,-5.8143,-5.8033,-5.7997,-5.7997,-5.7997,-5.7997,-5.7997,-5.7997,-7.731,-7.731,-7.731,-7.731,-7.731,-7.731,-7.731,-7.731,-7.731,-7.731,-7.731,-7.731,-7.731,-7.731,-7.731,-7.731,-7.731,-7.731,-7.731,-7.731,-7.731,-7.731,-7.731,-7.731,-7.731,-7.731,-7.731,-7.731,-7.731,-7.731,-7.731,-7.6907,-7.6166,-7.5432,-7.4588,-7.3347,-7.2592,-7.2299,-7.2181,-7.1994,-7.1847,-7.1562,-7.1404,-7.1308,-7.1018,-7.0742,-7.032,-6.9652,-6.9227,-6.8766,-6.8088,-6.7588,-6.7195,-6.6731,-6.6375,-6.5982,-6.5946,-6.5875,-6.5839,-6.5871,-6.5899,-6.6119,-6.6274,-6.6427,-6.6638,-6.6815,-6.6983,-6.7154,-6.7331,-6.7497,-6.7633,-6.7687,-6.7687,-6.7687,-6.7687,-6.7687,-6.7687,-6.7687,-6.7614,-6.71,-6.7026,-6.688,-6.6145,-6.5338,-6.453,-6.3796,-6.3246,-6.2805,-6.2805,-6.2805,-6.2805,-6.2805,-6.2805,-6.2805,-6.2805,-6.2805,-6.2805,-6.2805,-6.2805,-6.2511,-6.2144,-6.1667,-6.108,-6.0493,-5.9869,-5.9281,-5.8767,-5.8327,-5.8107,-5.8033,-5.7997,-5.7997,-5.7997,-5.7997,-5.7997,-7.731,-7.731,-7.731,-7.731,-7.731,-7.731,-7.731,-7.731,-7.731,-7.731,-7.731,-7.731,-7.731,-7.731,-7.731,-7.731,-7.731,-7.731,-7.731,-7.731,-7.731,-7.731,-7.731,-7.731,-7.731,-7.731,-7.731,-7.731,-7.731,-7.731,-7.731,-7.7127,-7.6717,-7.5983,-7.4668,-7.3355,-7.2387,-7.2204,-7.2061,-7.1872,-7.1687,-7.1467,-7.1243,-7.1179,-7.0952,-7.0752,-7.0505,-7.0048,-6.98,-6.9444,-6.8944,-6.8266,-6.7838,-6.741,-6.7053,-6.6624,-6.6268,-6.6161,-6.6125,-6.5943,-6.5998,-6.6177,-6.6269,-6.6488,-6.6727,-6.6932,-6.704,-6.7182,-6.7387,-6.7552,-6.7687,-6.7687,-6.7687,-6.7687,-6.7687,-6.7687,-6.7687,-6.7687,-6.7687,-6.754,-6.7467,-6.7357,-6.6733,-6.5815,-6.453,-6.3759,-6.3172,-6.2805,-6.2805,-6.2805,-6.2805,-6.2805,-6.2805,-6.2805,-6.2805,-6.2805,-6.2805,-6.2805,-6.2805,-6.2805,-6.2475,-6.2071,-6.1667,-6.1153,-6.0529,-5.9845,-5.9281,-5.8767,-5.8364,-5.8033,-5.7997,-5.7997,-5.7997,-5.7997,-5.7997,-7.731,-7.731,-7.731,-7.731,-7.731,-7.731,-7.731,-7.731,-7.731,-7.731,-7.731,-7.731,-7.731,-7.731,-7.731,-7.731,-7.731,-7.731,-7.731,-7.731,-7.731,-7.731,-7.731,-7.731,-7.731,-7.731,-7.731,-7.731,-7.731,-7.731,-7.731,-7.72,-7.6937,-7.6276,-7.4852,-7.3193,-7.2277,-7.2018,-7.1872,-7.1718,-7.1531,-7.134,-7.1179,-7.1015,-7.0852,-7.0684,-7.0511,-7.0406,-7.0229,-7.0122,-6.9658,-6.9158,-6.8908,-6.8337,-6.798,-6.7802,-6.7231,-6.6981,-6.691,-6.6232,-6.6137,-6.6243,-6.6269,-6.6421,-6.6727,-6.6932,-6.7069,-6.721,-6.7414,-6.7552,-6.7633,-6.7687,-6.7687,-6.7687,-6.7687,-6.7687,-6.7687,-6.7687,-6.7687,-6.7687,-6.7687,-6.7577,-6.7063,-6.6219,-6.4677,-6.3686,-6.3062,-6.2805,-6.2805,-6.2805,-6.2805,-6.2805,-6.2805,-6.2805,-6.2805,-6.2805,-6.2805,-6.2805,-6.2805,-6.2805,-6.2805,-6.2585,-6.2181,-6.1777,-6.1263,-6.0639,-5.9905,-5.9208,-5.8671,-5.8134,-5.8033,-5.7997,-5.7997,-5.7973,-5.795,-7.731,-7.731,-7.731,-7.731,-7.731,-7.731,-7.731,-7.731,-7.731,-7.731,-7.731,-7.731,-7.731,-7.731,-7.731,-7.731,-7.731,-7.731,-7.731,-7.731,-7.731,-7.731,-7.731,-7.731,-7.731,-7.731,-7.731,-7.731,-7.731,-7.731,-7.731,-7.7237,-7.6864,-7.5946,-7.4895,-7.3669,-7.2825,-7.2127,-7.1872,-7.1692,-7.1404,-7.1211,-7.1048,-7.085,-7.0718,-7.0582,-7.0478,-7.0514,-7.0514,-7.0514,-7.005,-6.9836,-6.9481,-6.8944,-6.8694,-6.8337,-6.7731,-6.7481,-6.716,-6.6692,-6.6499,-6.6397,-6.63,-6.6457,-6.6757,-6.6983,-6.7126,-6.7266,-6.747,-6.7606,-6.7687,-6.7687,-6.7687,-6.7687,-6.7687,-6.7687,-6.7687,-6.7687,-6.7687,-6.7687,-6.7687,-6.7357,-6.6916,-6.6439,-6.5081,-6.4016,-6.3429,-6.2952,-6.2817,-6.2842,-6.2805,-6.2805,-6.2805,-6.2805,-6.2805,-6.2805,-6.2805,-6.2805,-6.2805,-6.2805,-6.2805,-6.2805,-6.2695,-6.2291,-6.1851,-6.141,-6.0639,-5.9808,-5.8844,-5.8294,-5.8074,-5.7904,-5.7881,-5.7857,-5.7834,-7.731,-7.731,-7.731,-7.731,-7.731,-7.731,-7.731,-7.731,-7.731,-7.731,-7.731,-7.731,-7.731,-7.731,-7.731,-7.731,-7.731,-7.731,-7.731,-7.731,-7.731,-7.731,-7.731,-7.731,-7.731,-7.731,-7.731,-7.731,-7.731,-7.731,-7.731,-7.7163,-7.6723,-7.6179,-7.5202,-7.4062,-7.2844,-7.2146,-7.1811,-7.1562,-7.1308,-7.1114,-7.0949,-7.0785,-7.065,-7.0514,-7.0514,-7.0514,-7.0514,-7.0514,-7.0407,-7.0264,-6.9836,-6.9622,-6.9444,-6.9051,-6.8587,-6.8195,-6.7624,-6.741,-6.7211,-6.6849,-6.6521,-6.6488,-6.6757,-6.7011,-6.7154,-6.7294,-6.7552,-6.766,-6.7687,-6.7687,-6.7687,-6.7687,-6.7687,-6.7687,-6.7687,-6.7687,-6.7687,-6.7687,-6.7614,-6.7247,-6.6916,-6.6256,-6.5485,-6.464,-6.3833,-6.3356,-6.2853,-6.2842,-6.2805,-6.2805,-6.2805,-6.2805,-6.2805,-6.2805,-6.2805,-6.2805,-6.2805,-6.2805,-6.2805,-6.2805,-6.2805,-6.2805,-6.2401,-6.1924,-6.1276,-6.0444,-5.9273,-5.8456,-5.803,-5.7896,-5.7763,-5.7739,-5.7715,-7.7237,-7.7237,-7.731,-7.731,-7.731,-7.731,-7.731,-7.731,-7.731,-7.731,-7.731,-7.731,-7.731,-7.731,-7.731,-7.731,-7.731,-7.731,-7.731,-7.731,-7.731,-7.731,-7.731,-7.731,-7.731,-7.731,-7.731,-7.731,-7.731,-7.731,-7.731,-7.731,-7.7163,-7.6515,-7.5513,-7.433,-7.3112,-7.2376,-7.1723,-7.1472,-7.1211,-7.1081,-7.0883,-7.0752,-7.0582,-7.0514,-7.0514,-7.0514,-7.0514,-7.0514,-7.0478,-7.0478,-7.0478,-7.0478,-7.0478,-7.0264,-6.9658,-6.898,-6.8337,-6.8159,-6.7927,-6.7501,-6.6875,-6.6734,-6.6757,-6.7011,-6.7182,-6.7294,-6.7488,-6.7633,-6.7687,-6.7687,-6.7687,-6.7687,-6.7687,-6.7687,-6.7687,-6.7687,-6.7687,-6.7687,-6.7687,-6.7467,-6.7357,-6.6769,-6.5925,-6.5081,-6.4237,-6.3466,-6.3062,-6.2842,-6.2805,-6.2805,-6.2805,-6.2805,-6.2805,-6.2805,-6.2805,-6.2805,-6.2805,-6.2805,-6.2805,-6.2805,-6.2805,-6.2805,-6.2805,-6.2377,-6.152,-6.0591,-5.9566,-5.8896,-5.8422,-5.785,-5.7729,-5.7619,-5.7595,-7.646,-7.6497,-7.7084,-7.731,-7.731,-7.731,-7.731,-7.731,-7.731,-7.731,-7.731,-7.731,-7.731,-7.731,-7.731,-7.731,-7.731,-7.731,-7.731,-7.731,-7.731,-7.731,-7.731,-7.731,-7.731,-7.731,-7.731,-7.731,-7.731,-7.731,-7.731,-7.731,-7.731,-7.6704,-7.5848,-7.467,-7.364,-7.2652,-7.1893,-7.1344,-7.1114,-7.0949,-7.0785,-7.0616,-7.0548,-7.0514,-7.0514,-7.0514,-7.0514,-7.0514,-7.0514,-7.0514,-7.0514,-7.0514,-7.0478,-7.0478,-7.0193,-6.9836,-6.9192,-6.9077,-6.8919,-6.8359,-6.7693,-6.712,-6.7033,-6.7084,-6.7247,-6.7322,-6.7488,-6.766,-6.7687,-6.7687,-6.7687,-6.7687,-6.7687,-6.7687,-6.7687,-6.7687,-6.7687,-6.7687,-6.7687,-6.765,-6.754,-6.7136,-6.6256,-6.5448,-6.464,-6.387,-6.3209,-6.2989,-6.2805,-6.2805,-6.2805,-6.2805,-6.2805,-6.2805,-6.2805,-6.2805,-6.2805,-6.2805,-6.2805,-6.2805,-6.2805,-6.278,-6.278,-6.229,-6.1556,-6.0712,-6.0028,-5.9466,-5.899,-5.8262,-5.7692,-5.7582,-5.7424,-7.5652,-7.5726,-7.6497,-7.698,-7.7273,-7.731,-7.731,-7.731,-7.731,-7.731,-7.731,-7.731,-7.731,-7.731,-7.731,-7.731,-7.731,-7.731,-7.731,-7.731,-7.731,-7.731,-7.731,-7.731,-7.731,-7.731,-7.731,-7.731,-7.731,-7.731,-7.731,-7.731,-7.731,-7.6893,-7.6115,-7.5046,-7.4087,-7.3103,-7.2195,-7.1391,-7.1015,-7.0886,-7.0684,-7.0548,-7.0514,-7.0514,-7.0514,-7.0514,-7.0514,-7.0514,-7.0514,-7.0514,-7.0514,-7.0514,-7.0514,-7.0514,-7.0443,-7.0229,-6.987,-6.9969,-6.9669,-6.9253,-6.8795,-6.8258,-6.7599,-6.736,-6.7263,-6.7266,-6.7488,-6.7687,-6.7687,-6.7687,-6.7687,-6.7687,-6.7687,-6.7687,-6.7687,-6.7687,-6.7687,-6.7687,-6.7687,-6.7687,-6.7467,-6.7136,-6.6696,-6.5999,-6.5228,-6.4457,-6.3686,-6.3099,-6.2915,-6.2805,-6.2805,-6.2805,-6.2805,-6.2805,-6.2805,-6.2805,-6.2805,-6.2805,-6.2805,-6.2805,-6.278,-6.278,-6.2755,-6.2277,-6.1846,-6.1354,-6.0741,-6.0176,-5.9538,-5.8797,-5.8047,-5.7431,-5.7246,-7.4845,-7.4882,-7.5652,-7.646,-7.7157,-7.7163,-7.72,-7.731,-7.731,-7.731,-7.731,-7.731,-7.731,-7.731,-7.731,-7.731,-7.731,-7.731,-7.731,-7.731,-7.731,-7.731,-7.731,-7.731,-7.731,-7.731,-7.731,-7.731,-7.731,-7.731,-7.731,-7.731,-7.7243,-7.6935,-7.6209,-7.5051,-7.4024,-7.3261,-7.2131,-7.1146,-7.1015,-7.0852,-7.072,-7.0548,-7.0514,-7.0514,-7.0514,-7.0514,-7.0514,-7.0514,-7.0514,-7.0514,-7.0514,-7.0514,-7.0514,-7.0514,-7.0514,-7.0443,-7.0404,-7.0503,-7.0384,-7.0152,-7.0021,-6.9405,-6.8711,-6.7862,-6.762,-6.7395,-6.7552,-6.7687,-6.7687,-6.7687,-6.7687,-6.7687,-6.7687,-6.7687,-6.7687,-6.7687,-6.7687,-6.7687,-6.7687,-6.7687,-6.765,-6.732,-6.699,-6.6439,-6.5668,-6.4861,-6.409,-6.3319,-6.2989,-6.2842,-6.2805,-6.2805,-6.2805,-6.2805,-6.2805,-6.2805,-6.2805,-6.2805,-6.2805,-6.278,-6.2817,-6.273,-6.2679,-6.2603,-6.2245,-6.1751,-6.1329,-6.0953,-6.024,-5.9348,-5.8572,-5.7897,-5.7247,-7.4001,-7.4074,-7.4845,-7.5652,-7.635,-7.6387,-7.6754,-7.7273,-7.731,-7.7237,-7.7273,-7.7273,-7.731,-7.731,-7.731,-7.731,-7.731,-7.731,-7.731,-7.731,-7.731,-7.731,-7.731,-7.731,-7.731,-7.731,-7.731,-7.731,-7.731,-7.731,-7.7273,-7.7273,-7.7138,-7.6732,-7.5963,-7.4733,-7.382,-7.3092,-7.1929,-7.115,-7.0982,-7.0716,-7.0548,-7.0514,-7.0514,-7.0514,-7.0514,-7.0514,-7.0514,-7.0514,-7.0514,-7.0514,-7.0514,-7.0514,-7.0514,-7.0514,-7.0514,-7.0514,-7.0547,-7.075,-7.0734,-7.0649,-7.0482,-7.0299,-6.9715,-6.8699,-6.8033,-6.7771,-6.7552,-6.7633,-6.7687,-6.7687,-6.7687,-6.7687,-6.7687,-6.7687,-6.7687,-6.7687,-6.7687,-6.7687,-6.7687,-6.7687,-6.7687,-6.7504,-6.7173,-6.6586,-6.5778,-6.5007,-6.4237,-6.3503,-6.3037,-6.2879,-6.2842,-6.2805,-6.2805,-6.2805,-6.2805,-6.2805,-6.2805,-6.2805,-6.2805,-6.2755,-6.273,-6.2679,-6.2603,-6.25,-6.2397,-6.2192,-6.1805,-6.1426,-6.0937,-6.0015,-5.9517,-5.8915,-5.7936,-7.3156,-7.3266,-7.4037,-7.4845,-7.5506,-7.5579,-7.5836,-7.6173,-7.6209,-7.6209,-7.6423,-7.6907,-7.7273,-7.7273,-7.731,-7.731,-7.731,-7.731,-7.731,-7.731,-7.731,-7.731,-7.731,-7.731,-7.731,-7.731,-7.731,-7.731,-7.731,-7.731,-7.7273,-7.7169,-7.6862,-7.6225,-7.5416,-7.4383,-7.3325,-7.2597,-7.1506,-7.1051,-7.0916,-7.0649,-7.0514,-7.0514,-7.0514,-7.0514,-7.0514,-7.0514,-7.0514,-7.0514,-7.0514,-7.0514,-7.0514,-7.0514,-7.0514,-7.0514,-7.0514,-7.0514,-7.0581,-7.0783,-7.0979,-7.093,-7.1051,-7.0869,-7.0496,-6.9617,-6.8982,-6.8612,-6.7789,-6.7687,-6.7687,-6.7687,-6.7687,-6.7687,-6.7687,-6.7687,-6.7687,-6.7687,-6.7687,-6.7687,-6.7687,-6.7687,-6.7687,-6.765,-6.7393,-6.7247,-6.6366,-6.5521,-6.4677,-6.3759,-6.3282,-6.289,-6.2842,-6.2805,-6.2805,-6.2805,-6.2805,-6.2805,-6.2805,-6.2805,-6.278,-6.273,-6.2679,-6.2603,-6.25,-6.237,-6.2238,-6.2168,-6.2033,-6.1678,-6.1232,-6.0711,-6.0239,-5.9767,-5.8872,-7.2532,-7.2606,-7.3266,-7.4001,-7.4698,-7.4771,-7.4845,-7.4955,-7.4925,-7.4925,-7.5175,-7.6356,-7.6943,-7.7127,-7.7273,-7.7273,-7.731,-7.731,-7.731,-7.731,-7.731,-7.731,-7.731,-7.731,-7.731,-7.731,-7.731,-7.731,-7.731,-7.7273,-7.72,-7.6986,-7.6386,-7.5645,-7.4942,-7.3951,-7.2753,-7.2171,-7.1438,-7.0985,-7.075,-7.0616,-7.0548,-7.0514,-7.0514,-7.0514,-7.0514,-7.0514,-7.0514,-7.0514,-7.0514,-7.0514,-7.0514,-7.0514,-7.0514,-7.0514,-7.0514,-7.0514,-7.0616,-7.085,-7.0946,-7.111,-7.1404,-7.1366,-7.1023,-7.0558,-6.9952,-6.9336,-6.8513,-6.7834,-6.7797,-6.7687,-6.7687,-6.7687,-6.7687,-6.7687,-6.7687,-6.7687,-6.7687,-6.7687,-6.7687,-6.7687,-6.7687,-6.7687,-6.7614,-6.7504,-6.7026,-6.6219,-6.5338,-6.431,-6.3539,-6.3099,-6.2842,-6.2805,-6.2805,-6.2805,-6.2805,-6.2805,-6.2805,-6.2805,-6.278,-6.2705,-6.2629,-6.2526,-6.2423,-6.2238,-6.2114,-6.1978,-6.1868,-6.1728,-6.1407,-6.0956,-6.0662,-6.0152,-5.9672,-7.2532,-7.2532,-7.2679,-7.3193,-7.3854,-7.3927,-7.4294,-7.4815,-7.4815,-7.4888,-7.4882,-7.5102,-7.5652,-7.635,-7.7053,-7.7163,-7.6907,-7.7017,-7.72,-7.731,-7.698,-7.7127,-7.7127,-7.6796,-7.72,-7.72,-7.709,-7.72,-7.6833,-7.698,-7.6845,-7.6166,-7.587,-7.491,-7.3551,-7.2744,-7.23,-7.1712,-7.1333,-7.0916,-7.0785,-7.0616,-7.0548,-7.0514,-7.0514,-7.0514,-7.0514,-7.0514,-7.0514,-7.0514,-7.0514,-7.0514,-7.0514,-7.0514,-7.0514,-7.0514,-7.0514,-7.0582,-7.0718,-7.0883,-7.0979,-7.1211,-7.1499,-7.1713,-7.1447,-7.1231,-7.077,-7.0547,-6.9633,-6.8495,-6.8201,-6.7797,-6.7687,-6.7687,-6.7687,-6.7687,-6.7687,-6.7687,-6.7687,-6.7687,-6.7687,-6.7687,-6.7687,-6.7687,-6.7687,-6.7467,-6.7136,-6.6366,-6.5632,-6.4714,-6.3833,-6.3392,-6.2952,-6.2805,-6.2805,-6.2805,-6.2805,-6.2805,-6.278,-6.278,-6.273,-6.2679,-6.2578,-6.2449,-6.2291,-6.2105,-6.1978,-6.1812,-6.1672,-6.153,-6.1444,-6.1156,-6.0867,-6.06,-6.0119]}]]